Time,TemperatureF,DewpointF,PressureIn,WindDirection,WindDirectionDegrees,WindSpeedMPH,WindSpeedGustMPH,Humidity,HourlyPrecipIn,Conditions,Clouds,dailyrainin,SoftwareType,DateUTC
2013-06-23 00:00:00,79.0,76.2,30.13,SE,126,11.0,11.0,91,0.00,,CLR,0.00,VWS V14.01,2013-06-23 04:00:00,
2013-06-23 00:01:00,79.0,76.2,30.13,ESE,121,9.0,11.0,91,0.00,,CLR,0.00,VWS V14.01,2013-06-23 04:01:00,
2013-06-23 00:03:00,79.0,76.2,30.13,SE,125,10.0,12.0,91,0.00,,BKN035,0.00,VWS V14.01,2013-06-23 04:03:00,
2013-06-23 00:04:00,79.0,76.2,30.13,ESE,121,10.0,12.0,91,0.00,,BKN035,0.00,VWS V14.01,2013-06-23 04:04:00,
2013-06-23 00:05:00,79.0,75.8,30.13,SE,125,11.0,11.0,90,0.00,,BKN035,0.00,VWS V14.01,2013-06-23 04:05:00,
2013-06-23 00:06:00,79.0,75.8,30.13,SE,126,11.0,11.0,90,0.00,,CLR,0.00,VWS V14.01,2013-06-23 04:06:00,
2013-06-23 00:07:00,79.0,75.8,30.13,SE,126,11.0,11.0,90,0.00,,BKN035,0.00,VWS V14.01,2013-06-23 04:07:00,
2013-06-23 00:08:00,79.0,75.8,30.13,SE,142,9.0,12.0,90,0.00,,BKN035,0.00,VWS V14.01,2013-06-23 04:08:00,
2013-06-23 00:09:00,79.0,75.8,30.13,SE,132,12.0,12.0,90,0.00,,BKN035,0.00,VWS V14.01,2013-06-23 04:09:00,
2013-06-23 00:10:00,79.0,75.8,30.13,SE,133,10.0,12.0,90,0.00,,BKN035,0.00,VWS V14.01,2013-06-23 04:10:00,
2013-06-23 00:11:00,79.0,75.8,30.13,SE,136,12.0,13.0,90,0.00,,CLR,0.00,VWS V14.01,2013-06-23 04:11:00,
2013-06-23 00:13:00,79.0,75.8,30.13,SE,133,12.0,12.0,90,0.00,,BKN035,0.00,VWS V14.01,2013-06-23 04:13:00,
2013-06-23 00:14:00,79.0,75.8,30.13,SE,140,9.0,12.0,90,0.00,,BKN035,0.00,VWS V14.01,2013-06-23 04:14:00,
2013-06-23 00:15:00,79.0,75.8,30.13,SE,133,13.0,13.0,90,0.00,,BKN035,0.00,VWS V14.01,2013-06-23 04:15:00,
2013-06-23 00:16:00,79.0,75.8,30.13,SE,135,11.0,12.0,90,0.00,,CLR,0.00,VWS V14.01,2013-06-23 04:16:00,
2013-06-23 00:17:00,79.0,75.8,30.13,SE,135,11.0,12.0,90,0.00,,BKN035,0.00,VWS V14.01,2013-06-23 04:17:00,
2013-06-23 00:18:00,79.0,75.8,30.13,SE,129,10.0,12.0,90,0.00,,BKN035,0.00,VWS V14.01,2013-06-23 04:18:00,
2013-06-23 00:19:00,79.0,75.8,30.13,SE,126,11.0,11.0,90,0.00,,BKN035,0.00,VWS V14.01,2013-06-23 04:19:00,
2013-06-23 00:20:00,79.2,76.0,30.13,SE,138,11.0,11.0,90,0.00,,BKN035,0.00,VWS V14.01,2013-06-23 04:20:00,
2013-06-23 00:21:00,79.2,76.0,30.13,ESE,119,11.0,12.0,90,0.00,,CLR,0.00,VWS V14.01,2013-06-23 04:21:00,
2013-06-23 00:22:00,79.2,76.0,30.13,ESE,119,11.0,12.0,90,0.00,,BKN035,0.00,VWS V14.01,2013-06-23 04:22:00,
2013-06-23 00:23:00,79.2,76.0,30.13,ESE,120,10.0,13.0,90,0.00,,BKN035,0.00,VWS V14.01,2013-06-23 04:23:00,
2013-06-23 00:24:00,79.2,76.0,30.13,SE,125,10.0,11.0,90,0.00,,BKN035,0.00,VWS V14.01,2013-06-23 04:24:00,
2013-06-23 00:26:00,79.0,75.8,30.13,SE,132,10.0,12.0,90,0.00,,CLR,0.00,VWS V14.01,2013-06-23 04:26:00,
2013-06-23 00:27:00,79.0,75.8,30.13,SE,132,10.0,12.0,90,0.00,,BKN035,0.00,VWS V14.01,2013-06-23 04:27:00,
2013-06-23 00:28:00,79.0,75.8,30.13,SE,137,12.0,12.0,90,0.00,,BKN035,0.00,VWS V14.01,2013-06-23 04:28:00,
2013-06-23 00:30:00,79.0,75.8,30.13,SE,132,11.0,12.0,90,0.00,,BKN035,0.00,VWS V14.01,2013-06-23 04:30:00,
2013-06-23 00:31:00,79.0,76.2,30.13,SE,146,10.0,11.0,91,0.00,,CLR,0.00,VWS V14.01,2013-06-23 04:31:00,
2013-06-23 00:32:00,79.0,76.2,30.13,SE,146,10.0,11.0,91,0.00,,BKN035,0.00,VWS V14.01,2013-06-23 04:32:00,
2013-06-23 00:33:00,79.2,76.3,30.13,SE,140,10.0,11.0,91,0.00,,BKN035,0.00,VWS V14.01,2013-06-23 04:33:00,
2013-06-23 00:34:00,79.2,76.3,30.13,SE,125,10.0,11.0,91,0.00,,BKN035,0.00,VWS V14.01,2013-06-23 04:34:00,
2013-06-23 00:35:00,79.2,76.3,30.13,SE,129,11.0,11.0,91,0.00,,BKN035,0.00,VWS V14.01,2013-06-23 04:35:00,
2013-06-23 00:36:00,79.2,76.3,30.13,SE,135,9.0,11.0,91,0.00,,CLR,0.00,VWS V14.01,2013-06-23 04:36:00,
2013-06-23 00:37:00,79.2,76.3,30.13,SE,125,10.0,11.0,91,0.00,,BKN035,0.00,VWS V14.01,2013-06-23 04:37:00,
2013-06-23 00:38:00,79.2,76.3,30.13,SE,130,10.0,10.0,91,0.00,,BKN035,0.00,VWS V14.01,2013-06-23 04:38:00,
2013-06-23 00:39:00,79.2,76.3,30.13,SE,124,9.0,11.0,91,0.00,,BKN035,0.00,VWS V14.01,2013-06-23 04:39:00,
2013-06-23 00:40:00,79.2,76.3,30.13,ESE,118,9.0,10.0,91,0.00,,BKN035,0.00,VWS V14.01,2013-06-23 04:40:00,
2013-06-23 00:41:00,79.2,76.3,30.13,SE,140,7.0,11.0,91,0.00,,CLR,0.00,VWS V14.01,2013-06-23 04:41:00,
2013-06-23 00:42:00,79.2,76.3,30.13,SE,140,7.0,11.0,91,0.00,,BKN035,0.00,VWS V14.01,2013-06-23 04:42:00,
2013-06-23 00:44:00,79.2,76.3,30.13,SE,136,7.0,11.0,91,0.00,,BKN035,0.00,VWS V14.01,2013-06-23 04:44:00,
2013-06-23 00:45:00,79.2,76.3,30.13,SE,134,9.0,12.0,91,0.00,,BKN035,0.00,VWS V14.01,2013-06-23 04:45:00,
2013-06-23 00:46:00,79.0,76.2,30.13,SE,143,12.0,12.0,91,0.00,,CLR,0.00,VWS V14.01,2013-06-23 04:46:00,
2013-06-23 00:47:00,79.0,76.2,30.13,SE,143,12.0,12.0,91,0.00,,BKN035,0.00,VWS V14.01,2013-06-23 04:47:00,
2013-06-23 00:48:00,79.0,76.2,30.13,SE,128,12.0,12.0,91,0.00,,BKN035,0.00,VWS V14.01,2013-06-23 04:48:00,
2013-06-23 00:49:00,79.0,76.2,30.13,SE,126,11.0,12.0,91,0.00,,BKN035,0.00,VWS V14.01,2013-06-23 04:49:00,
2013-06-23 00:51:00,79.0,75.2,30.13,SE,132,10.0,12.0,88,0.00,,CLR,0.00,VWS V14.01,2013-06-23 04:51:00,
2013-06-23 00:52:00,79.0,75.2,30.13,SE,132,10.0,12.0,88,0.00,,BKN035,0.00,VWS V14.01,2013-06-23 04:52:00,
2013-06-23 00:53:00,79.0,76.2,30.13,SE,136,11.0,11.0,91,0.00,,BKN035,0.00,VWS V14.01,2013-06-23 04:53:00,
2013-06-23 00:54:00,79.0,76.2,30.13,SE,132,11.0,11.0,91,0.00,,BKN035,0.00,VWS V14.01,2013-06-23 04:54:00,
2013-06-23 00:56:00,79.0,76.2,30.13,SE,138,11.0,11.0,91,0.00,,CLR,0.00,VWS V14.01,2013-06-23 04:56:00,
2013-06-23 00:57:00,79.0,76.2,30.13,SE,138,11.0,11.0,91,0.00,,BKN035,0.00,VWS V14.01,2013-06-23 04:57:00,
2013-06-23 00:58:00,79.0,76.2,30.13,SE,142,7.0,12.0,91,0.00,,BKN035,0.00,VWS V14.01,2013-06-23 04:58:00,
2013-06-23 00:59:00,79.0,76.2,30.13,SE,128,9.0,9.0,91,0.00,,BKN035,0.00,VWS V14.01,2013-06-23 04:59:00,
2013-06-23 01:00:00,79.0,76.2,30.13,SE,145,10.0,11.0,91,0.00,,BKN035,0.00,VWS V14.01,2013-06-23 05:00:00,
2013-06-23 01:01:00,79.0,76.2,30.13,SE,134,11.0,11.0,91,0.00,,CLR,0.00,VWS V14.01,2013-06-23 05:01:00,
2013-06-23 01:02:00,79.0,76.2,30.13,SE,134,11.0,11.0,91,0.00,,BKN035,0.00,VWS V14.01,2013-06-23 05:02:00,
2013-06-23 01:03:00,79.0,76.2,30.13,SE,144,8.0,11.0,91,0.00,,BKN035,0.00,VWS V14.01,2013-06-23 05:03:00,
2013-06-23 01:04:00,79.2,76.7,30.13,SE,138,11.0,12.0,92,0.00,,BKN035,0.00,VWS V14.01,2013-06-23 05:04:00,
2013-06-23 01:05:00,79.2,76.7,30.13,SE,138,10.0,13.0,92,0.00,,BKN035,0.00,VWS V14.01,2013-06-23 05:05:00,
2013-06-23 01:06:00,79.0,76.5,30.13,SE,131,13.0,13.0,92,0.00,,CLR,0.00,VWS V14.01,2013-06-23 05:06:00,
2013-06-23 01:07:00,79.0,76.5,30.13,SE,131,13.0,13.0,92,0.00,,BKN035,0.00,VWS V14.01,2013-06-23 05:07:00,
2013-06-23 01:08:00,79.0,76.2,30.13,SE,143,11.0,13.0,91,0.00,,BKN035,0.00,VWS V14.01,2013-06-23 05:08:00,
2013-06-23 01:09:00,79.0,76.2,30.13,SE,130,11.0,11.0,91,0.00,,BKN035,0.00,VWS V14.01,2013-06-23 05:09:00,
2013-06-23 01:11:00,79.2,76.7,30.13,SE,139,11.0,11.0,92,0.00,,CLR,0.00,VWS V14.01,2013-06-23 05:11:00,
2013-06-23 01:12:00,79.2,76.7,30.13,SE,139,11.0,11.0,92,0.00,,BKN035,0.00,VWS V14.01,2013-06-23 05:12:00,
2013-06-23 01:14:00,79.0,76.5,30.12,SE,125,12.0,12.0,92,0.00,,BKN035,0.00,VWS V14.01,2013-06-23 05:14:00,
2013-06-23 01:15:00,79.0,76.5,30.12,SE,126,11.0,12.0,92,0.00,,BKN035,0.00,VWS V14.01,2013-06-23 05:15:00,
2013-06-23 01:16:00,78.8,75.9,30.12,SE,144,10.0,12.0,91,0.00,,CLR,0.00,VWS V14.01,2013-06-23 05:16:00,
2013-06-23 01:17:00,78.8,75.9,30.12,SE,144,10.0,12.0,91,0.00,,BKN035,0.00,VWS V14.01,2013-06-23 05:17:00,
2013-06-23 01:18:00,79.0,76.2,30.12,SE,128,9.0,12.0,91,0.00,,BKN035,0.00,VWS V14.01,2013-06-23 05:18:00,
2013-06-23 01:19:00,79.0,76.2,30.12,SE,129,11.0,13.0,91,0.00,,BKN035,0.00,VWS V14.01,2013-06-23 05:19:00,
2013-06-23 01:20:00,79.0,76.2,30.12,SE,131,12.0,12.0,91,0.00,,BKN035,0.00,VWS V14.01,2013-06-23 05:20:00,
2013-06-23 01:21:00,79.0,76.2,30.12,SE,126,12.0,13.0,91,0.00,,CLR,0.00,VWS V14.01,2013-06-23 05:21:00,
2013-06-23 01:22:00,79.0,76.2,30.12,SE,126,12.0,13.0,91,0.00,,BKN035,0.00,VWS V14.01,2013-06-23 05:22:00,
2013-06-23 01:23:00,79.0,76.2,30.12,SE,134,10.0,12.0,91,0.00,,BKN035,0.00,VWS V14.01,2013-06-23 05:23:00,
2013-06-23 01:24:00,78.8,75.9,30.13,SE,131,14.0,14.0,91,0.00,,BKN035,0.00,VWS V14.01,2013-06-23 05:24:00,
2013-06-23 01:25:00,78.8,75.9,30.12,SE,128,10.0,14.0,91,0.00,,BKN035,0.00,VWS V14.01,2013-06-23 05:25:00,
2013-06-23 01:26:00,79.0,76.2,30.13,SE,142,10.0,11.0,91,0.00,,CLR,0.00,VWS V14.01,2013-06-23 05:26:00,
2013-06-23 01:27:00,79.0,76.2,30.13,SE,142,10.0,11.0,91,0.00,,BKN035,0.00,VWS V14.01,2013-06-23 05:27:00,
2013-06-23 01:28:00,79.0,76.2,30.13,SE,139,10.0,12.0,91,0.00,,BKN035,0.00,VWS V14.01,2013-06-23 05:28:00,
2013-06-23 01:29:00,79.0,76.2,30.12,SE,141,11.0,11.0,91,0.00,,BKN035,0.00,VWS V14.01,2013-06-23 05:29:00,
2013-06-23 01:30:00,79.0,76.2,30.13,SE,132,11.0,12.0,91,0.00,,BKN035,0.00,VWS V14.01,2013-06-23 05:30:00,
2013-06-23 01:31:00,79.0,76.2,30.12,SE,137,10.0,11.0,91,0.00,,CLR,0.00,VWS V14.01,2013-06-23 05:31:00,
2013-06-23 01:32:00,79.0,76.2,30.12,SE,140,11.0,11.0,91,0.00,,BKN035,0.00,VWS V14.01,2013-06-23 05:32:00,
2013-06-23 01:33:00,79.0,76.2,30.12,SE,125,10.0,11.0,91,0.00,,BKN035,0.00,VWS V14.01,2013-06-23 05:33:00,
2013-06-23 01:34:00,79.0,76.2,30.12,SE,128,10.0,10.0,91,0.00,,BKN035,0.00,VWS V14.01,2013-06-23 05:34:00,
2013-06-23 01:35:00,79.0,76.2,30.12,SE,127,13.0,13.0,91,0.00,,BKN035,0.00,VWS V14.01,2013-06-23 05:35:00,
2013-06-23 01:36:00,79.0,76.2,30.12,SE,130,11.0,12.0,91,0.00,,CLR,0.00,VWS V14.01,2013-06-23 05:36:00,
2013-06-23 01:37:00,79.0,76.2,30.12,SE,124,11.0,12.0,91,0.00,,BKN035,0.00,VWS V14.01,2013-06-23 05:37:00,
2013-06-23 01:38:00,79.0,76.2,30.12,ESE,121,10.0,11.0,91,0.00,,BKN035,0.00,VWS V14.01,2013-06-23 05:38:00,
2013-06-23 01:39:00,79.0,76.2,30.12,SE,130,13.0,13.0,91,0.00,,BKN035,0.00,VWS V14.01,2013-06-23 05:39:00,
2013-06-23 01:40:00,79.0,76.2,30.12,SE,126,14.0,14.0,91,0.00,,BKN035,0.00,VWS V14.01,2013-06-23 05:40:00,
2013-06-23 01:41:00,79.0,76.2,30.12,SE,128,11.0,12.0,91,0.00,,CLR,0.00,VWS V14.01,2013-06-23 05:41:00,
2013-06-23 01:42:00,79.0,76.2,30.12,SE,128,11.0,12.0,91,0.00,,BKN035,0.00,VWS V14.01,2013-06-23 05:42:00,
2013-06-23 01:43:00,79.0,76.2,30.12,SE,146,12.0,12.0,91,0.00,,BKN035,0.00,VWS V14.01,2013-06-23 05:43:00,
2013-06-23 01:44:00,79.0,76.2,30.12,SE,131,11.0,12.0,91,0.00,,BKN035,0.00,VWS V14.01,2013-06-23 05:44:00,
2013-06-23 01:45:00,79.0,76.5,30.12,SE,144,12.0,13.0,92,0.00,,BKN035,0.00,VWS V14.01,2013-06-23 05:45:00,
2013-06-23 01:46:00,79.0,76.5,30.12,SE,126,10.0,12.0,92,0.00,,CLR,0.00,VWS V14.01,2013-06-23 05:46:00,
2013-06-23 01:47:00,79.0,76.5,30.12,SE,126,10.0,12.0,92,0.00,,BKN035,0.00,VWS V14.01,2013-06-23 05:47:00,
2013-06-23 01:48:00,79.0,76.5,30.12,SE,127,11.0,11.0,92,0.00,,BKN035,0.00,VWS V14.01,2013-06-23 05:48:00,
2013-06-23 01:49:00,79.0,76.5,30.12,ESE,120,11.0,11.0,92,0.00,,BKN035,0.00,VWS V14.01,2013-06-23 05:49:00,
2013-06-23 01:50:00,79.0,76.5,30.12,ESE,120,10.0,12.0,92,0.00,,BKN035,0.00,VWS V14.01,2013-06-23 05:50:00,
2013-06-23 01:51:00,79.0,76.5,30.12,SE,128,14.0,14.0,92,0.00,,CLR,0.00,VWS V14.01,2013-06-23 05:51:00,
2013-06-23 01:52:00,79.0,76.5,30.12,SE,128,14.0,14.0,92,0.00,,BKN035,0.00,VWS V14.01,2013-06-23 05:52:00,
2013-06-23 01:53:00,79.0,76.2,30.12,SE,132,11.0,14.0,91,0.00,,BKN035,0.00,VWS V14.01,2013-06-23 05:53:00,
2013-06-23 01:54:00,79.0,76.5,30.12,ESE,119,12.0,13.0,92,0.00,,BKN035,0.00,VWS V14.01,2013-06-23 05:54:00,
2013-06-23 01:55:00,79.0,76.5,30.12,SE,125,12.0,13.0,92,0.00,,BKN035,0.00,VWS V14.01,2013-06-23 05:55:00,
2013-06-23 01:56:00,78.8,75.9,30.12,SE,127,14.0,14.0,91,0.00,,CLR,0.00,VWS V14.01,2013-06-23 05:56:00,
2013-06-23 01:57:00,78.8,75.9,30.12,SE,128,13.0,14.0,91,0.00,,BKN035,0.00,VWS V14.01,2013-06-23 05:57:00,
2013-06-23 01:58:00,79.0,76.5,30.12,SE,124,13.0,14.0,92,0.00,,BKN035,0.00,VWS V14.01,2013-06-23 05:58:00,
2013-06-23 01:59:00,79.0,76.2,30.12,ESE,121,13.0,14.0,91,0.00,,BKN035,0.00,VWS V14.01,2013-06-23 05:59:00,
2013-06-23 02:00:00,79.0,76.5,30.11,SE,126,13.0,13.0,92,0.00,,BKN035,0.00,VWS V14.01,2013-06-23 06:00:00,
2013-06-23 02:01:00,79.0,76.2,30.11,SE,126,11.0,12.0,91,0.00,,CLR,0.00,VWS V14.01,2013-06-23 06:01:00,
2013-06-23 02:02:00,79.0,76.2,30.11,ESE,116,12.0,12.0,91,0.00,,BKN035,0.00,VWS V14.01,2013-06-23 06:02:00,
2013-06-23 02:03:00,79.0,76.2,30.11,SE,130,13.0,13.0,91,0.00,,BKN035,0.00,VWS V14.01,2013-06-23 06:03:00,
2013-06-23 02:04:00,79.0,76.2,30.11,SE,126,11.0,13.0,91,0.00,,BKN035,0.00,VWS V14.01,2013-06-23 06:04:00,
2013-06-23 02:05:00,79.0,76.5,30.11,ESE,118,11.0,12.0,92,0.00,,BKN035,0.00,VWS V14.01,2013-06-23 06:05:00,
2013-06-23 02:06:00,79.0,76.5,30.11,ESE,123,12.0,12.0,92,0.00,,CLR,0.00,VWS V14.01,2013-06-23 06:06:00,
2013-06-23 02:07:00,79.0,76.5,30.11,ESE,116,10.0,11.0,92,0.00,,BKN035,0.00,VWS V14.01,2013-06-23 06:07:00,
2013-06-23 02:08:00,79.0,76.5,30.11,ESE,119,10.0,12.0,92,0.00,,BKN035,0.00,VWS V14.01,2013-06-23 06:08:00,
2013-06-23 02:09:00,79.0,76.2,30.11,ESE,110,11.0,12.0,91,0.00,,BKN035,0.00,VWS V14.01,2013-06-23 06:09:00,
2013-06-23 02:10:00,79.0,76.5,30.11,SE,128,11.0,11.0,92,0.00,,BKN035,0.00,VWS V14.01,2013-06-23 06:10:00,
2013-06-23 02:11:00,79.0,77.1,30.11,SE,138,10.0,11.0,94,0.00,,CLR,0.00,VWS V14.01,2013-06-23 06:11:00,
2013-06-23 02:12:00,79.0,77.1,30.11,ESE,119,11.0,11.0,94,0.00,,BKN035,0.00,VWS V14.01,2013-06-23 06:12:00,
2013-06-23 02:13:00,79.0,76.5,30.11,SE,129,11.0,12.0,92,0.00,,BKN035,0.00,VWS V14.01,2013-06-23 06:13:00,
2013-06-23 02:14:00,78.8,75.9,30.11,SE,138,12.0,12.0,91,0.00,,BKN035,0.00,VWS V14.01,2013-06-23 06:14:00,
2013-06-23 02:15:00,78.8,75.9,30.11,SE,139,11.0,12.0,91,0.00,,BKN035,0.00,VWS V14.01,2013-06-23 06:15:00,
2013-06-23 02:16:00,78.8,76.3,30.11,ESE,123,12.0,12.0,92,0.00,,CLR,0.00,VWS V14.01,2013-06-23 06:16:00,
2013-06-23 02:17:00,78.8,76.3,30.11,SE,126,9.0,10.0,92,0.00,,BKN035,0.00,VWS V14.01,2013-06-23 06:17:00,
2013-06-23 02:18:00,78.8,75.9,30.11,SE,132,12.0,12.0,91,0.00,,BKN035,0.00,VWS V14.01,2013-06-23 06:18:00,
2013-06-23 02:19:00,78.8,75.9,30.11,SE,146,11.0,12.0,91,0.00,,BKN035,0.00,VWS V14.01,2013-06-23 06:19:00,
2013-06-23 02:20:00,78.8,75.9,30.11,SE,132,11.0,12.0,91,0.00,,BKN035,0.00,VWS V14.01,2013-06-23 06:20:00,
2013-06-23 02:21:00,78.8,75.6,30.11,SE,139,13.0,13.0,90,0.00,,CLR,0.00,VWS V14.01,2013-06-23 06:21:00,
2013-06-23 02:22:00,78.8,75.6,30.11,SE,132,11.0,13.0,90,0.00,,BKN035,0.00,VWS V14.01,2013-06-23 06:22:00,
2013-06-23 02:23:00,78.8,75.6,30.11,SE,137,13.0,13.0,90,0.00,,BKN035,0.00,VWS V14.01,2013-06-23 06:23:00,
2013-06-23 02:24:00,78.8,75.6,30.11,SE,132,11.0,13.0,90,0.00,,BKN035,0.00,VWS V14.01,2013-06-23 06:24:00,
2013-06-23 02:25:00,78.8,75.6,30.11,SE,127,12.0,12.0,90,0.00,,BKN035,0.00,VWS V14.01,2013-06-23 06:25:00,
2013-06-23 02:26:00,79.0,75.8,30.11,SE,134,11.0,11.0,90,0.00,,CLR,0.00,VWS V14.01,2013-06-23 06:26:00,
2013-06-23 02:27:00,78.8,75.6,30.11,SE,128,11.0,11.0,90,0.00,,BKN035,0.00,VWS V14.01,2013-06-23 06:27:00,
2013-06-23 02:28:00,79.0,76.2,30.11,SE,124,11.0,11.0,91,0.00,,BKN035,0.00,VWS V14.01,2013-06-23 06:28:00,
2013-06-23 02:29:00,79.0,75.8,30.11,SE,127,7.0,11.0,90,0.00,,BKN035,0.00,VWS V14.01,2013-06-23 06:29:00,
2013-06-23 02:30:00,79.0,76.2,30.11,SE,127,8.0,10.0,91,0.00,,BKN035,0.00,VWS V14.01,2013-06-23 06:30:00,
2013-06-23 02:31:00,79.0,75.8,30.11,SE,134,10.0,10.0,90,0.00,,CLR,0.00,VWS V14.01,2013-06-23 06:31:00,
2013-06-23 02:32:00,79.0,75.8,30.11,SE,125,10.0,11.0,90,0.00,,BKN035,0.00,VWS V14.01,2013-06-23 06:32:00,
2013-06-23 02:33:00,79.0,75.8,30.11,ESE,123,10.0,11.0,90,0.00,,BKN035,0.00,VWS V14.01,2013-06-23 06:33:00,
2013-06-23 02:34:00,79.0,75.8,30.11,ESE,119,9.0,10.0,90,0.00,,BKN035,0.00,VWS V14.01,2013-06-23 06:34:00,
2013-06-23 02:35:00,79.0,75.8,30.11,ESE,123,9.0,10.0,90,0.00,,BKN035,0.00,VWS V14.01,2013-06-23 06:35:00,
2013-06-23 02:36:00,79.0,75.8,30.11,ESE,115,10.0,10.0,90,0.00,,CLR,0.00,VWS V14.01,2013-06-23 06:36:00,
2013-06-23 02:37:00,79.0,76.2,30.11,SE,132,9.0,10.0,91,0.00,,BKN035,0.00,VWS V14.01,2013-06-23 06:37:00,
2013-06-23 02:38:00,79.0,75.8,30.11,SE,130,10.0,10.0,90,0.00,,BKN035,0.00,VWS V14.01,2013-06-23 06:38:00,
2013-06-23 02:39:00,78.8,75.6,30.11,SE,126,10.0,10.0,90,0.00,,BKN035,0.00,VWS V14.01,2013-06-23 06:39:00,
2013-06-23 02:40:00,78.8,75.6,30.11,ESE,115,9.0,10.0,90,0.00,,BKN035,0.00,VWS V14.01,2013-06-23 06:40:00,
2013-06-23 02:41:00,79.0,75.8,30.11,SE,126,7.0,7.0,90,0.00,,CLR,0.00,VWS V14.01,2013-06-23 06:41:00,
2013-06-23 02:42:00,79.0,75.8,30.11,SE,126,7.0,10.0,90,0.00,,BKN035,0.00,VWS V14.01,2013-06-23 06:42:00,
2013-06-23 02:43:00,79.0,75.8,30.11,SE,128,10.0,10.0,90,0.00,,BKN035,0.00,VWS V14.01,2013-06-23 06:43:00,
2013-06-23 02:44:00,79.0,76.2,30.11,SE,135,9.0,10.0,91,0.00,,BKN035,0.00,VWS V14.01,2013-06-23 06:44:00,
2013-06-23 02:45:00,79.0,75.8,30.11,SSE,161,9.0,9.0,90,0.00,,BKN035,0.00,VWS V14.01,2013-06-23 06:45:00,
2013-06-23 02:46:00,79.0,75.8,30.11,ESE,113,9.0,9.0,90,0.00,,CLR,0.00,VWS V14.01,2013-06-23 06:46:00,
2013-06-23 02:47:00,79.0,76.2,30.11,SE,125,8.0,10.0,91,0.00,,BKN035,0.00,VWS V14.01,2013-06-23 06:47:00,
2013-06-23 02:48:00,79.0,75.8,30.11,SE,134,11.0,11.0,90,0.00,,BKN035,0.00,VWS V14.01,2013-06-23 06:48:00,
2013-06-23 02:49:00,78.8,75.6,30.11,SE,126,10.0,11.0,90,0.00,,BKN035,0.00,VWS V14.01,2013-06-23 06:49:00,
2013-06-23 02:50:00,78.8,75.6,30.11,ESE,123,6.0,11.0,90,0.00,,BKN035,0.00,VWS V14.01,2013-06-23 06:50:00,
2013-06-23 02:51:00,79.0,75.8,30.11,SE,132,10.0,11.0,90,0.00,,CLR,0.00,VWS V14.01,2013-06-23 06:51:00,
2013-06-23 02:52:00,79.0,75.8,30.11,SE,128,11.0,11.0,90,0.00,,BKN035,0.00,VWS V14.01,2013-06-23 06:52:00,
2013-06-23 02:53:00,79.0,75.8,30.11,SE,139,10.0,11.0,90,0.00,,BKN035,0.00,VWS V14.01,2013-06-23 06:53:00,
2013-06-23 02:54:00,79.0,75.8,30.11,SE,141,10.0,10.0,90,0.00,,BKN035,0.00,VWS V14.01,2013-06-23 06:54:00,
2013-06-23 02:55:00,79.0,75.8,30.11,SE,129,10.0,10.0,90,0.00,,BKN035,0.00,VWS V14.01,2013-06-23 06:55:00,
2013-06-23 02:56:00,79.0,75.8,30.11,SE,138,9.0,11.0,90,0.00,,CLR,0.00,VWS V14.01,2013-06-23 06:56:00,
2013-06-23 02:57:00,79.0,75.8,30.11,SE,138,9.0,11.0,90,0.00,,BKN035,0.00,VWS V14.01,2013-06-23 06:57:00,
2013-06-23 02:58:00,79.0,75.8,30.11,SE,142,9.0,9.0,90,0.00,,BKN035,0.00,VWS V14.01,2013-06-23 06:58:00,
2013-06-23 02:59:00,79.0,75.8,30.11,SE,133,9.0,10.0,90,0.00,,BKN035,0.00,VWS V14.01,2013-06-23 06:59:00,
2013-06-23 03:00:00,79.0,75.8,30.11,SE,130,9.0,9.0,90,0.00,,BKN035,0.00,VWS V14.01,2013-06-23 07:00:00,
2013-06-23 03:01:00,79.0,75.8,30.11,SE,127,10.0,10.0,90,0.00,,CLR,0.00,VWS V14.01,2013-06-23 07:01:00,
2013-06-23 03:02:00,79.0,75.8,30.11,SE,127,9.0,9.0,90,0.00,,BKN035,0.00,VWS V14.01,2013-06-23 07:02:00,
2013-06-23 03:03:00,79.0,76.2,30.11,SE,126,10.0,10.0,91,0.00,,BKN035,0.00,VWS V14.01,2013-06-23 07:03:00,
2013-06-23 03:04:00,79.0,75.8,30.11,SE,138,7.0,10.0,90,0.00,,BKN035,0.00,VWS V14.01,2013-06-23 07:04:00,
2013-06-23 03:05:00,79.0,75.8,30.10,SE,134,9.0,10.0,90,0.00,,BKN035,0.00,VWS V14.01,2013-06-23 07:05:00,
2013-06-23 03:06:00,79.0,74.5,30.11,SE,140,7.0,8.0,86,0.00,,CLR,0.00,VWS V14.01,2013-06-23 07:06:00,
2013-06-23 03:07:00,79.0,74.5,30.11,SE,128,8.0,9.0,86,0.00,,BKN035,0.00,VWS V14.01,2013-06-23 07:07:00,
2013-06-23 03:08:00,79.0,76.2,30.11,SE,136,7.0,8.0,91,0.00,,BKN035,0.00,VWS V14.01,2013-06-23 07:08:00,
2013-06-23 03:09:00,79.0,75.8,30.11,SE,130,7.0,7.0,90,0.00,,BKN035,0.00,VWS V14.01,2013-06-23 07:09:00,
2013-06-23 03:10:00,79.0,76.2,30.11,SE,128,6.0,7.0,91,0.00,,BKN035,0.00,VWS V14.01,2013-06-23 07:10:00,
2013-06-23 03:11:00,79.0,76.2,30.11,SE,142,6.0,7.0,91,0.00,,CLR,0.00,VWS V14.01,2013-06-23 07:11:00,
2013-06-23 03:12:00,79.0,76.2,30.11,SE,137,7.0,7.0,91,0.00,,BKN035,0.00,VWS V14.01,2013-06-23 07:12:00,
2013-06-23 03:13:00,79.0,76.2,30.11,SE,138,5.0,7.0,91,0.00,,BKN035,0.00,VWS V14.01,2013-06-23 07:13:00,
2013-06-23 03:14:00,79.0,76.2,30.10,SE,131,6.0,6.0,91,0.00,,BKN035,0.00,VWS V14.01,2013-06-23 07:14:00,
2013-06-23 03:15:00,79.0,76.2,30.11,SE,134,7.0,7.0,91,0.00,,BKN035,0.00,VWS V14.01,2013-06-23 07:15:00,
2013-06-23 03:16:00,78.8,75.9,30.11,SE,128,6.0,6.0,91,0.00,,CLR,0.00,VWS V14.01,2013-06-23 07:16:00,
2013-06-23 03:17:00,79.0,76.2,30.10,SE,129,5.0,7.0,91,0.00,,BKN035,0.00,VWS V14.01,2013-06-23 07:17:00,
2013-06-23 03:18:00,79.0,76.2,30.11,SE,132,5.0,6.0,91,0.00,,BKN035,0.00,VWS V14.01,2013-06-23 07:18:00,
2013-06-23 03:19:00,79.0,76.2,30.11,SE,128,6.0,6.0,91,0.00,,BKN035,0.00,VWS V14.01,2013-06-23 07:19:00,
2013-06-23 03:20:00,79.0,76.2,30.11,SE,127,4.0,6.0,91,0.00,,BKN035,0.00,VWS V14.01,2013-06-23 07:20:00,
2013-06-23 03:21:00,78.8,75.9,30.11,ESE,119,6.0,6.0,91,0.00,,CLR,0.00,VWS V14.01,2013-06-23 07:21:00,
2013-06-23 03:22:00,78.8,75.9,30.11,SE,132,6.0,6.0,91,0.00,,BKN035,0.00,VWS V14.01,2013-06-23 07:22:00,
2013-06-23 03:23:00,78.8,75.9,30.11,ESE,119,5.0,6.0,91,0.00,,BKN035,0.00,VWS V14.01,2013-06-23 07:23:00,
2013-06-23 03:24:00,78.8,75.9,30.11,SSE,161,4.0,6.0,91,0.00,,BKN035,0.00,VWS V14.01,2013-06-23 07:24:00,
2013-06-23 03:25:00,78.8,75.9,30.11,SE,136,5.0,6.0,91,0.00,,BKN035,0.00,VWS V14.01,2013-06-23 07:25:00,
2013-06-23 03:26:00,78.8,75.9,30.11,ESE,119,6.0,6.0,91,0.00,,CLR,0.00,VWS V14.01,2013-06-23 07:26:00,
2013-06-23 03:27:00,78.8,75.9,30.11,SE,126,5.0,6.0,91,0.00,,BKN035,0.00,VWS V14.01,2013-06-23 07:27:00,
2013-06-23 03:28:00,78.8,75.9,30.11,ESE,119,5.0,6.0,91,0.00,,BKN035,0.00,VWS V14.01,2013-06-23 07:28:00,
2013-06-23 03:29:00,78.8,75.9,30.11,SE,130,4.0,6.0,91,0.00,,BKN035,0.00,VWS V14.01,2013-06-23 07:29:00,
2013-06-23 03:30:00,78.8,75.9,30.11,SE,129,4.0,6.0,91,0.00,,BKN035,0.00,VWS V14.01,2013-06-23 07:30:00,
2013-06-23 03:31:00,78.8,75.9,30.11,ESE,120,5.0,5.0,91,0.00,,CLR,0.00,VWS V14.01,2013-06-23 07:31:00,
2013-06-23 03:32:00,78.8,75.9,30.11,SE,127,5.0,6.0,91,0.00,,BKN035,0.00,VWS V14.01,2013-06-23 07:32:00,
2013-06-23 03:33:00,78.8,75.9,30.11,ESE,119,5.0,6.0,91,0.00,,BKN035,0.00,VWS V14.01,2013-06-23 07:33:00,
2013-06-23 03:34:00,78.8,75.9,30.11,ESE,119,6.0,6.0,91,0.00,,BKN035,0.00,VWS V14.01,2013-06-23 07:34:00,
2013-06-23 03:35:00,78.8,75.9,30.11,ESE,103,5.0,6.0,91,0.00,,BKN035,0.00,VWS V14.01,2013-06-23 07:35:00,
2013-06-23 03:36:00,78.8,75.9,30.11,ESE,114,6.0,6.0,91,0.00,,CLR,0.00,VWS V14.01,2013-06-23 07:36:00,
2013-06-23 03:37:00,78.8,75.9,30.11,ESE,114,6.0,6.0,91,0.00,,BKN035,0.00,VWS V14.01,2013-06-23 07:37:00,
2013-06-23 03:38:00,78.6,75.8,30.10,ESE,114,6.0,6.0,91,0.00,,BKN035,0.00,VWS V14.01,2013-06-23 07:38:00,
2013-06-23 03:39:00,78.6,75.8,30.10,SE,129,6.0,7.0,91,0.00,,BKN035,0.00,VWS V14.01,2013-06-23 07:39:00,
2013-06-23 03:40:00,78.8,75.9,30.10,SE,128,6.0,6.0,91,0.00,,BKN035,0.00,VWS V14.01,2013-06-23 07:40:00,
2013-06-23 03:41:00,78.8,75.9,30.11,SE,127,5.0,7.0,91,0.00,,CLR,0.00,VWS V14.01,2013-06-23 07:41:00,
2013-06-23 03:42:00,78.8,75.9,30.11,SE,127,5.0,7.0,91,0.00,,BKN035,0.00,VWS V14.01,2013-06-23 07:42:00,
2013-06-23 03:43:00,78.8,75.9,30.10,SE,126,5.0,6.0,91,0.00,,BKN035,0.00,VWS V14.01,2013-06-23 07:43:00,
2013-06-23 03:44:00,78.8,75.9,30.10,ESE,123,7.0,7.0,91,0.00,,BKN035,0.00,VWS V14.01,2013-06-23 07:44:00,
2013-06-23 03:45:00,78.8,75.9,30.10,ESE,123,5.0,7.0,91,0.00,,BKN035,0.00,VWS V14.01,2013-06-23 07:45:00,
2013-06-23 03:46:00,78.8,75.9,30.10,ESE,123,5.0,5.0,91,0.00,,CLR,0.00,VWS V14.01,2013-06-23 07:46:00,
2013-06-23 03:47:00,78.8,75.9,30.10,SE,124,5.0,6.0,91,0.00,,BKN035,0.00,VWS V14.01,2013-06-23 07:47:00,
2013-06-23 03:48:00,78.8,75.9,30.10,ESE,123,6.0,6.0,91,0.00,,BKN035,0.00,VWS V14.01,2013-06-23 07:48:00,
2013-06-23 03:49:00,78.8,75.9,30.10,ESE,121,5.0,7.0,91,0.00,,BKN035,0.00,VWS V14.01,2013-06-23 07:49:00,
2013-06-23 03:50:00,78.8,75.9,30.10,ESE,119,6.0,6.0,91,0.00,,BKN035,0.00,VWS V14.01,2013-06-23 07:50:00,
2013-06-23 03:51:00,78.8,75.9,30.10,ESE,122,5.0,5.0,91,0.00,,CLR,0.00,VWS V14.01,2013-06-23 07:51:00,
2013-06-23 03:52:00,78.8,75.9,30.10,ESE,120,5.0,5.0,91,0.00,,BKN035,0.00,VWS V14.01,2013-06-23 07:52:00,
2013-06-23 03:53:00,78.8,75.9,30.10,ESE,113,6.0,6.0,91,0.00,,BKN035,0.00,VWS V14.01,2013-06-23 07:53:00,
2013-06-23 03:54:00,78.8,75.9,30.10,ESE,118,5.0,6.0,91,0.00,,BKN035,0.00,VWS V14.01,2013-06-23 07:54:00,
2013-06-23 03:55:00,78.8,75.9,30.10,ESE,117,5.0,5.0,91,0.00,,BKN035,0.00,VWS V14.01,2013-06-23 07:55:00,
2013-06-23 03:56:00,78.8,75.9,30.10,ESE,117,5.0,5.0,91,0.00,,CLR,0.00,VWS V14.01,2013-06-23 07:56:00,
2013-06-23 03:57:00,78.8,75.9,30.10,ESE,117,5.0,5.0,91,0.00,,BKN035,0.00,VWS V14.01,2013-06-23 07:57:00,
2013-06-23 03:58:00,78.8,75.9,30.10,ESE,109,5.0,5.0,91,0.00,,BKN035,0.00,VWS V14.01,2013-06-23 07:58:00,
2013-06-23 03:59:00,78.8,75.9,30.10,ESE,109,3.0,5.0,91,0.00,,BKN035,0.00,VWS V14.01,2013-06-23 07:59:00,
2013-06-23 04:00:00,78.8,75.9,30.10,ESE,109,4.0,4.0,91,0.00,,BKN035,0.00,VWS V14.01,2013-06-23 08:00:00,
2013-06-23 04:01:00,78.8,75.9,30.10,East,100,3.0,5.0,91,0.00,,CLR,0.00,VWS V14.01,2013-06-23 08:01:00,
2013-06-23 04:02:00,78.8,75.9,30.10,East,100,3.0,5.0,91,0.00,,BKN035,0.00,VWS V14.01,2013-06-23 08:02:00,
2013-06-23 04:03:00,78.6,75.8,30.10,ESE,107,5.0,5.0,91,0.00,,BKN035,0.00,VWS V14.01,2013-06-23 08:03:00,
2013-06-23 04:04:00,78.6,75.8,30.10,ESE,111,6.0,6.0,91,0.00,,BKN035,0.00,VWS V14.01,2013-06-23 08:04:00,
2013-06-23 04:05:00,78.6,76.1,30.10,ESE,113,3.0,6.0,92,0.00,,BKN035,0.00,VWS V14.01,2013-06-23 08:05:00,
2013-06-23 04:06:00,78.6,76.1,30.10,ESE,113,3.0,4.0,92,0.00,,CLR,0.00,VWS V14.01,2013-06-23 08:06:00,
2013-06-23 04:07:00,78.6,76.1,30.10,ESE,113,3.0,4.0,92,0.00,,BKN035,0.00,VWS V14.01,2013-06-23 08:07:00,
2013-06-23 04:08:00,78.6,76.1,30.10,ESE,113,2.0,3.0,92,0.00,,BKN035,0.00,VWS V14.01,2013-06-23 08:08:00,
2013-06-23 04:09:00,78.6,76.1,30.10,ESE,113,4.0,4.0,92,0.00,,BKN035,0.00,VWS V14.01,2013-06-23 08:09:00,
2013-06-23 04:10:00,78.6,76.1,30.10,ESE,113,2.0,4.0,92,0.00,,BKN035,0.00,VWS V14.01,2013-06-23 08:10:00,
2013-06-23 04:11:00,78.6,76.1,30.11,ESE,108,4.0,4.0,92,0.00,,CLR,0.00,VWS V14.01,2013-06-23 08:11:00,
2013-06-23 04:12:00,78.6,76.1,30.10,ESE,108,3.0,4.0,92,0.00,,BKN035,0.00,VWS V14.01,2013-06-23 08:12:00,
2013-06-23 04:13:00,78.6,76.1,30.11,ESE,108,3.0,4.0,92,0.00,,BKN035,0.00,VWS V14.01,2013-06-23 08:13:00,
2013-06-23 04:14:00,78.6,76.1,30.11,ESE,103,4.0,5.0,92,0.00,,BKN035,0.00,VWS V14.01,2013-06-23 08:14:00,
2013-06-23 04:15:00,78.5,76.0,30.11,ESE,107,4.0,5.0,92,0.00,,BKN035,0.00,VWS V14.01,2013-06-23 08:15:00,
2013-06-23 04:16:00,78.5,76.0,30.11,ESE,107,4.0,4.0,92,0.00,,CLR,0.00,VWS V14.01,2013-06-23 08:16:00,
2013-06-23 04:17:00,78.6,76.1,30.11,ESE,107,4.0,5.0,92,0.00,,BKN035,0.00,VWS V14.01,2013-06-23 08:17:00,
2013-06-23 04:18:00,78.5,76.0,30.11,ESE,107,3.0,4.0,92,0.00,,BKN035,0.00,VWS V14.01,2013-06-23 08:18:00,
2013-06-23 04:19:00,78.5,76.0,30.11,ESE,107,4.0,5.0,92,0.00,,BKN035,0.00,VWS V14.01,2013-06-23 08:19:00,
2013-06-23 04:20:00,78.5,76.0,30.11,ESE,109,4.0,5.0,92,0.00,,BKN035,0.00,VWS V14.01,2013-06-23 08:20:00,
2013-06-23 04:21:00,78.5,76.0,30.11,ESE,102,4.0,4.0,92,0.00,,CLR,0.00,VWS V14.01,2013-06-23 08:21:00,
2013-06-23 04:22:00,78.5,76.0,30.11,ESE,102,3.0,3.0,92,0.00,,BKN035,0.00,VWS V14.01,2013-06-23 08:22:00,
2013-06-23 04:23:00,78.5,76.0,30.11,ESE,102,4.0,4.0,92,0.00,,BKN035,0.00,VWS V14.01,2013-06-23 08:23:00,
2013-06-23 04:24:00,78.5,76.0,30.11,ESE,103,3.0,5.0,92,0.00,,BKN035,0.00,VWS V14.01,2013-06-23 08:24:00,
2013-06-23 04:25:00,78.5,76.3,30.11,ESE,103,3.0,3.0,93,0.00,,BKN035,0.00,VWS V14.01,2013-06-23 08:25:00,
2013-06-23 04:26:00,78.5,76.0,30.11,ESE,104,4.0,6.0,92,0.00,,CLR,0.00,VWS V14.01,2013-06-23 08:26:00,
2013-06-23 04:27:00,78.5,76.0,30.11,ESE,104,4.0,6.0,92,0.00,,BKN035,0.00,VWS V14.01,2013-06-23 08:27:00,
2013-06-23 04:28:00,78.5,76.0,30.11,ESE,104,3.0,4.0,92,0.00,,BKN035,0.00,VWS V14.01,2013-06-23 08:28:00,
2013-06-23 04:29:00,78.5,76.0,30.11,ESE,104,3.0,3.0,92,0.00,,BKN035,0.00,VWS V14.01,2013-06-23 08:29:00,
2013-06-23 04:30:00,78.5,76.3,30.11,ESE,104,3.0,4.0,93,0.00,,BKN035,0.00,VWS V14.01,2013-06-23 08:30:00,
2013-06-23 04:31:00,78.5,76.3,30.11,ESE,104,5.0,5.0,93,0.00,,CLR,0.00,VWS V14.01,2013-06-23 08:31:00,
2013-06-23 04:32:00,78.5,76.3,30.11,ESE,104,4.0,4.0,93,0.00,,BKN035,0.00,VWS V14.01,2013-06-23 08:32:00,
2013-06-23 04:33:00,78.5,76.3,30.11,ESE,105,4.0,5.0,93,0.00,,BKN035,0.00,VWS V14.01,2013-06-23 08:33:00,
2013-06-23 04:34:00,78.5,76.0,30.11,ESE,105,4.0,4.0,92,0.00,,BKN035,0.00,VWS V14.01,2013-06-23 08:34:00,
2013-06-23 04:35:00,78.5,76.0,30.11,ESE,105,4.0,4.0,92,0.00,,BKN035,0.00,VWS V14.01,2013-06-23 08:35:00,
2013-06-23 04:36:00,78.5,76.0,30.11,ESE,105,4.0,4.0,92,0.00,,CLR,0.00,VWS V14.01,2013-06-23 08:36:00,
2013-06-23 04:37:00,78.5,76.0,30.11,ESE,105,4.0,4.0,92,0.00,,BKN035,0.00,VWS V14.01,2013-06-23 08:37:00,
2013-06-23 04:38:00,78.5,76.3,30.11,ESE,109,4.0,5.0,93,0.00,,BKN035,0.00,VWS V14.01,2013-06-23 08:38:00,
2013-06-23 04:39:00,78.5,76.3,30.11,ESE,109,2.0,4.0,93,0.00,,BKN035,0.00,VWS V14.01,2013-06-23 08:39:00,
2013-06-23 04:40:00,78.5,76.3,30.11,ESE,108,2.0,3.0,93,0.00,,BKN035,0.00,VWS V14.01,2013-06-23 08:40:00,
2013-06-23 04:41:00,78.5,76.3,30.11,East,99,4.0,4.0,93,0.00,,CLR,0.00,VWS V14.01,2013-06-23 08:41:00,
2013-06-23 04:42:00,78.5,76.3,30.11,East,99,4.0,4.0,93,0.00,,BKN035,0.00,VWS V14.01,2013-06-23 08:42:00,
2013-06-23 04:43:00,78.5,76.3,30.11,ESE,103,6.0,6.0,93,0.00,,BKN035,0.00,VWS V14.01,2013-06-23 08:43:00,
2013-06-23 04:44:00,78.5,76.3,30.11,ESE,103,4.0,6.0,93,0.00,,BKN035,0.00,VWS V14.01,2013-06-23 08:44:00,
2013-06-23 04:45:00,78.5,76.3,30.11,ESE,103,5.0,5.0,93,0.00,,BKN035,0.00,VWS V14.01,2013-06-23 08:45:00,
2013-06-23 04:46:00,78.5,76.3,30.11,ESE,109,5.0,5.0,93,0.00,,CLR,0.00,VWS V14.01,2013-06-23 08:46:00,
2013-06-23 04:47:00,78.3,76.1,30.11,ESE,109,5.0,5.0,93,0.00,,BKN035,0.00,VWS V14.01,2013-06-23 08:47:00,
2013-06-23 04:48:00,78.5,76.3,30.11,ESE,109,4.0,5.0,93,0.00,,BKN035,0.00,VWS V14.01,2013-06-23 08:48:00,
2013-06-23 04:49:00,78.5,76.3,30.11,ESE,109,2.0,4.0,93,0.00,,BKN035,0.00,VWS V14.01,2013-06-23 08:49:00,
2013-06-23 04:50:00,78.5,76.3,30.11,ESE,109,3.0,4.0,93,0.00,,BKN035,0.00,VWS V14.01,2013-06-23 08:50:00,
2013-06-23 04:51:00,78.5,76.3,30.11,ESE,109,3.0,3.0,93,0.00,,CLR,0.00,VWS V14.01,2013-06-23 08:51:00,
2013-06-23 04:52:00,78.5,76.3,30.11,ESE,109,2.0,3.0,93,0.00,,BKN035,0.00,VWS V14.01,2013-06-23 08:52:00,
2013-06-23 04:53:00,78.5,76.3,30.11,ESE,109,3.0,3.0,93,0.00,,BKN035,0.00,VWS V14.01,2013-06-23 08:53:00,
2013-06-23 04:54:00,78.5,76.3,30.11,ESE,112,4.0,6.0,93,0.00,,BKN035,0.00,VWS V14.01,2013-06-23 08:54:00,
2013-06-23 04:55:00,78.5,76.3,30.11,ESE,112,3.0,4.0,93,0.00,,BKN035,0.00,VWS V14.01,2013-06-23 08:55:00,
2013-06-23 04:56:00,78.5,76.3,30.11,ESE,111,4.0,4.0,93,0.00,,CLR,0.00,VWS V14.01,2013-06-23 08:56:00,
2013-06-23 04:57:00,78.5,76.3,30.10,ESE,111,3.0,4.0,93,0.00,,BKN035,0.00,VWS V14.01,2013-06-23 08:57:00,
2013-06-23 04:58:00,78.5,76.3,30.11,ESE,111,2.0,4.0,93,0.00,,BKN035,0.00,VWS V14.01,2013-06-23 08:58:00,
2013-06-23 04:59:00,78.5,76.3,30.10,ESE,111,3.0,3.0,93,0.00,,BKN035,0.00,VWS V14.01,2013-06-23 08:59:00,
2013-06-23 05:00:00,78.5,76.3,30.11,ESE,111,3.0,4.0,93,0.00,,BKN035,0.00,VWS V14.01,2013-06-23 09:00:00,
2013-06-23 05:01:00,78.5,76.3,30.10,East,99,3.0,3.0,93,0.00,,CLR,0.00,VWS V14.01,2013-06-23 09:01:00,
2013-06-23 05:02:00,78.5,76.3,30.10,East,98,3.0,5.0,93,0.00,,BKN035,0.00,VWS V14.01,2013-06-23 09:02:00,
2013-06-23 05:03:00,78.3,76.1,30.10,ESE,102,4.0,5.0,93,0.00,,BKN035,0.00,VWS V14.01,2013-06-23 09:03:00,
2013-06-23 05:04:00,78.3,76.1,30.10,East,101,4.0,4.0,93,0.00,,BKN035,0.00,VWS V14.01,2013-06-23 09:04:00,
2013-06-23 05:05:00,78.3,76.1,30.10,East,101,3.0,5.0,93,0.00,,BKN035,0.00,VWS V14.01,2013-06-23 09:05:00,
2013-06-23 05:06:00,78.3,76.1,30.10,East,100,2.0,3.0,93,0.00,,CLR,0.00,VWS V14.01,2013-06-23 09:06:00,
2013-06-23 05:07:00,78.3,76.1,30.10,East,100,2.0,3.0,93,0.00,,BKN035,0.00,VWS V14.01,2013-06-23 09:07:00,
2013-06-23 05:08:00,78.3,76.1,30.10,East,100,5.0,5.0,93,0.00,,BKN035,0.00,VWS V14.01,2013-06-23 09:08:00,
2013-06-23 05:09:00,78.5,76.3,30.10,ESE,102,4.0,5.0,93,0.00,,BKN035,0.00,VWS V14.01,2013-06-23 09:09:00,
2013-06-23 05:10:00,78.5,76.3,30.10,ESE,102,3.0,4.0,93,0.00,,BKN035,0.00,VWS V14.01,2013-06-23 09:10:00,
2013-06-23 05:11:00,78.5,76.3,30.10,ESE,103,4.0,5.0,93,0.00,,CLR,0.00,VWS V14.01,2013-06-23 09:11:00,
2013-06-23 05:12:00,78.5,76.3,30.10,ESE,103,4.0,5.0,93,0.00,,BKN035,0.00,VWS V14.01,2013-06-23 09:12:00,
2013-06-23 05:13:00,78.3,76.1,30.10,ESE,103,5.0,6.0,93,0.00,,BKN035,0.00,VWS V14.01,2013-06-23 09:13:00,
2013-06-23 05:14:00,78.3,76.1,30.10,ESE,106,5.0,5.0,93,0.00,,BKN035,0.00,VWS V14.01,2013-06-23 09:14:00,
2013-06-23 05:15:00,78.3,76.1,30.11,ESE,105,6.0,6.0,93,0.00,,BKN035,0.00,VWS V14.01,2013-06-23 09:15:00,
2013-06-23 05:16:00,78.5,76.3,30.11,ESE,109,5.0,5.0,93,0.00,,CLR,0.00,VWS V14.01,2013-06-23 09:16:00,
2013-06-23 05:17:00,78.5,76.3,30.11,ESE,109,5.0,5.0,93,0.00,,BKN035,0.00,VWS V14.01,2013-06-23 09:17:00,
2013-06-23 05:18:00,78.5,76.6,30.11,ESE,104,6.0,6.0,94,0.00,,BKN035,0.00,VWS V14.01,2013-06-23 09:18:00,
2013-06-23 05:19:00,78.5,76.3,30.10,ESE,106,5.0,6.0,93,0.00,,BKN035,0.00,VWS V14.01,2013-06-23 09:19:00,
2013-06-23 05:20:00,78.5,76.6,30.11,ESE,103,4.0,5.0,94,0.00,,BKN035,0.00,VWS V14.01,2013-06-23 09:20:00,
2013-06-23 05:21:00,78.5,76.6,30.11,ESE,107,5.0,5.0,94,0.00,,CLR,0.00,VWS V14.01,2013-06-23 09:21:00,
2013-06-23 05:22:00,78.5,76.6,30.11,ESE,107,5.0,5.0,94,0.00,,BKN035,0.00,VWS V14.01,2013-06-23 09:22:00,
2013-06-23 05:23:00,78.5,76.6,30.11,ESE,107,5.0,5.0,94,0.00,,BKN035,0.00,VWS V14.01,2013-06-23 09:23:00,
2013-06-23 05:24:00,78.5,75.7,30.11,ESE,109,4.0,5.0,91,0.00,,BKN035,0.00,VWS V14.01,2013-06-23 09:24:00,
2013-06-23 05:25:00,78.5,76.6,30.11,ESE,104,4.0,4.0,94,0.00,,BKN035,0.00,VWS V14.01,2013-06-23 09:25:00,
2013-06-23 05:26:00,78.3,76.4,30.11,ESE,104,4.0,4.0,94,0.00,,CLR,0.00,VWS V14.01,2013-06-23 09:26:00,
2013-06-23 05:27:00,78.3,76.4,30.11,ESE,104,4.0,4.0,94,0.00,,BKN035,0.00,VWS V14.01,2013-06-23 09:27:00,
2013-06-23 05:28:00,78.3,76.4,30.11,ESE,104,4.0,4.0,94,0.00,,BKN035,0.00,VWS V14.01,2013-06-23 09:28:00,
2013-06-23 05:29:00,78.3,76.4,30.11,ESE,105,5.0,5.0,94,0.00,,BKN035,0.00,VWS V14.01,2013-06-23 09:29:00,
2013-06-23 05:30:00,78.5,76.6,30.11,ESE,105,4.0,5.0,94,0.00,,BKN035,0.00,VWS V14.01,2013-06-23 09:30:00,
2013-06-23 05:31:00,78.5,76.6,30.11,ESE,114,4.0,5.0,94,0.00,,CLR,0.00,VWS V14.01,2013-06-23 09:31:00,
2013-06-23 05:32:00,78.5,76.6,30.11,ESE,114,5.0,7.0,94,0.00,,BKN035,0.00,VWS V14.01,2013-06-23 09:32:00,
2013-06-23 05:33:00,78.5,76.6,30.11,ESE,102,4.0,5.0,94,0.00,,BKN035,0.00,VWS V14.01,2013-06-23 09:33:00,
2013-06-23 05:34:00,78.5,76.6,30.11,ESE,103,5.0,6.0,94,0.00,,BKN035,0.00,VWS V14.01,2013-06-23 09:34:00,
2013-06-23 05:35:00,78.5,76.6,30.11,ESE,108,6.0,6.0,94,0.00,,BKN035,0.00,VWS V14.01,2013-06-23 09:35:00,
2013-06-23 05:36:00,78.3,76.4,30.11,ESE,109,5.0,5.0,94,0.00,,CLR,0.00,VWS V14.01,2013-06-23 09:36:00,
2013-06-23 05:37:00,78.3,76.4,30.11,ESE,109,5.0,5.0,94,0.00,,BKN035,0.00,VWS V14.01,2013-06-23 09:37:00,
2013-06-23 05:38:00,78.3,76.4,30.11,ESE,109,5.0,5.0,94,0.00,,BKN035,0.00,VWS V14.01,2013-06-23 09:38:00,
2013-06-23 05:39:00,78.3,76.4,30.11,ESE,111,5.0,5.0,94,0.00,,BKN035,0.00,VWS V14.01,2013-06-23 09:39:00,
2013-06-23 05:40:00,78.3,76.4,30.11,ESE,114,5.0,7.0,94,0.00,,BKN035,0.00,VWS V14.01,2013-06-23 09:40:00,
2013-06-23 05:41:00,78.5,76.6,30.11,ESE,107,4.0,5.0,94,0.00,,CLR,0.00,VWS V14.01,2013-06-23 09:41:00,
2013-06-23 05:42:00,78.5,76.6,30.11,ESE,107,4.0,5.0,94,0.00,,BKN035,0.00,VWS V14.01,2013-06-23 09:42:00,
2013-06-23 05:43:00,78.5,76.6,30.11,ESE,103,5.0,5.0,94,0.00,,BKN035,0.00,VWS V14.01,2013-06-23 09:43:00,
2013-06-23 05:44:00,78.5,76.6,30.11,ESE,117,5.0,7.0,94,0.00,,BKN035,0.00,VWS V14.01,2013-06-23 09:44:00,
2013-06-23 05:45:00,78.3,76.4,30.11,ESE,119,5.0,6.0,94,0.00,,BKN035,0.00,VWS V14.01,2013-06-23 09:45:00,
2013-06-23 05:46:00,78.5,76.6,30.11,ESE,118,6.0,6.0,94,0.00,,CLR,0.00,VWS V14.01,2013-06-23 09:46:00,
2013-06-23 05:47:00,78.5,76.6,30.11,ESE,118,6.0,6.0,94,0.00,,BKN035,0.00,VWS V14.01,2013-06-23 09:47:00,
2013-06-23 05:48:00,78.5,76.6,30.11,ESE,117,5.0,6.0,94,0.00,,BKN035,0.00,VWS V14.01,2013-06-23 09:48:00,
2013-06-23 05:49:00,78.5,76.6,30.11,ESE,123,6.0,6.0,94,0.00,,BKN035,0.00,VWS V14.01,2013-06-23 09:49:00,
2013-06-23 05:50:00,78.5,76.6,30.11,ESE,119,6.0,6.0,94,0.00,,BKN035,0.00,VWS V14.01,2013-06-23 09:50:00,
2013-06-23 05:51:00,78.5,76.6,30.11,SE,128,5.0,5.0,94,0.00,,CLR,0.00,VWS V14.01,2013-06-23 09:51:00,
2013-06-23 05:52:00,78.5,76.6,30.11,SE,128,5.0,5.0,94,0.00,,BKN035,0.00,VWS V14.01,2013-06-23 09:52:00,
2013-06-23 05:53:00,78.5,76.6,30.11,ESE,104,5.0,5.0,94,0.00,,BKN035,0.00,VWS V14.01,2013-06-23 09:53:00,
2013-06-23 05:54:00,78.5,76.6,30.11,ESE,108,4.0,5.0,94,0.00,,BKN035,0.00,VWS V14.01,2013-06-23 09:54:00,
2013-06-23 05:55:00,78.5,76.6,30.11,ESE,108,5.0,5.0,94,0.00,,BKN035,0.00,VWS V14.01,2013-06-23 09:55:00,
2013-06-23 05:56:00,78.5,76.6,30.11,ESE,112,5.0,6.0,94,0.00,,CLR,0.00,VWS V14.01,2013-06-23 09:56:00,
2013-06-23 05:57:00,78.5,76.6,30.11,ESE,112,5.0,6.0,94,0.00,,BKN035,0.00,VWS V14.01,2013-06-23 09:57:00,
2013-06-23 05:58:00,78.5,76.6,30.11,ESE,112,4.0,5.0,94,0.00,,BKN035,0.00,VWS V14.01,2013-06-23 09:58:00,
2013-06-23 05:59:00,78.5,76.6,30.11,ESE,118,5.0,6.0,94,0.00,,BKN035,0.00,VWS V14.01,2013-06-23 09:59:00,
2013-06-23 06:00:00,78.5,76.6,30.11,ESE,115,5.0,5.0,94,0.00,,BKN035,0.00,VWS V14.01,2013-06-23 10:00:00,
2013-06-23 06:01:00,78.5,76.6,30.11,ESE,121,3.0,5.0,94,0.00,,CLR,0.00,VWS V14.01,2013-06-23 10:01:00,
2013-06-23 06:02:00,78.5,76.6,30.11,ESE,121,3.0,5.0,94,0.00,,BKN035,0.00,VWS V14.01,2013-06-23 10:02:00,
2013-06-23 06:03:00,78.5,76.6,30.11,ESE,110,4.0,5.0,94,0.00,,BKN035,0.00,VWS V14.01,2013-06-23 10:03:00,
2013-06-23 06:04:00,78.5,76.6,30.11,ESE,111,4.0,5.0,94,0.00,,BKN035,0.00,VWS V14.01,2013-06-23 10:04:00,
2013-06-23 06:05:00,78.5,76.6,30.11,ESE,109,5.0,5.0,94,0.00,,BKN035,0.00,VWS V14.01,2013-06-23 10:05:00,
2013-06-23 06:06:00,78.5,76.6,30.11,ESE,108,4.0,4.0,94,0.00,,CLR,0.00,VWS V14.01,2013-06-23 10:06:00,
2013-06-23 06:07:00,78.5,76.6,30.11,ESE,108,4.0,5.0,94,0.00,,BKN035,0.00,VWS V14.01,2013-06-23 10:07:00,
2013-06-23 06:08:00,78.6,76.7,30.11,ESE,108,4.0,5.0,94,0.00,,BKN035,0.00,VWS V14.01,2013-06-23 10:08:00,
2013-06-23 06:09:00,78.5,76.6,30.11,East,100,5.0,5.0,94,0.00,,BKN035,0.00,VWS V14.01,2013-06-23 10:09:00,
2013-06-23 06:10:00,78.5,76.6,30.11,ESE,109,4.0,5.0,94,0.00,,BKN035,0.00,VWS V14.01,2013-06-23 10:10:00,
2013-06-23 06:11:00,78.5,76.6,30.11,ESE,111,4.0,6.0,94,0.00,,CLR,0.00,VWS V14.01,2013-06-23 10:11:00,
2013-06-23 06:12:00,78.5,76.6,30.11,ESE,111,4.0,6.0,94,0.00,,BKN035,0.00,VWS V14.01,2013-06-23 10:12:00,
2013-06-23 06:13:00,78.5,76.6,30.11,ESE,111,4.0,5.0,94,0.00,,BKN035,0.00,VWS V14.01,2013-06-23 10:13:00,
2013-06-23 06:14:00,78.5,76.6,30.11,ESE,110,4.0,5.0,94,0.00,,BKN035,0.00,VWS V14.01,2013-06-23 10:14:00,
2013-06-23 06:15:00,78.5,76.6,30.11,ESE,109,4.0,4.0,94,0.00,,BKN035,0.00,VWS V14.01,2013-06-23 10:15:00,
2013-06-23 06:16:00,78.5,76.6,30.11,ESE,105,4.0,4.0,94,0.00,,CLR,0.00,VWS V14.01,2013-06-23 10:16:00,
2013-06-23 06:17:00,78.5,76.6,30.11,ESE,105,4.0,4.0,94,0.00,,BKN035,0.00,VWS V14.01,2013-06-23 10:17:00,
2013-06-23 06:18:00,78.5,76.6,30.11,ESE,105,3.0,5.0,94,0.00,,BKN035,0.00,VWS V14.01,2013-06-23 10:18:00,
2013-06-23 06:19:00,78.5,76.6,30.11,ESE,106,4.0,5.0,94,0.00,,BKN035,0.00,VWS V14.01,2013-06-23 10:19:00,
2013-06-23 06:20:00,78.5,76.6,30.11,ESE,107,4.0,5.0,94,0.00,,BKN035,0.00,VWS V14.01,2013-06-23 10:20:00,
2013-06-23 06:21:00,78.5,76.6,30.11,ESE,109,4.0,4.0,94,0.00,,CLR,0.00,VWS V14.01,2013-06-23 10:21:00,
2013-06-23 06:22:00,78.5,76.6,30.11,ESE,109,4.0,4.0,94,0.00,,BKN035,0.00,VWS V14.01,2013-06-23 10:22:00,
2013-06-23 06:23:00,78.5,76.6,30.11,ESE,109,4.0,4.0,94,0.00,,BKN035,0.00,VWS V14.01,2013-06-23 10:23:00,
2013-06-23 06:24:00,78.5,76.6,30.11,ESE,109,5.0,5.0,94,0.00,,BKN035,0.00,VWS V14.01,2013-06-23 10:24:00,
2013-06-23 06:25:00,78.3,76.4,30.11,ESE,122,4.0,6.0,94,0.00,,BKN035,0.00,VWS V14.01,2013-06-23 10:25:00,
2013-06-23 06:26:00,78.5,76.6,30.11,ESE,122,3.0,4.0,94,0.00,,CLR,0.00,VWS V14.01,2013-06-23 10:26:00,
2013-06-23 06:27:00,78.5,76.6,30.11,ESE,122,3.0,4.0,94,0.00,,BKN035,0.00,VWS V14.01,2013-06-23 10:27:00,
2013-06-23 06:28:00,78.5,76.6,30.12,ESE,122,3.0,4.0,94,0.00,,BKN035,0.00,VWS V14.01,2013-06-23 10:28:00,
2013-06-23 06:29:00,78.5,76.6,30.12,ESE,121,3.0,3.0,94,0.00,,BKN035,0.00,VWS V14.01,2013-06-23 10:29:00,
2013-06-23 06:30:00,78.5,76.6,30.12,ESE,121,2.0,3.0,94,0.00,,BKN035,0.00,VWS V14.01,2013-06-23 10:30:00,
2013-06-23 06:31:00,78.5,76.6,30.12,ESE,109,5.0,5.0,94,0.00,,CLR,0.00,VWS V14.01,2013-06-23 10:31:00,
2013-06-23 06:32:00,78.5,76.6,30.12,ESE,108,4.0,4.0,94,0.00,,BKN035,0.00,VWS V14.01,2013-06-23 10:32:00,
2013-06-23 06:33:00,78.5,76.6,30.12,ESE,109,3.0,5.0,94,0.00,,BKN035,0.00,VWS V14.01,2013-06-23 10:33:00,
2013-06-23 06:34:00,78.5,76.6,30.12,ESE,109,3.0,3.0,94,0.00,,BKN035,0.00,VWS V14.01,2013-06-23 10:34:00,
2013-06-23 06:35:00,78.5,76.6,30.12,ESE,109,4.0,5.0,94,0.00,,BKN035,0.00,VWS V14.01,2013-06-23 10:35:00,
2013-06-23 06:36:00,78.5,76.6,30.12,ESE,108,4.0,5.0,94,0.00,,,0.00,VWS V14.01,2013-06-23 10:36:00,
2013-06-23 06:37:00,78.5,76.6,30.12,ESE,108,4.0,5.0,94,0.00,,BKN035,0.00,VWS V14.01,2013-06-23 10:37:00,
2013-06-23 06:38:00,78.5,76.6,30.12,ESE,107,4.0,4.0,94,0.00,,BKN035,0.00,VWS V14.01,2013-06-23 10:38:00,
2013-06-23 06:39:00,78.5,76.6,30.12,ESE,107,3.0,4.0,94,0.00,,BKN035,0.00,VWS V14.01,2013-06-23 10:39:00,
2013-06-23 06:40:00,78.5,76.6,30.12,ESE,109,5.0,5.0,94,0.00,,BKN035,0.00,VWS V14.01,2013-06-23 10:40:00,
2013-06-23 06:41:00,78.5,76.6,30.12,ESE,111,5.0,5.0,94,0.00,,,0.00,VWS V14.01,2013-06-23 10:41:00,
2013-06-23 06:42:00,78.5,76.6,30.12,ESE,111,5.0,5.0,94,0.00,,BKN035,0.00,VWS V14.01,2013-06-23 10:42:00,
2013-06-23 06:43:00,78.5,76.6,30.12,ESE,109,4.0,6.0,94,0.00,,BKN035,0.00,VWS V14.01,2013-06-23 10:43:00,
2013-06-23 06:44:00,78.5,76.6,30.12,ESE,109,5.0,5.0,94,0.00,,BKN035,0.00,VWS V14.01,2013-06-23 10:44:00,
2013-06-23 06:45:00,78.5,76.3,30.12,ESE,112,5.0,5.0,93,0.00,,BKN035,0.00,VWS V14.01,2013-06-23 10:45:00,
2013-06-23 06:46:00,78.6,76.4,30.12,ESE,106,4.0,6.0,93,0.00,,,0.00,VWS V14.01,2013-06-23 10:46:00,
2013-06-23 06:47:00,78.6,76.4,30.12,ESE,106,4.0,6.0,93,0.00,,BKN035,0.00,VWS V14.01,2013-06-23 10:47:00,
2013-06-23 06:48:00,78.6,76.7,30.12,ESE,102,3.0,4.0,94,0.00,,BKN035,0.00,VWS V14.01,2013-06-23 10:48:00,
2013-06-23 06:49:00,78.6,76.4,30.12,ESE,105,5.0,5.0,93,0.00,,BKN035,0.00,VWS V14.01,2013-06-23 10:49:00,
2013-06-23 06:50:00,78.6,76.7,30.12,ESE,110,5.0,5.0,94,0.00,,BKN035,0.00,VWS V14.01,2013-06-23 10:50:00,
2013-06-23 06:51:00,78.6,76.4,30.12,ESE,121,6.0,6.0,93,0.00,,,0.00,VWS V14.01,2013-06-23 10:51:00,
2013-06-23 06:52:00,78.6,76.4,30.12,ESE,121,6.0,6.0,93,0.00,,BKN035,0.00,VWS V14.01,2013-06-23 10:52:00,
2013-06-23 06:53:00,78.6,76.4,30.12,ESE,116,6.0,6.0,93,0.00,,BKN035,0.00,VWS V14.01,2013-06-23 10:53:00,
2013-06-23 06:54:00,78.6,76.4,30.12,ESE,116,6.0,6.0,93,0.00,,BKN035,0.00,VWS V14.01,2013-06-23 10:54:00,
2013-06-23 06:55:00,78.6,76.4,30.12,ESE,115,5.0,6.0,93,0.00,,BKN035,0.00,VWS V14.01,2013-06-23 10:55:00,
2013-06-23 06:56:00,78.8,76.6,30.12,ESE,104,4.0,4.0,93,0.00,,,0.00,VWS V14.01,2013-06-23 10:56:00,
2013-06-23 06:57:00,78.8,76.6,30.12,ESE,104,4.0,4.0,93,0.00,,BKN035,0.00,VWS V14.01,2013-06-23 10:57:00,
2013-06-23 06:58:00,78.8,76.6,30.12,ESE,115,5.0,5.0,93,0.00,,BKN035,0.00,VWS V14.01,2013-06-23 10:58:00,
2013-06-23 06:59:00,79.0,77.1,30.12,ESE,114,5.0,5.0,94,0.00,,BKN035,0.00,VWS V14.01,2013-06-23 10:59:00,
2013-06-23 07:00:00,79.0,76.8,30.12,ESE,115,5.0,6.0,93,0.00,,BKN035,0.00,VWS V14.01,2013-06-23 11:00:00,
2013-06-23 07:01:00,78.8,76.6,30.12,ESE,113,4.0,5.0,93,0.00,,,0.00,VWS V14.01,2013-06-23 11:01:00,
2013-06-23 07:02:00,78.8,76.6,30.12,ESE,113,4.0,5.0,93,0.00,,BKN035,0.00,VWS V14.01,2013-06-23 11:02:00,
2013-06-23 07:03:00,78.8,76.6,30.12,ESE,113,3.0,4.0,93,0.00,,BKN035,0.00,VWS V14.01,2013-06-23 11:03:00,
2013-06-23 07:04:00,79.0,76.8,30.12,ESE,114,6.0,6.0,93,0.00,,BKN035,0.00,VWS V14.01,2013-06-23 11:04:00,
2013-06-23 07:05:00,79.0,76.8,30.12,ESE,122,5.0,6.0,93,0.00,,BKN035,0.00,VWS V14.01,2013-06-23 11:05:00,
2013-06-23 07:06:00,79.0,76.5,30.12,ESE,110,5.0,5.0,92,0.00,,,0.00,VWS V14.01,2013-06-23 11:06:00,
2013-06-23 07:07:00,79.0,76.5,30.13,ESE,111,4.0,5.0,92,0.00,,BKN035,0.00,VWS V14.01,2013-06-23 11:07:00,
2013-06-23 07:08:00,79.0,76.5,30.12,ESE,115,6.0,6.0,92,0.00,,BKN035,0.00,VWS V14.01,2013-06-23 11:08:00,
2013-06-23 07:09:00,79.0,76.8,30.12,ESE,123,6.0,6.0,93,0.00,,BKN035,0.00,VWS V14.01,2013-06-23 11:09:00,
2013-06-23 07:10:00,79.0,76.5,30.13,ESE,122,5.0,6.0,92,0.00,,BKN035,0.00,VWS V14.01,2013-06-23 11:10:00,
2013-06-23 07:11:00,79.0,76.5,30.12,ESE,120,6.0,6.0,92,0.00,,,0.00,VWS V14.01,2013-06-23 11:11:00,
2013-06-23 07:12:00,79.0,76.5,30.12,ESE,120,6.0,6.0,92,0.00,,BKN035,0.00,VWS V14.01,2013-06-23 11:12:00,
2013-06-23 07:13:00,79.2,76.7,30.13,ESE,119,5.0,6.0,92,0.00,,BKN035,0.00,VWS V14.01,2013-06-23 11:13:00,
2013-06-23 07:14:00,79.2,76.7,30.13,ESE,115,6.0,7.0,92,0.00,,BKN035,0.00,VWS V14.01,2013-06-23 11:14:00,
2013-06-23 07:15:00,79.2,76.7,30.13,ESE,111,7.0,7.0,92,0.00,,BKN035,0.00,VWS V14.01,2013-06-23 11:15:00,
2013-06-23 07:16:00,79.2,76.7,30.13,ESE,121,5.0,6.0,92,0.00,,,0.00,VWS V14.01,2013-06-23 11:16:00,
2013-06-23 07:17:00,79.2,76.7,30.13,ESE,121,5.0,6.0,92,0.00,,BKN035,0.00,VWS V14.01,2013-06-23 11:17:00,
2013-06-23 07:18:00,79.2,76.7,30.13,ESE,112,4.0,5.0,92,0.00,,BKN035,0.00,VWS V14.01,2013-06-23 11:18:00,
2013-06-23 07:19:00,79.4,76.9,30.13,ESE,104,5.0,5.0,92,0.00,,BKN035,0.00,VWS V14.01,2013-06-23 11:19:00,
2013-06-23 07:20:00,79.4,76.9,30.13,ESE,111,5.0,6.0,92,0.00,,BKN035,0.00,VWS V14.01,2013-06-23 11:20:00,
2013-06-23 07:21:00,79.4,76.9,30.13,ESE,104,5.0,5.0,92,0.00,,,0.00,VWS V14.01,2013-06-23 11:21:00,
2013-06-23 07:22:00,79.4,76.9,30.13,ESE,104,5.0,5.0,92,0.00,,BKN035,0.00,VWS V14.01,2013-06-23 11:22:00,
2013-06-23 07:23:00,79.4,76.6,30.13,ESE,104,4.0,6.0,91,0.00,,BKN035,0.00,VWS V14.01,2013-06-23 11:23:00,
2013-06-23 07:24:00,79.4,76.6,30.13,East,101,4.0,5.0,91,0.00,,BKN035,0.00,VWS V14.01,2013-06-23 11:24:00,
2013-06-23 07:25:00,79.4,76.9,30.13,ESE,110,6.0,6.0,92,0.00,,BKN035,0.00,VWS V14.01,2013-06-23 11:25:00,
2013-06-23 07:26:00,79.2,76.3,30.13,ESE,113,4.0,5.0,91,0.00,,,0.00,VWS V14.01,2013-06-23 11:26:00,
2013-06-23 07:27:00,79.2,76.3,30.13,ESE,113,3.0,5.0,91,0.00,,BKN035,0.00,VWS V14.01,2013-06-23 11:27:00,
2013-06-23 07:28:00,79.2,76.3,30.13,ESE,113,4.0,4.0,91,0.00,,BKN035,0.00,VWS V14.01,2013-06-23 11:28:00,
2013-06-23 07:29:00,79.4,76.9,30.13,ESE,113,4.0,4.0,92,0.00,,BKN035,0.00,VWS V14.01,2013-06-23 11:29:00,
2013-06-23 07:30:00,79.4,76.9,30.13,ESE,109,3.0,4.0,92,0.00,,BKN035,0.00,VWS V14.01,2013-06-23 11:30:00,
2013-06-23 07:31:00,79.4,76.9,30.13,ESE,108,3.0,4.0,92,0.00,,,0.00,VWS V14.01,2013-06-23 11:31:00,
2013-06-23 07:32:00,79.4,76.9,30.13,ESE,108,3.0,4.0,92,0.00,,BKN035,0.00,VWS V14.01,2013-06-23 11:32:00,
2013-06-23 07:33:00,79.4,76.9,30.13,ESE,107,4.0,4.0,92,0.00,,BKN035,0.00,VWS V14.01,2013-06-23 11:33:00,
2013-06-23 07:34:00,79.4,76.9,30.13,ESE,103,3.0,4.0,92,0.00,,BKN035,0.00,VWS V14.01,2013-06-23 11:34:00,
2013-06-23 07:35:00,79.4,76.9,30.13,ESE,104,3.0,5.0,92,0.00,,BKN035,0.00,VWS V14.01,2013-06-23 11:35:00,
2013-06-23 07:36:00,79.2,76.3,30.13,ESE,104,4.0,5.0,91,0.00,,,0.00,VWS V14.01,2013-06-23 11:36:00,
2013-06-23 07:37:00,79.2,76.3,30.13,ESE,104,4.0,5.0,91,0.00,,BKN035,0.00,VWS V14.01,2013-06-23 11:37:00,
2013-06-23 07:38:00,79.2,76.3,30.13,ESE,106,4.0,5.0,91,0.00,,BKN035,0.00,VWS V14.01,2013-06-23 11:38:00,
2013-06-23 07:39:00,79.4,76.6,30.13,ESE,106,3.0,4.0,91,0.00,,BKN035,0.00,VWS V14.01,2013-06-23 11:39:00,
2013-06-23 07:40:00,79.4,76.9,30.13,ESE,105,3.0,4.0,92,0.00,,BKN035,0.00,VWS V14.01,2013-06-23 11:40:00,
2013-06-23 07:41:00,79.4,76.9,30.13,ESE,105,3.0,3.0,92,0.00,,,0.00,VWS V14.01,2013-06-23 11:41:00,
2013-06-23 07:42:00,79.4,76.9,30.13,ESE,105,3.0,3.0,92,0.00,,BKN035,0.00,VWS V14.01,2013-06-23 11:42:00,
2013-06-23 07:43:00,79.4,76.6,30.14,ESE,105,5.0,5.0,91,0.00,,BKN035,0.00,VWS V14.01,2013-06-23 11:43:00,
2013-06-23 07:44:00,79.4,76.9,30.14,ESE,107,4.0,5.0,92,0.00,,BKN035,0.00,VWS V14.01,2013-06-23 11:44:00,
2013-06-23 07:45:00,79.4,76.6,30.14,ESE,107,2.0,4.0,91,0.00,,BKN035,0.00,VWS V14.01,2013-06-23 11:45:00,
2013-06-23 07:46:00,79.4,76.6,30.13,ESE,107,4.0,4.0,91,0.00,,,0.00,VWS V14.01,2013-06-23 11:46:00,
2013-06-23 07:47:00,79.4,76.6,30.13,ESE,107,4.0,4.0,91,0.00,,BKN035,0.00,VWS V14.01,2013-06-23 11:47:00,
2013-06-23 07:48:00,79.4,76.6,30.13,ESE,107,3.0,4.0,91,0.00,,BKN035,0.00,VWS V14.01,2013-06-23 11:48:00,
2013-06-23 07:49:00,79.6,76.8,30.13,ESE,109,5.0,5.0,91,0.00,,BKN035,0.00,VWS V14.01,2013-06-23 11:49:00,
2013-06-23 07:50:00,79.6,76.8,30.13,ESE,108,5.0,5.0,91,0.00,,BKN035,0.00,VWS V14.01,2013-06-23 11:50:00,
2013-06-23 07:51:00,79.6,76.8,30.13,ESE,104,3.0,4.0,91,0.00,,,0.00,VWS V14.01,2013-06-23 11:51:00,
2013-06-23 07:52:00,79.6,76.8,30.13,ESE,104,3.0,4.0,91,0.00,,BKN035,0.00,VWS V14.01,2013-06-23 11:52:00,
2013-06-23 07:53:00,79.6,76.8,30.13,ESE,104,4.0,4.0,91,0.00,,BKN035,0.00,VWS V14.01,2013-06-23 11:53:00,
2013-06-23 07:54:00,79.6,76.4,30.13,ESE,103,3.0,4.0,90,0.00,,BKN035,0.00,VWS V14.01,2013-06-23 11:54:00,
2013-06-23 07:55:00,79.8,76.9,30.13,ESE,108,6.0,6.0,91,0.00,,BKN035,0.00,VWS V14.01,2013-06-23 11:55:00,
2013-06-23 07:56:00,79.8,76.9,30.13,ESE,104,4.0,6.0,91,0.00,,,0.00,VWS V14.01,2013-06-23 11:56:00,
2013-06-23 07:57:00,79.8,76.9,30.13,ESE,104,4.0,6.0,91,0.00,,BKN035,0.00,VWS V14.01,2013-06-23 11:57:00,
2013-06-23 07:58:00,79.8,76.6,30.13,ESE,105,3.0,4.0,90,0.00,,BKN035,0.00,VWS V14.01,2013-06-23 11:58:00,
2013-06-23 07:59:00,79.8,76.6,30.13,ESE,112,7.0,7.0,90,0.00,,BKN035,0.00,VWS V14.01,2013-06-23 11:59:00,
2013-06-23 08:00:00,79.8,76.6,30.13,ESE,111,4.0,7.0,90,0.00,,BKN035,0.00,VWS V14.01,2013-06-23 12:00:00,
2013-06-23 08:01:00,79.9,76.7,30.13,ESE,104,4.0,6.0,90,0.00,,,0.00,VWS V14.01,2013-06-23 12:01:00,
2013-06-23 08:02:00,79.9,76.7,30.13,ESE,104,4.0,6.0,90,0.00,,BKN035,0.00,VWS V14.01,2013-06-23 12:02:00,
2013-06-23 08:03:00,79.9,76.7,30.13,ESE,105,5.0,6.0,90,0.00,,BKN035,0.00,VWS V14.01,2013-06-23 12:03:00,
2013-06-23 08:04:00,79.9,76.7,30.13,ESE,105,5.0,6.0,90,0.00,,BKN035,0.00,VWS V14.01,2013-06-23 12:04:00,
2013-06-23 08:05:00,79.9,76.7,30.14,ESE,103,5.0,5.0,90,0.00,,BKN035,0.00,VWS V14.01,2013-06-23 12:05:00,
2013-06-23 08:06:00,79.9,76.7,30.13,ESE,103,4.0,4.0,90,0.00,,,0.00,VWS V14.01,2013-06-23 12:06:00,
2013-06-23 08:07:00,79.9,76.7,30.13,ESE,103,4.0,4.0,90,0.00,,BKN035,0.00,VWS V14.01,2013-06-23 12:07:00,
2013-06-23 08:08:00,80.1,76.6,30.13,ESE,103,4.0,4.0,89,0.00,,BKN035,0.00,VWS V14.01,2013-06-23 12:08:00,
2013-06-23 08:09:00,80.1,76.9,30.14,ESE,105,4.0,4.0,90,0.00,,BKN035,0.00,VWS V14.01,2013-06-23 12:09:00,
2013-06-23 08:10:00,80.3,77.1,30.14,ESE,103,4.0,5.0,90,0.00,,BKN035,0.00,VWS V14.01,2013-06-23 12:10:00,
2013-06-23 08:11:00,80.3,77.1,30.14,ESE,103,3.0,4.0,90,0.00,,,0.00,VWS V14.01,2013-06-23 12:11:00,
2013-06-23 08:12:00,80.3,77.1,30.14,ESE,103,4.0,4.0,90,0.00,,BKN035,0.00,VWS V14.01,2013-06-23 12:12:00,
2013-06-23 08:13:00,80.3,76.8,30.14,East,98,4.0,4.0,89,0.00,,BKN035,0.00,VWS V14.01,2013-06-23 12:13:00,
2013-06-23 08:14:00,80.3,76.8,30.14,ESE,107,4.0,5.0,89,0.00,,BKN035,0.00,VWS V14.01,2013-06-23 12:14:00,
2013-06-23 08:15:00,80.5,77.0,30.14,ESE,105,4.0,4.0,89,0.00,,BKN035,0.00,VWS V14.01,2013-06-23 12:15:00,
2013-06-23 08:16:00,80.5,77.0,30.14,ESE,107,2.0,4.0,89,0.00,,,0.00,VWS V14.01,2013-06-23 12:16:00,
2013-06-23 08:17:00,80.5,77.0,30.14,ESE,107,2.0,4.0,89,0.00,,BKN035,0.00,VWS V14.01,2013-06-23 12:17:00,
2013-06-23 08:18:00,80.7,77.5,30.14,ESE,107,3.0,3.0,90,0.00,,BKN035,0.00,VWS V14.01,2013-06-23 12:18:00,
2013-06-23 08:19:00,80.7,77.2,30.14,ESE,107,4.0,4.0,89,0.00,,BKN035,0.00,VWS V14.01,2013-06-23 12:19:00,
2013-06-23 08:20:00,80.7,77.5,30.14,ESE,106,3.0,4.0,90,0.00,,BKN035,0.00,VWS V14.01,2013-06-23 12:20:00,
2013-06-23 08:21:00,80.5,76.6,30.14,ESE,102,3.0,6.0,88,0.00,,,0.00,VWS V14.01,2013-06-23 12:21:00,
2013-06-23 08:22:00,80.5,76.6,30.14,ESE,102,3.0,6.0,88,0.00,,BKN035,0.00,VWS V14.01,2013-06-23 12:22:00,
2013-06-23 08:23:00,80.5,77.0,30.14,ESE,103,4.0,4.0,89,0.00,,BKN035,0.00,VWS V14.01,2013-06-23 12:23:00,
2013-06-23 08:24:00,80.7,77.2,30.14,East,100,3.0,4.0,89,0.00,,BKN035,0.00,VWS V14.01,2013-06-23 12:24:00,
2013-06-23 08:25:00,80.7,77.2,30.14,East,100,3.0,4.0,89,0.00,,BKN035,0.00,VWS V14.01,2013-06-23 12:25:00,
2013-06-23 08:26:00,80.7,77.2,30.14,ESE,104,4.0,4.0,89,0.00,,,0.00,VWS V14.01,2013-06-23 12:26:00,
2013-06-23 08:27:00,80.7,77.2,30.14,ESE,104,4.0,4.0,89,0.00,,BKN035,0.00,VWS V14.01,2013-06-23 12:27:00,
2013-06-23 08:28:00,80.7,76.8,30.14,ESE,103,4.0,5.0,88,0.00,,BKN035,0.00,VWS V14.01,2013-06-23 12:28:00,
2013-06-23 08:29:00,80.7,76.8,30.14,ESE,103,4.0,5.0,88,0.00,,BKN035,0.00,VWS V14.01,2013-06-23 12:29:00,
2013-06-23 08:30:00,80.7,76.8,30.14,ESE,103,4.0,4.0,88,0.00,,BKN035,0.00,VWS V14.01,2013-06-23 12:30:00,
2013-06-23 08:31:00,80.7,76.8,30.14,ESE,103,3.0,4.0,88,0.00,,,0.00,VWS V14.01,2013-06-23 12:31:00,
2013-06-23 08:32:00,80.7,76.8,30.14,ESE,103,3.0,4.0,88,0.00,,BKN035,0.00,VWS V14.01,2013-06-23 12:32:00,
2013-06-23 08:33:00,80.9,77.0,30.14,ESE,103,2.0,4.0,88,0.00,,BKN035,0.00,VWS V14.01,2013-06-23 12:33:00,
2013-06-23 08:34:00,80.9,77.0,30.14,ESE,103,3.0,3.0,88,0.00,,BKN035,0.00,VWS V14.01,2013-06-23 12:34:00,
2013-06-23 08:35:00,80.9,77.0,30.14,ESE,103,3.0,4.0,88,0.00,,BKN035,0.00,VWS V14.01,2013-06-23 12:35:00,
2013-06-23 08:36:00,80.9,77.0,30.14,ESE,103,3.0,4.0,88,0.00,,CLR,0.00,VWS V14.01,2013-06-23 12:36:00,
2013-06-23 08:37:00,80.9,77.0,30.14,ESE,103,3.0,4.0,88,0.00,,BKN035,0.00,VWS V14.01,2013-06-23 12:37:00,
2013-06-23 08:38:00,81.1,77.9,30.14,ESE,103,3.0,3.0,90,0.00,,BKN035,0.00,VWS V14.01,2013-06-23 12:38:00,
2013-06-23 08:39:00,81.1,77.2,30.14,ESE,103,3.0,3.0,88,0.00,,BKN035,0.00,VWS V14.01,2013-06-23 12:39:00,
2013-06-23 08:40:00,81.1,77.2,30.14,ESE,103,3.0,4.0,88,0.00,,BKN035,0.00,VWS V14.01,2013-06-23 12:40:00,
2013-06-23 08:41:00,81.1,76.9,30.14,ESE,106,4.0,5.0,87,0.00,,CLR,0.00,VWS V14.01,2013-06-23 12:41:00,
2013-06-23 08:42:00,81.1,76.9,30.14,ESE,106,3.0,5.0,87,0.00,,BKN035,0.00,VWS V14.01,2013-06-23 12:42:00,
2013-06-23 08:43:00,81.1,76.9,30.14,ESE,105,2.0,3.0,87,0.00,,BKN035,0.00,VWS V14.01,2013-06-23 12:43:00,
2013-06-23 08:44:00,81.1,76.9,30.14,ESE,106,3.0,4.0,87,0.00,,BKN035,0.00,VWS V14.01,2013-06-23 12:44:00,
2013-06-23 08:45:00,81.1,77.2,30.14,ESE,106,3.0,4.0,88,0.00,,BKN035,0.00,VWS V14.01,2013-06-23 12:45:00,
2013-06-23 08:46:00,81.1,76.9,30.14,ESE,106,3.0,4.0,87,0.00,,CLR,0.00,VWS V14.01,2013-06-23 12:46:00,
2013-06-23 08:47:00,81.1,76.9,30.15,ESE,106,3.0,4.0,87,0.00,,BKN035,0.00,VWS V14.01,2013-06-23 12:47:00,
2013-06-23 08:48:00,80.9,76.7,30.15,ESE,106,4.0,4.0,87,0.00,,BKN035,0.00,VWS V14.01,2013-06-23 12:48:00,
2013-06-23 08:49:00,80.9,76.7,30.15,ESE,107,4.0,4.0,87,0.00,,BKN035,0.00,VWS V14.01,2013-06-23 12:49:00,
2013-06-23 08:50:00,81.1,76.9,30.15,ESE,107,4.0,4.0,87,0.00,,BKN035,0.00,VWS V14.01,2013-06-23 12:50:00,
2013-06-23 08:51:00,81.1,76.5,30.15,ESE,107,3.0,4.0,86,0.00,,CLR,0.00,VWS V14.01,2013-06-23 12:51:00,
2013-06-23 08:52:00,81.1,76.5,30.15,ESE,107,2.0,4.0,86,0.00,,BKN035,0.00,VWS V14.01,2013-06-23 12:52:00,
2013-06-23 08:53:00,81.1,76.9,30.15,ESE,107,3.0,3.0,87,0.00,,BKN035,0.00,VWS V14.01,2013-06-23 12:53:00,
2013-06-23 08:54:00,81.2,77.3,30.14,ESE,107,3.0,4.0,88,0.00,,BKN035,0.00,VWS V14.01,2013-06-23 12:54:00,
2013-06-23 08:55:00,81.2,77.0,30.14,ESE,107,4.0,4.0,87,0.00,,BKN035,0.00,VWS V14.01,2013-06-23 12:55:00,
2013-06-23 08:56:00,81.2,76.6,30.10,ESE,107,2.0,3.0,86,0.00,,CLR,0.00,VWS V14.01,2013-06-23 12:56:00,
2013-06-23 08:57:00,81.2,76.6,30.10,ESE,107,3.0,3.0,86,0.00,,BKN035,0.00,VWS V14.01,2013-06-23 12:57:00,
2013-06-23 08:58:00,81.2,76.6,30.10,ESE,107,3.0,3.0,86,0.00,,BKN035,0.00,VWS V14.01,2013-06-23 12:58:00,
2013-06-23 08:59:00,81.4,77.2,30.10,ESE,107,3.0,4.0,87,0.00,,BKN035,0.00,VWS V14.01,2013-06-23 12:59:00,
2013-06-23 09:00:00,81.4,76.8,30.15,ESE,105,3.0,5.0,86,0.00,,BKN035,0.00,VWS V14.01,2013-06-23 13:00:00,
2013-06-23 09:01:00,81.4,76.8,30.15,ESE,105,4.0,4.0,86,0.00,,CLR,0.00,VWS V14.01,2013-06-23 13:01:00,
2013-06-23 09:02:00,81.4,76.8,30.15,ESE,105,4.0,4.0,86,0.00,,BKN035,0.00,VWS V14.01,2013-06-23 13:02:00,
2013-06-23 09:03:00,81.4,76.8,30.15,ESE,105,2.0,4.0,86,0.00,,BKN035,0.00,VWS V14.01,2013-06-23 13:03:00,
2013-06-23 09:04:00,81.4,76.8,30.15,ESE,105,1.0,3.0,86,0.00,,BKN035,0.00,VWS V14.01,2013-06-23 13:04:00,
2013-06-23 09:05:00,81.6,77.0,30.15,ESE,105,3.0,3.0,86,0.00,,BKN035,0.00,VWS V14.01,2013-06-23 13:05:00,
2013-06-23 09:06:00,81.8,77.2,30.15,ESE,106,3.0,4.0,86,0.00,,CLR,0.00,VWS V14.01,2013-06-23 13:06:00,
2013-06-23 09:07:00,81.8,77.2,30.15,ESE,106,3.0,4.0,86,0.00,,BKN035,0.00,VWS V14.01,2013-06-23 13:07:00,
2013-06-23 09:08:00,81.8,77.2,30.15,ESE,106,3.0,3.0,86,0.00,,BKN035,0.00,VWS V14.01,2013-06-23 13:08:00,
2013-06-23 09:09:00,81.8,77.2,30.15,ESE,106,2.0,3.0,86,0.00,,BKN035,0.00,VWS V14.01,2013-06-23 13:09:00,
2013-06-23 09:10:00,81.8,77.2,30.15,ESE,106,1.0,2.0,86,0.00,,BKN035,0.00,VWS V14.01,2013-06-23 13:10:00,
2013-06-23 09:11:00,82.0,77.1,30.15,East,98,1.0,3.0,85,0.00,,CLR,0.00,VWS V14.01,2013-06-23 13:11:00,
2013-06-23 09:12:00,82.0,77.1,30.15,East,98,1.0,3.0,85,0.00,,BKN035,0.00,VWS V14.01,2013-06-23 13:12:00,
2013-06-23 09:13:00,82.2,77.6,30.15,East,98,1.0,2.0,86,0.00,,BKN035,0.00,VWS V14.01,2013-06-23 13:13:00,
2013-06-23 09:14:00,82.2,77.2,30.15,East,98,0.0,3.0,85,0.00,,BKN035,0.00,VWS V14.01,2013-06-23 13:14:00,
2013-06-23 09:15:00,82.4,77.4,30.15,East,98,2.0,2.0,85,0.00,,BKN035,0.00,VWS V14.01,2013-06-23 13:15:00,
2013-06-23 09:16:00,82.6,77.3,30.15,East,98,3.0,3.0,84,0.00,,CLR,0.00,VWS V14.01,2013-06-23 13:16:00,
2013-06-23 09:17:00,82.6,77.3,30.15,East,98,3.0,3.0,84,0.00,,BKN035,0.00,VWS V14.01,2013-06-23 13:17:00,
2013-06-23 09:18:00,82.6,77.3,30.15,ESE,103,4.0,4.0,84,0.00,,BKN035,0.00,VWS V14.01,2013-06-23 13:18:00,
2013-06-23 09:19:00,82.4,76.7,30.15,ESE,103,3.0,4.0,83,0.00,,BKN035,0.00,VWS V14.01,2013-06-23 13:19:00,
2013-06-23 09:20:00,82.4,76.7,30.15,ESE,103,3.0,3.0,83,0.00,,BKN035,0.00,VWS V14.01,2013-06-23 13:20:00,
2013-06-23 09:21:00,82.2,76.9,30.15,ESE,103,2.0,3.0,84,0.00,,CLR,0.00,VWS V14.01,2013-06-23 13:21:00,
2013-06-23 09:22:00,82.2,76.9,30.15,ESE,103,2.0,3.0,84,0.00,,BKN035,0.00,VWS V14.01,2013-06-23 13:22:00,
2013-06-23 09:23:00,82.2,76.9,30.15,ESE,103,2.0,2.0,84,0.00,,BKN035,0.00,VWS V14.01,2013-06-23 13:23:00,
2013-06-23 09:24:00,82.4,77.1,30.15,ESE,103,2.0,3.0,84,0.00,,BKN035,0.00,VWS V14.01,2013-06-23 13:24:00,
2013-06-23 09:25:00,82.4,77.1,30.16,East,94,1.0,3.0,84,0.00,,BKN035,0.00,VWS V14.01,2013-06-23 13:25:00,
2013-06-23 09:26:00,82.6,77.3,30.16,East,94,2.0,2.0,84,0.00,,CLR,0.00,VWS V14.01,2013-06-23 13:26:00,
2013-06-23 09:27:00,82.6,77.3,30.16,East,94,2.0,2.0,84,0.00,,BKN035,0.00,VWS V14.01,2013-06-23 13:27:00,
2013-06-23 09:28:00,82.6,77.3,30.15,East,94,2.0,3.0,84,0.00,,BKN035,0.00,VWS V14.01,2013-06-23 13:28:00,
2013-06-23 09:29:00,82.6,77.3,30.15,East,94,2.0,3.0,84,0.00,,BKN035,0.00,VWS V14.01,2013-06-23 13:29:00,
2013-06-23 09:30:00,82.6,76.9,30.15,East,94,1.0,2.0,83,0.00,,BKN035,0.00,VWS V14.01,2013-06-23 13:30:00,
2013-06-23 09:31:00,82.6,77.3,30.15,East,94,2.0,2.0,84,0.00,,CLR,0.00,VWS V14.01,2013-06-23 13:31:00,
2013-06-23 09:32:00,82.6,77.3,30.15,East,94,2.0,2.0,84,0.00,,BKN035,0.00,VWS V14.01,2013-06-23 13:32:00,
2013-06-23 09:33:00,82.8,77.5,30.15,East,94,2.0,3.0,84,0.00,,BKN035,0.00,VWS V14.01,2013-06-23 13:33:00,
2013-06-23 09:34:00,82.8,77.1,30.15,East,87,2.0,5.0,83,0.00,,BKN035,0.00,VWS V14.01,2013-06-23 13:34:00,
2013-06-23 09:35:00,82.8,77.1,30.15,East,87,1.0,2.0,83,0.00,,BKN035,0.00,VWS V14.01,2013-06-23 13:35:00,
2013-06-23 09:36:00,83.0,77.3,30.15,East,90,2.0,2.0,83,0.00,,SCT014,0.00,VWS V14.01,2013-06-23 13:36:00,
2013-06-23 09:37:00,83.0,77.3,30.15,East,90,2.0,2.0,83,0.00,,BKN035,0.00,VWS V14.01,2013-06-23 13:37:00,
2013-06-23 09:38:00,83.0,76.9,30.15,East,90,2.0,3.0,82,0.00,,BKN035,0.00,VWS V14.01,2013-06-23 13:38:00,
2013-06-23 09:39:00,83.2,77.1,30.15,East,90,2.0,3.0,82,0.00,,BKN035,0.00,VWS V14.01,2013-06-23 13:39:00,
2013-06-23 09:40:00,83.2,77.1,30.15,East,90,1.0,2.0,82,0.00,,BKN035,0.00,VWS V14.01,2013-06-23 13:40:00,
2013-06-23 09:41:00,83.4,77.0,30.15,East,93,2.0,4.0,81,0.00,,SCT014,0.00,VWS V14.01,2013-06-23 13:41:00,
2013-06-23 09:42:00,83.4,77.0,30.15,East,93,2.0,4.0,81,0.00,,BKN035,0.00,VWS V14.01,2013-06-23 13:42:00,
2013-06-23 09:43:00,83.2,76.8,30.15,East,94,1.0,4.0,81,0.00,,BKN035,0.00,VWS V14.01,2013-06-23 13:43:00,
2013-06-23 09:44:00,83.2,76.8,30.15,East,94,1.0,2.0,81,0.00,,BKN035,0.00,VWS V14.01,2013-06-23 13:44:00,
2013-06-23 09:45:00,83.2,76.8,30.15,East,94,1.0,3.0,81,0.00,,BKN035,0.00,VWS V14.01,2013-06-23 13:45:00,
2013-06-23 09:46:00,83.2,76.4,30.06,East,94,2.0,2.0,80,0.00,,SCT014,0.00,VWS V14.01,2013-06-23 13:46:00,
2013-06-23 09:47:00,83.2,76.4,30.06,East,94,1.0,2.0,80,0.00,,BKN035,0.00,VWS V14.01,2013-06-23 13:47:00,
2013-06-23 09:48:00,83.4,77.0,30.06,East,94,2.0,2.0,81,0.00,,BKN035,0.00,VWS V14.01,2013-06-23 13:48:00,
2013-06-23 09:49:00,83.4,77.0,30.15,East,98,2.0,3.0,81,0.00,,BKN035,0.00,VWS V14.01,2013-06-23 13:49:00,
2013-06-23 09:50:00,83.6,77.2,30.15,East,98,2.0,2.0,81,0.00,,BKN035,0.00,VWS V14.01,2013-06-23 13:50:00,
2013-06-23 09:51:00,83.8,77.3,30.15,East,99,2.0,3.0,81,0.00,,SCT014,0.00,VWS V14.01,2013-06-23 13:51:00,
2013-06-23 09:52:00,83.8,77.3,30.15,East,99,2.0,3.0,81,0.00,,BKN035,0.00,VWS V14.01,2013-06-23 13:52:00,
2013-06-23 09:53:00,83.8,77.0,30.15,East,99,1.0,2.0,80,0.00,,BKN035,0.00,VWS V14.01,2013-06-23 13:53:00,
2013-06-23 09:54:00,83.8,77.0,30.15,East,99,0.0,2.0,80,0.00,,BKN035,0.00,VWS V14.01,2013-06-23 13:54:00,
2013-06-23 09:55:00,83.8,77.0,30.15,East,99,3.0,4.0,80,0.00,,BKN035,0.00,VWS V14.01,2013-06-23 13:55:00,
2013-06-23 09:56:00,83.8,77.0,30.15,East,99,2.0,3.0,80,0.00,,SCT014,0.00,VWS V14.01,2013-06-23 13:56:00,
2013-06-23 09:57:00,83.8,76.6,30.15,East,99,3.0,3.0,79,0.00,,BKN035,0.00,VWS V14.01,2013-06-23 13:57:00,
2013-06-23 09:58:00,83.6,76.4,30.15,East,99,3.0,3.0,79,0.00,,BKN035,0.00,VWS V14.01,2013-06-23 13:58:00,
2013-06-23 09:59:00,83.8,77.0,30.15,East,99,4.0,4.0,80,0.00,,BKN035,0.00,VWS V14.01,2013-06-23 13:59:00,
2013-06-23 10:00:00,83.6,76.8,30.15,East,98,3.0,4.0,80,0.00,,BKN035,0.00,VWS V14.01,2013-06-23 14:00:00,
2013-06-23 10:01:00,83.6,76.8,30.15,East,100,2.0,4.0,80,0.00,,SCT014,0.00,VWS V14.01,2013-06-23 14:01:00,
2013-06-23 10:02:00,83.6,76.8,29.80,East,100,4.0,4.0,80,0.00,,BKN035,0.00,VWS V14.01,2013-06-23 14:02:00,
2013-06-23 10:03:00,83.6,76.8,29.80,East,100,3.0,4.0,80,0.00,,BKN035,0.00,VWS V14.01,2013-06-23 14:03:00,
2013-06-23 10:04:00,83.6,76.8,29.80,ESE,106,3.0,4.0,80,0.00,,BKN035,0.00,VWS V14.01,2013-06-23 14:04:00,
2013-06-23 10:05:00,83.6,76.8,29.80,ESE,106,3.0,3.0,80,0.00,,BKN035,0.00,VWS V14.01,2013-06-23 14:05:00,
2013-06-23 10:06:00,83.6,77.2,29.80,ESE,106,3.0,5.0,81,0.00,,SCT014,0.00,VWS V14.01,2013-06-23 14:06:00,
2013-06-23 10:07:00,83.6,77.2,29.80,ESE,106,3.0,5.0,81,0.00,,BKN035,0.00,VWS V14.01,2013-06-23 14:07:00,
2013-06-23 10:08:00,83.6,76.8,29.80,ESE,107,3.0,4.0,80,0.00,,BKN035,0.00,VWS V14.01,2013-06-23 14:08:00,
2013-06-23 10:09:00,83.6,77.2,30.07,ESE,104,4.0,5.0,81,0.00,,BKN035,0.00,VWS V14.01,2013-06-23 14:09:00,
2013-06-23 10:10:00,83.6,77.2,30.07,ESE,103,3.0,5.0,81,0.00,,BKN035,0.00,VWS V14.01,2013-06-23 14:10:00,
2013-06-23 10:11:00,83.4,77.0,30.07,ESE,103,4.0,5.0,81,0.00,,SCT014,0.00,VWS V14.01,2013-06-23 14:11:00,
2013-06-23 10:12:00,83.4,77.0,30.07,ESE,103,4.0,5.0,81,0.00,,BKN035,0.00,VWS V14.01,2013-06-23 14:12:00,
2013-06-23 10:13:00,83.4,77.0,30.07,ESE,116,3.0,4.0,81,0.00,,BKN035,0.00,VWS V14.01,2013-06-23 14:13:00,
2013-06-23 10:14:00,83.6,77.2,30.07,East,96,2.0,3.0,81,0.00,,BKN035,0.00,VWS V14.01,2013-06-23 14:14:00,
2013-06-23 10:15:00,83.6,77.2,30.07,East,90,2.0,4.0,81,0.00,,BKN035,0.00,VWS V14.01,2013-06-23 14:15:00,
2013-06-23 10:16:00,83.8,77.3,29.85,ESE,103,3.0,4.0,81,0.00,,SCT014,0.00,VWS V14.01,2013-06-23 14:16:00,
2013-06-23 10:17:00,83.8,77.3,29.85,ESE,103,3.0,4.0,81,0.00,,BKN035,0.00,VWS V14.01,2013-06-23 14:17:00,
2013-06-23 10:18:00,83.8,77.3,29.85,East,88,3.0,4.0,81,0.00,,BKN035,0.00,VWS V14.01,2013-06-23 14:18:00,
2013-06-23 10:19:00,83.8,77.3,29.85,East,84,3.0,4.0,81,0.00,,BKN035,0.00,VWS V14.01,2013-06-23 14:19:00,
2013-06-23 10:20:00,83.6,77.2,29.85,East,94,1.0,4.0,81,0.00,,BKN035,0.00,VWS V14.01,2013-06-23 14:20:00,
2013-06-23 10:21:00,83.8,77.3,29.85,East,101,2.0,3.0,81,0.00,,SCT014,0.00,VWS V14.01,2013-06-23 14:21:00,
2013-06-23 10:22:00,83.8,77.3,29.85,East,98,2.0,3.0,81,0.00,,BKN035,0.00,VWS V14.01,2013-06-23 14:22:00,
2013-06-23 10:23:00,83.8,77.3,29.98,East,92,4.0,4.0,81,0.00,,BKN035,0.00,VWS V14.01,2013-06-23 14:23:00,
2013-06-23 10:24:00,84.0,77.5,29.98,ENE,74,2.0,4.0,81,0.00,,BKN035,0.00,VWS V14.01,2013-06-23 14:24:00,
2013-06-23 10:25:00,84.1,77.6,29.98,East,80,3.0,3.0,81,0.00,,BKN035,0.00,VWS V14.01,2013-06-23 14:25:00,
2013-06-23 10:26:00,84.1,77.3,29.94,East,91,2.0,3.0,80,0.00,,SCT014,0.00,VWS V14.01,2013-06-23 14:26:00,
2013-06-23 10:27:00,84.1,77.3,29.94,East,91,2.0,3.0,80,0.00,,BKN035,0.00,VWS V14.01,2013-06-23 14:27:00,
2013-06-23 10:28:00,84.1,77.3,29.81,East,80,2.0,3.0,80,0.00,,BKN035,0.00,VWS V14.01,2013-06-23 14:28:00,
2013-06-23 10:29:00,84.1,77.3,29.81,East,87,3.0,4.0,80,0.00,,BKN035,0.00,VWS V14.01,2013-06-23 14:29:00,
2013-06-23 10:30:00,84.1,77.3,29.81,East,87,3.0,3.0,80,0.00,,BKN035,0.00,VWS V14.01,2013-06-23 14:30:00,
2013-06-23 10:31:00,84.0,76.8,29.81,ESE,105,6.0,6.0,79,0.00,,SCT014,0.00,VWS V14.01,2013-06-23 14:31:00,
2013-06-23 10:32:00,84.0,76.8,29.94,ESE,105,5.0,6.0,79,0.00,,BKN035,0.00,VWS V14.01,2013-06-23 14:32:00,
2013-06-23 10:33:00,84.0,76.8,29.94,ESE,104,6.0,6.0,79,0.00,,BKN035,0.00,VWS V14.01,2013-06-23 14:33:00,
2013-06-23 10:34:00,83.8,77.0,29.94,ESE,112,4.0,6.0,80,0.00,,BKN035,0.00,VWS V14.01,2013-06-23 14:34:00,
2013-06-23 10:35:00,83.8,77.0,29.94,ESE,104,4.0,4.0,80,0.00,,BKN035,0.00,VWS V14.01,2013-06-23 14:35:00,
2013-06-23 10:36:00,83.6,77.2,29.94,ESE,102,5.0,6.0,81,0.00,,CLR,0.00,VWS V14.01,2013-06-23 14:36:00,
2013-06-23 10:37:00,83.6,77.2,29.94,ESE,102,5.0,6.0,81,0.00,,BKN035,0.00,VWS V14.01,2013-06-23 14:37:00,
2013-06-23 10:38:00,83.4,76.6,29.94,East,91,2.0,5.0,80,0.00,,BKN035,0.00,VWS V14.01,2013-06-23 14:38:00,
2013-06-23 10:39:00,83.6,77.2,29.94,East,98,4.0,4.0,81,0.00,,BKN035,0.00,VWS V14.01,2013-06-23 14:39:00,
2013-06-23 10:40:00,83.6,77.5,29.94,ESE,104,4.0,4.0,82,0.00,,BKN035,0.00,VWS V14.01,2013-06-23 14:40:00,
2013-06-23 10:41:00,83.8,77.3,29.94,ESE,103,2.0,6.0,81,0.00,,CLR,0.00,VWS V14.01,2013-06-23 14:41:00,
2013-06-23 10:42:00,83.8,77.3,29.94,ESE,103,2.0,6.0,81,0.00,,BKN035,0.00,VWS V14.01,2013-06-23 14:42:00,
2013-06-23 10:43:00,83.8,77.3,29.94,East,80,4.0,6.0,81,0.00,,BKN035,0.00,VWS V14.01,2013-06-23 14:43:00,
2013-06-23 10:44:00,84.0,77.5,29.94,East,86,4.0,4.0,81,0.00,,BKN035,0.00,VWS V14.01,2013-06-23 14:44:00,
2013-06-23 10:45:00,84.0,77.5,29.94,East,86,4.0,5.0,81,0.00,,BKN035,0.00,VWS V14.01,2013-06-23 14:45:00,
2013-06-23 10:46:00,84.0,77.5,29.94,East,101,4.0,5.0,81,0.00,,CLR,0.00,VWS V14.01,2013-06-23 14:46:00,
2013-06-23 10:47:00,84.0,77.5,29.94,East,101,4.0,5.0,81,0.00,,BKN035,0.00,VWS V14.01,2013-06-23 14:47:00,
2013-06-23 10:48:00,84.1,77.6,29.90,ESE,106,4.0,4.0,81,0.00,,BKN035,0.00,VWS V14.01,2013-06-23 14:48:00,
2013-06-23 10:49:00,84.1,77.6,29.90,East,92,4.0,4.0,81,0.00,,BKN035,0.00,VWS V14.01,2013-06-23 14:49:00,
2013-06-23 10:50:00,84.1,77.6,29.90,ESE,107,3.0,4.0,81,0.00,,BKN035,0.00,VWS V14.01,2013-06-23 14:50:00,
2013-06-23 10:51:00,84.3,77.8,30.16,East,96,4.0,4.0,81,0.00,,CLR,0.00,VWS V14.01,2013-06-23 14:51:00,
2013-06-23 10:52:00,84.3,77.8,30.16,East,96,4.0,4.0,81,0.00,,BKN035,0.00,VWS V14.01,2013-06-23 14:52:00,
2013-06-23 10:53:00,84.5,78.0,30.16,ESE,104,5.0,5.0,81,0.00,,BKN035,0.00,VWS V14.01,2013-06-23 14:53:00,
2013-06-23 10:54:00,84.3,77.5,30.16,East,92,4.0,5.0,80,0.00,,BKN035,0.00,VWS V14.01,2013-06-23 14:54:00,
2013-06-23 10:55:00,84.3,77.5,30.16,East,86,4.0,5.0,80,0.00,,BKN035,0.00,VWS V14.01,2013-06-23 14:55:00,
2013-06-23 10:56:00,84.5,77.7,30.17,East,95,3.0,4.0,80,0.00,,CLR,0.00,VWS V14.01,2013-06-23 14:56:00,
2013-06-23 10:57:00,84.5,77.7,30.17,East,89,4.0,4.0,80,0.00,,BKN035,0.00,VWS V14.01,2013-06-23 14:57:00,
2013-06-23 10:58:00,84.5,77.3,30.17,East,95,4.0,4.0,79,0.00,,BKN035,0.00,VWS V14.01,2013-06-23 14:58:00,
2013-06-23 10:59:00,84.5,77.3,30.17,East,89,2.0,4.0,79,0.00,,BKN035,0.00,VWS V14.01,2013-06-23 14:59:00,
2013-06-23 11:00:00,84.5,77.7,30.17,East,98,4.0,4.0,80,0.00,,BKN035,0.00,VWS V14.01,2013-06-23 15:00:00,
2013-06-23 11:01:00,84.5,77.7,30.17,East,82,3.0,3.0,80,0.00,,CLR,0.00,VWS V14.01,2013-06-23 15:01:00,
2013-06-23 11:02:00,84.5,77.7,30.17,East,82,3.0,3.0,80,0.00,,BKN035,0.00,VWS V14.01,2013-06-23 15:02:00,
2013-06-23 11:03:00,84.7,77.8,30.17,ESE,103,2.0,4.0,80,0.00,,BKN035,0.00,VWS V14.01,2013-06-23 15:03:00,
2013-06-23 11:04:00,84.7,77.5,30.17,East,96,3.0,5.0,79,0.00,,BKN035,0.00,VWS V14.01,2013-06-23 15:04:00,
2013-06-23 11:05:00,84.7,77.1,30.17,ESE,104,3.0,4.0,78,0.00,,BKN035,0.00,VWS V14.01,2013-06-23 15:05:00,
2013-06-23 11:06:00,85.1,77.5,30.17,East,98,4.0,4.0,78,0.00,,CLR,0.00,VWS V14.01,2013-06-23 15:06:00,
2013-06-23 11:07:00,85.1,77.5,30.17,East,98,4.0,4.0,78,0.00,,BKN035,0.00,VWS V14.01,2013-06-23 15:07:00,
2013-06-23 11:08:00,85.1,77.5,30.17,NE,54,3.0,5.0,78,0.00,,BKN035,0.00,VWS V14.01,2013-06-23 15:08:00,
2013-06-23 11:09:00,85.1,77.5,30.17,ESE,105,3.0,4.0,78,0.00,,BKN035,0.00,VWS V14.01,2013-06-23 15:09:00,
2013-06-23 11:10:00,85.1,77.1,30.17,ESE,113,4.0,4.0,77,0.00,,BKN035,0.00,VWS V14.01,2013-06-23 15:10:00,
2013-06-23 11:11:00,85.1,77.5,30.17,ENE,76,2.0,4.0,78,0.00,,CLR,0.00,VWS V14.01,2013-06-23 15:11:00,
2013-06-23 11:12:00,85.1,77.5,30.17,ENE,74,4.0,5.0,78,0.00,,BKN035,0.00,VWS V14.01,2013-06-23 15:12:00,
2013-06-23 11:13:00,85.1,77.1,30.17,ESE,102,3.0,4.0,77,0.00,,BKN035,0.00,VWS V14.01,2013-06-23 15:13:00,
2013-06-23 11:14:00,85.1,77.1,30.17,ENE,74,3.0,4.0,77,0.00,,BKN035,0.00,VWS V14.01,2013-06-23 15:14:00,
2013-06-23 11:15:00,84.9,76.9,30.17,East,95,3.0,5.0,77,0.00,,BKN035,0.00,VWS V14.01,2013-06-23 15:15:00,
2013-06-23 11:16:00,84.9,76.9,30.17,ESE,103,3.0,5.0,77,0.00,,CLR,0.00,VWS V14.01,2013-06-23 15:16:00,
2013-06-23 11:17:00,84.9,76.9,30.17,ESE,105,5.0,5.0,77,0.00,,BKN035,0.00,VWS V14.01,2013-06-23 15:17:00,
2013-06-23 11:18:00,84.7,77.1,30.17,ESE,107,4.0,5.0,78,0.00,,BKN035,0.00,VWS V14.01,2013-06-23 15:18:00,
2013-06-23 11:19:00,84.7,77.1,30.17,East,86,4.0,5.0,78,0.00,,BKN035,0.00,VWS V14.01,2013-06-23 15:19:00,
2013-06-23 11:20:00,84.5,76.9,30.17,East,94,5.0,5.0,78,0.00,,BKN035,0.00,VWS V14.01,2013-06-23 15:20:00,
2013-06-23 11:21:00,84.3,76.7,30.17,East,101,5.0,6.0,78,0.00,,CLR,0.00,VWS V14.01,2013-06-23 15:21:00,
2013-06-23 11:22:00,84.3,76.7,30.17,East,101,5.0,6.0,78,0.00,,BKN035,0.00,VWS V14.01,2013-06-23 15:22:00,
2013-06-23 11:23:00,84.1,76.9,30.17,ESE,109,5.0,5.0,79,0.00,,BKN035,0.00,VWS V14.01,2013-06-23 15:23:00,
2013-06-23 11:24:00,84.1,77.3,30.17,ESE,103,6.0,6.0,80,0.00,,BKN035,0.00,VWS V14.01,2013-06-23 15:24:00,
2013-06-23 11:25:00,84.1,77.3,30.17,East,97,4.0,6.0,80,0.00,,BKN035,0.00,VWS V14.01,2013-06-23 15:25:00,
2013-06-23 11:26:00,84.1,77.3,30.17,East,88,3.0,4.0,80,0.00,,CLR,0.00,VWS V14.01,2013-06-23 15:26:00,
2013-06-23 11:27:00,84.1,77.3,30.17,East,88,3.0,4.0,80,0.00,,BKN035,0.00,VWS V14.01,2013-06-23 15:27:00,
2013-06-23 11:28:00,84.1,77.3,30.17,East,95,5.0,5.0,80,0.00,,BKN035,0.00,VWS V14.01,2013-06-23 15:28:00,
2013-06-23 11:29:00,84.1,77.3,30.17,ESE,107,6.0,6.0,80,0.00,,BKN035,0.00,VWS V14.01,2013-06-23 15:29:00,
2013-06-23 11:30:00,84.0,77.2,30.17,East,86,3.0,6.0,80,0.00,,BKN035,0.00,VWS V14.01,2013-06-23 15:30:00,
2013-06-23 11:31:00,84.0,77.2,30.17,ESE,102,6.0,6.0,80,0.00,,CLR,0.00,VWS V14.01,2013-06-23 15:31:00,
2013-06-23 11:32:00,84.0,77.2,30.17,ESE,102,6.0,6.0,80,0.00,,BKN035,0.00,VWS V14.01,2013-06-23 15:32:00,
2013-06-23 11:33:00,83.8,77.0,30.17,East,98,3.0,6.0,80,0.00,,BKN035,0.00,VWS V14.01,2013-06-23 15:33:00,
2013-06-23 11:34:00,83.8,77.3,30.17,East,94,4.0,4.0,81,0.00,,BKN035,0.00,VWS V14.01,2013-06-23 15:34:00,
2013-06-23 11:35:00,83.8,77.3,30.17,East,90,5.0,5.0,81,0.00,,BKN035,0.00,VWS V14.01,2013-06-23 15:35:00,
2013-06-23 11:36:00,83.6,77.2,30.17,East,97,4.0,4.0,81,0.00,,CLR,0.00,VWS V14.01,2013-06-23 15:36:00,
2013-06-23 11:37:00,83.6,77.2,30.17,East,97,4.0,4.0,81,0.00,,BKN035,0.00,VWS V14.01,2013-06-23 15:37:00,
2013-06-23 11:38:00,83.6,77.2,30.17,ESE,102,5.0,5.0,81,0.00,,BKN035,0.00,VWS V14.01,2013-06-23 15:38:00,
2013-06-23 11:39:00,83.6,77.2,30.17,East,92,4.0,6.0,81,0.00,,BKN035,0.00,VWS V14.01,2013-06-23 15:39:00,
2013-06-23 11:40:00,83.6,77.5,30.17,East,83,4.0,5.0,82,0.00,,BKN035,0.00,VWS V14.01,2013-06-23 15:40:00,
2013-06-23 11:41:00,83.8,77.7,30.17,East,100,5.0,5.0,82,0.00,,CLR,0.00,VWS V14.01,2013-06-23 15:41:00,
2013-06-23 11:42:00,83.8,77.7,30.17,East,100,5.0,5.0,82,0.00,,BKN035,0.00,VWS V14.01,2013-06-23 15:42:00,
2013-06-23 11:43:00,83.8,77.7,30.17,ENE,77,3.0,5.0,82,0.00,,BKN035,0.00,VWS V14.01,2013-06-23 15:43:00,
2013-06-23 11:44:00,84.0,77.5,30.17,ENE,68,3.0,5.0,81,0.00,,BKN035,0.00,VWS V14.01,2013-06-23 15:44:00,
2013-06-23 11:45:00,84.1,77.6,30.17,ENE,71,6.0,6.0,81,0.00,,BKN035,0.00,VWS V14.01,2013-06-23 15:45:00,
2013-06-23 11:46:00,84.1,77.3,30.17,East,99,4.0,5.0,80,0.00,,CLR,0.00,VWS V14.01,2013-06-23 15:46:00,
2013-06-23 11:47:00,84.1,77.3,30.17,East,99,4.0,5.0,80,0.00,,BKN035,0.00,VWS V14.01,2013-06-23 15:47:00,
2013-06-23 11:48:00,84.3,77.5,30.17,ESE,105,5.0,5.0,80,0.00,,BKN035,0.00,VWS V14.01,2013-06-23 15:48:00,
2013-06-23 11:49:00,84.3,77.5,30.17,East,81,5.0,5.0,80,0.00,,BKN035,0.00,VWS V14.01,2013-06-23 15:49:00,
2013-06-23 11:50:00,84.1,76.9,30.17,East,94,5.0,5.0,79,0.00,,BKN035,0.00,VWS V14.01,2013-06-23 15:50:00,
2013-06-23 11:51:00,84.3,77.5,30.17,ENE,74,3.0,6.0,80,0.00,,CLR,0.00,VWS V14.01,2013-06-23 15:51:00,
2013-06-23 11:52:00,84.3,77.5,30.17,ENE,74,3.0,6.0,80,0.00,,BKN035,0.00,VWS V14.01,2013-06-23 15:52:00,
2013-06-23 11:53:00,84.3,77.5,30.17,East,84,4.0,5.0,80,0.00,,BKN035,0.00,VWS V14.01,2013-06-23 15:53:00,
2013-06-23 11:54:00,84.3,77.5,30.17,East,86,3.0,4.0,80,0.00,,BKN035,0.00,VWS V14.01,2013-06-23 15:54:00,
2013-06-23 11:55:00,84.3,77.5,30.17,East,98,4.0,4.0,80,0.00,,BKN035,0.00,VWS V14.01,2013-06-23 15:55:00,
2013-06-23 11:56:00,84.3,77.1,30.17,ESE,111,3.0,3.0,79,0.00,,CLR,0.00,VWS V14.01,2013-06-23 15:56:00,
2013-06-23 11:57:00,84.3,77.1,30.17,East,101,2.0,6.0,79,0.00,,BKN035,0.00,VWS V14.01,2013-06-23 15:57:00,
2013-06-23 11:58:00,84.3,77.5,30.17,ESE,103,3.0,5.0,80,0.00,,BKN035,0.00,VWS V14.01,2013-06-23 15:58:00,
2013-06-23 11:59:00,84.1,76.9,30.16,East,100,4.0,5.0,79,0.00,,BKN035,0.00,VWS V14.01,2013-06-23 15:59:00,
2013-06-23 12:00:00,84.1,76.9,30.16,ESE,117,5.0,6.0,79,0.00,,BKN035,0.00,VWS V14.01,2013-06-23 16:00:00,
2013-06-23 12:01:00,84.1,77.3,30.16,ESE,103,5.0,6.0,80,0.00,,BKN035,0.00,VWS V14.01,2013-06-23 16:01:00,
2013-06-23 12:02:00,84.0,77.2,30.16,East,101,6.0,6.0,80,0.00,,CLR,0.00,VWS V14.01,2013-06-23 16:02:00,
2013-06-23 12:03:00,84.0,77.2,30.16,East,97,6.0,6.0,80,0.00,,BKN035,0.00,VWS V14.01,2013-06-23 16:03:00,
2013-06-23 12:04:00,83.8,77.3,30.16,ESE,106,5.0,6.0,81,0.00,,BKN035,0.00,VWS V14.01,2013-06-23 16:04:00,
2013-06-23 12:05:00,83.8,77.3,30.16,ESE,104,5.0,5.0,81,0.00,,BKN035,0.00,VWS V14.01,2013-06-23 16:05:00,
2013-06-23 12:06:00,83.8,77.7,30.16,East,96,4.0,5.0,82,0.00,,BKN035,0.00,VWS V14.01,2013-06-23 16:06:00,
2013-06-23 12:07:00,83.8,77.3,30.16,ESE,109,7.0,7.0,81,0.00,,CLR,0.00,VWS V14.01,2013-06-23 16:07:00,
2013-06-23 12:08:00,83.8,77.3,30.16,ESE,103,4.0,7.0,81,0.00,,BKN035,0.00,VWS V14.01,2013-06-23 16:08:00,
2013-06-23 12:09:00,83.8,77.3,30.16,ENE,72,3.0,5.0,81,0.00,,BKN035,0.00,VWS V14.01,2013-06-23 16:09:00,
2013-06-23 12:10:00,83.8,77.3,30.16,ESE,107,6.0,6.0,81,0.00,,BKN035,0.00,VWS V14.01,2013-06-23 16:10:00,
2013-06-23 12:11:00,83.8,77.3,30.16,East,96,5.0,6.0,81,0.00,,BKN035,0.00,VWS V14.01,2013-06-23 16:11:00,
2013-06-23 12:12:00,83.8,77.3,30.16,East,89,3.0,4.0,81,0.00,,CLR,0.00,VWS V14.01,2013-06-23 16:12:00,
2013-06-23 12:13:00,83.6,77.2,30.16,East,86,3.0,4.0,81,0.00,,BKN035,0.00,VWS V14.01,2013-06-23 16:13:00,
2013-06-23 12:14:00,83.6,77.2,30.16,ESE,105,3.0,5.0,81,0.00,,BKN035,0.00,VWS V14.01,2013-06-23 16:14:00,
2013-06-23 12:15:00,83.6,77.2,30.16,ESE,103,4.0,4.0,81,0.00,,BKN035,0.00,VWS V14.01,2013-06-23 16:15:00,
2013-06-23 12:16:00,83.6,77.5,30.16,East,94,4.0,4.0,82,0.00,,BKN035,0.00,VWS V14.01,2013-06-23 16:16:00,
2013-06-23 12:17:00,83.6,77.2,30.16,East,92,4.0,4.0,81,0.00,,CLR,0.00,VWS V14.01,2013-06-23 16:17:00,
2013-06-23 12:18:00,83.6,77.2,30.16,ENE,77,3.0,4.0,81,0.00,,BKN035,0.00,VWS V14.01,2013-06-23 16:18:00,
2013-06-23 12:19:00,83.8,77.3,30.16,East,90,2.0,4.0,81,0.00,,BKN035,0.00,VWS V14.01,2013-06-23 16:19:00,
2013-06-23 12:20:00,84.0,77.5,30.16,East,98,6.0,6.0,81,0.00,,BKN035,0.00,VWS V14.01,2013-06-23 16:20:00,
2013-06-23 12:21:00,84.0,77.5,30.16,East,92,5.0,7.0,81,0.00,,BKN035,0.00,VWS V14.01,2013-06-23 16:21:00,
2013-06-23 12:22:00,84.0,77.2,30.16,ESE,105,7.0,7.0,80,0.00,,CLR,0.00,VWS V14.01,2013-06-23 16:22:00,
2013-06-23 12:23:00,84.0,77.2,30.16,ESE,106,12.0,12.0,80,0.00,,BKN035,0.00,VWS V14.01,2013-06-23 16:23:00,
2013-06-23 12:24:00,84.0,77.5,30.16,ENE,76,6.0,12.0,81,0.00,,BKN035,0.00,VWS V14.01,2013-06-23 16:24:00,
2013-06-23 12:25:00,84.0,77.5,30.16,East,99,5.0,6.0,81,0.00,,BKN035,0.00,VWS V14.01,2013-06-23 16:25:00,
2013-06-23 12:26:00,83.8,77.3,30.16,ESE,107,5.0,7.0,81,0.00,,BKN035,0.00,VWS V14.01,2013-06-23 16:26:00,
2013-06-23 12:27:00,83.8,77.3,30.16,East,86,4.0,4.0,81,0.00,,CLR,0.00,VWS V14.01,2013-06-23 16:27:00,
2013-06-23 12:28:00,83.8,77.3,30.16,East,95,4.0,4.0,81,0.00,,BKN035,0.00,VWS V14.01,2013-06-23 16:28:00,
2013-06-23 12:29:00,83.8,77.3,30.16,East,101,4.0,5.0,81,0.00,,BKN035,0.00,VWS V14.01,2013-06-23 16:29:00,
2013-06-23 12:30:00,84.0,77.9,30.16,East,98,3.0,7.0,82,0.00,,BKN035,0.00,VWS V14.01,2013-06-23 16:30:00,
2013-06-23 12:31:00,84.1,78.0,30.16,East,98,4.0,4.0,82,0.00,,BKN035,0.00,VWS V14.01,2013-06-23 16:31:00,
2013-06-23 12:32:00,84.1,77.6,30.16,East,98,6.0,7.0,81,0.00,,CLR,0.00,VWS V14.01,2013-06-23 16:32:00,
2013-06-23 12:33:00,84.1,77.3,30.16,ESE,102,6.0,7.0,80,0.00,,BKN035,0.00,VWS V14.01,2013-06-23 16:33:00,
2013-06-23 12:34:00,84.0,77.2,30.16,ESE,105,6.0,6.0,80,0.00,,BKN035,0.00,VWS V14.01,2013-06-23 16:34:00,
2013-06-23 12:35:00,84.0,77.5,30.16,East,99,3.0,7.0,81,0.00,,BKN035,0.00,VWS V14.01,2013-06-23 16:35:00,
2013-06-23 12:36:00,84.0,77.9,30.16,East,99,5.0,5.0,82,0.00,,BKN035,0.00,VWS V14.01,2013-06-23 16:36:00,
2013-06-23 12:37:00,83.8,77.3,30.16,East,101,6.0,9.0,81,0.00,,CLR,0.00,VWS V14.01,2013-06-23 16:37:00,
2013-06-23 12:38:00,83.8,77.3,30.16,East,101,6.0,9.0,81,0.00,,BKN035,0.00,VWS V14.01,2013-06-23 16:38:00,
2013-06-23 12:39:00,83.6,77.5,30.16,East,101,6.0,7.0,82,0.00,,BKN035,0.00,VWS V14.01,2013-06-23 16:39:00,
2013-06-23 12:40:00,83.6,77.2,30.16,East,98,7.0,7.0,81,0.00,,BKN035,0.00,VWS V14.01,2013-06-23 16:40:00,
2013-06-23 12:41:00,83.4,77.0,30.16,ESE,110,6.0,8.0,81,0.00,,BKN035,0.00,VWS V14.01,2013-06-23 16:41:00,
2013-06-23 12:42:00,83.4,77.0,30.16,East,99,4.0,7.0,81,0.00,,CLR,0.00,VWS V14.01,2013-06-23 16:42:00,
2013-06-23 12:43:00,83.4,77.0,30.16,ESE,103,4.0,8.0,81,0.00,,BKN035,0.00,VWS V14.01,2013-06-23 16:43:00,
2013-06-23 12:44:00,83.4,77.3,30.17,ESE,102,9.0,9.0,82,0.00,,BKN035,0.00,VWS V14.01,2013-06-23 16:44:00,
2013-06-23 12:45:00,83.4,77.3,30.16,ESE,105,7.0,9.0,82,0.00,,BKN035,0.00,VWS V14.01,2013-06-23 16:45:00,
2013-06-23 12:46:00,83.4,77.3,30.16,ESE,105,7.0,7.0,82,0.00,,BKN035,0.00,VWS V14.01,2013-06-23 16:46:00,
2013-06-23 12:47:00,83.4,77.7,30.16,East,95,5.0,6.0,83,0.00,,CLR,0.00,VWS V14.01,2013-06-23 16:47:00,
2013-06-23 12:48:00,83.4,77.7,30.16,ESE,103,6.0,6.0,83,0.00,,BKN035,0.00,VWS V14.01,2013-06-23 16:48:00,
2013-06-23 12:49:00,83.4,77.3,30.16,East,101,6.0,7.0,82,0.00,,BKN035,0.00,VWS V14.01,2013-06-23 16:49:00,
2013-06-23 12:50:00,83.4,77.3,30.16,East,99,5.0,8.0,82,0.00,,BKN035,0.00,VWS V14.01,2013-06-23 16:50:00,
2013-06-23 12:51:00,83.4,77.7,30.16,East,91,7.0,7.0,83,0.00,,BKN035,0.00,VWS V14.01,2013-06-23 16:51:00,
2013-06-23 12:52:00,83.4,77.7,30.16,ESE,102,7.0,7.0,83,0.00,,CLR,0.00,VWS V14.01,2013-06-23 16:52:00,
2013-06-23 12:53:00,83.4,77.7,30.16,East,90,5.0,7.0,83,0.00,,BKN035,0.00,VWS V14.01,2013-06-23 16:53:00,
2013-06-23 12:54:00,83.4,77.7,30.16,East,101,6.0,7.0,83,0.00,,BKN035,0.00,VWS V14.01,2013-06-23 16:54:00,
2013-06-23 12:55:00,83.6,77.9,30.16,ESE,103,6.0,7.0,83,0.00,,BKN035,0.00,VWS V14.01,2013-06-23 16:55:00,
2013-06-23 12:56:00,83.4,77.7,30.16,East,100,8.0,9.0,83,0.00,,BKN035,0.00,VWS V14.01,2013-06-23 16:56:00,
2013-06-23 12:57:00,83.4,77.7,30.16,ESE,104,6.0,9.0,83,0.00,,CLR,0.00,VWS V14.01,2013-06-23 16:57:00,
2013-06-23 12:58:00,83.4,77.7,30.16,ESE,106,9.0,9.0,83,0.00,,BKN035,0.00,VWS V14.01,2013-06-23 16:58:00,
2013-06-23 12:59:00,83.4,77.7,30.16,East,95,5.0,9.0,83,0.00,,BKN035,0.00,VWS V14.01,2013-06-23 16:59:00,
2013-06-23 13:00:00,83.4,77.7,30.16,East,92,7.0,8.0,83,0.00,,BKN035,0.00,VWS V14.01,2013-06-23 17:00:00,
2013-06-23 13:01:00,83.4,77.3,30.16,East,92,8.0,8.0,82,0.00,,BKN035,0.00,VWS V14.01,2013-06-23 17:01:00,
2013-06-23 13:02:00,83.6,77.9,30.15,East,95,6.0,6.0,83,0.00,,CLR,0.00,VWS V14.01,2013-06-23 17:02:00,
2013-06-23 13:03:00,83.6,77.9,30.15,East,98,6.0,11.0,83,0.00,,BKN035,0.00,VWS V14.01,2013-06-23 17:03:00,
2013-06-23 13:04:00,83.4,77.3,30.15,East,96,7.0,7.0,82,0.00,,BKN035,0.00,VWS V14.01,2013-06-23 17:04:00,
2013-06-23 13:05:00,83.4,77.7,30.15,East,94,10.0,10.0,83,0.00,,BKN035,0.00,VWS V14.01,2013-06-23 17:05:00,
2013-06-23 13:06:00,83.6,77.9,30.15,East,99,6.0,10.0,83,0.00,,BKN035,0.00,VWS V14.01,2013-06-23 17:06:00,
2013-06-23 13:07:00,83.8,78.4,30.15,East,98,6.0,6.0,84,0.00,,BKN035,0.00,VWS V14.01,2013-06-23 17:07:00,
2013-06-23 13:08:00,83.6,77.5,30.15,East,95,3.0,5.0,82,0.00,,CLR,0.00,VWS V14.01,2013-06-23 17:08:00,
2013-06-23 13:09:00,83.6,77.9,30.15,East,90,5.0,5.0,83,0.00,,BKN035,0.00,VWS V14.01,2013-06-23 17:09:00,
2013-06-23 13:10:00,83.6,77.5,30.15,East,99,5.0,6.0,82,0.00,,BKN035,0.00,VWS V14.01,2013-06-23 17:10:00,
2013-06-23 13:11:00,83.6,77.5,30.15,East,94,7.0,7.0,82,0.00,,BKN035,0.00,VWS V14.01,2013-06-23 17:11:00,
2013-06-23 13:12:00,83.6,77.5,30.15,East,98,4.0,9.0,82,0.00,,BKN035,0.00,VWS V14.01,2013-06-23 17:12:00,
2013-06-23 13:13:00,83.6,77.2,30.15,East,100,4.0,4.0,81,0.00,,CLR,0.00,VWS V14.01,2013-06-23 17:13:00,
2013-06-23 13:14:00,83.6,77.9,30.15,East,101,5.0,5.0,83,0.00,,BKN035,0.00,VWS V14.01,2013-06-23 17:14:00,
2013-06-23 13:15:00,83.6,77.5,30.15,East,94,5.0,5.0,82,0.00,,BKN035,0.00,VWS V14.01,2013-06-23 17:15:00,
2013-06-23 13:16:00,83.8,78.1,30.15,ESE,104,7.0,7.0,83,0.00,,BKN035,0.00,VWS V14.01,2013-06-23 17:16:00,
2013-06-23 13:17:00,83.8,77.3,30.15,ESE,107,4.0,5.0,81,0.00,,CLR,0.00,VWS V14.01,2013-06-23 17:17:00,
2013-06-23 13:18:00,83.8,77.3,30.15,East,97,5.0,5.0,81,0.00,,BKN035,0.00,VWS V14.01,2013-06-23 17:18:00,
2013-06-23 13:19:00,84.0,77.9,30.15,East,98,3.0,5.0,82,0.00,,BKN035,0.00,VWS V14.01,2013-06-23 17:19:00,
2013-06-23 13:20:00,84.0,77.5,30.15,East,98,5.0,7.0,81,0.00,,BKN035,0.00,VWS V14.01,2013-06-23 17:20:00,
2013-06-23 13:21:00,83.8,77.3,30.15,ESE,103,6.0,9.0,81,0.00,,BKN035,0.00,VWS V14.01,2013-06-23 17:21:00,
2013-06-23 13:22:00,83.6,77.2,30.15,East,100,8.0,8.0,81,0.00,,CLR,0.00,VWS V14.01,2013-06-23 17:22:00,
2013-06-23 13:23:00,83.8,77.3,30.15,ESE,105,6.0,7.0,81,0.00,,BKN035,0.00,VWS V14.01,2013-06-23 17:23:00,
2013-06-23 13:24:00,83.6,77.2,30.15,ESE,109,7.0,8.0,81,0.00,,BKN035,0.00,VWS V14.01,2013-06-23 17:24:00,
2013-06-23 13:25:00,83.6,77.5,30.15,East,99,7.0,9.0,82,0.00,,BKN035,0.00,VWS V14.01,2013-06-23 17:25:00,
2013-06-23 13:26:00,83.4,77.0,30.15,East,93,7.0,7.0,81,0.00,,BKN035,0.00,VWS V14.01,2013-06-23 17:26:00,
2013-06-23 13:27:00,83.6,77.5,30.16,East,97,6.0,6.0,82,0.00,,CLR,0.00,VWS V14.01,2013-06-23 17:27:00,
2013-06-23 13:28:00,83.4,77.3,30.16,East,96,5.0,7.0,82,0.00,,BKN035,0.00,VWS V14.01,2013-06-23 17:28:00,
2013-06-23 13:29:00,83.6,77.5,30.16,ESE,119,5.0,6.0,82,0.00,,BKN035,0.00,VWS V14.01,2013-06-23 17:29:00,
2013-06-23 13:30:00,83.6,77.9,30.16,East,96,6.0,6.0,83,0.00,,BKN035,0.00,VWS V14.01,2013-06-23 17:30:00,
2013-06-23 13:31:00,83.6,77.5,30.16,East,101,8.0,8.0,82,0.00,,BKN035,0.00,VWS V14.01,2013-06-23 17:31:00,
2013-06-23 13:32:00,83.4,77.3,30.16,East,93,5.0,6.0,82,0.00,,CLR,0.00,VWS V14.01,2013-06-23 17:32:00,
2013-06-23 13:33:00,83.4,77.3,30.16,ENE,75,6.0,6.0,82,0.00,,BKN035,0.00,VWS V14.01,2013-06-23 17:33:00,
2013-06-23 13:34:00,83.4,77.3,30.16,East,91,4.0,6.0,82,0.00,,BKN035,0.00,VWS V14.01,2013-06-23 17:34:00,
2013-06-23 13:35:00,83.6,77.5,30.16,ESE,103,4.0,7.0,82,0.00,,BKN035,0.00,VWS V14.01,2013-06-23 17:35:00,
2013-06-23 13:36:00,83.6,77.5,30.16,East,90,6.0,6.0,82,0.00,,BKN035,0.00,VWS V14.01,2013-06-23 17:36:00,
2013-06-23 13:37:00,83.6,77.9,30.15,ESE,103,8.0,8.0,83,0.00,,FEW050,0.00,VWS V14.01,2013-06-23 17:37:00,
2013-06-23 13:38:00,83.6,77.5,30.15,East,101,7.0,9.0,82,0.00,,BKN035,0.00,VWS V14.01,2013-06-23 17:38:00,
2013-06-23 13:39:00,83.6,77.9,30.15,ESE,104,6.0,9.0,83,0.00,,BKN035,0.00,VWS V14.01,2013-06-23 17:39:00,
2013-06-23 13:40:00,83.4,77.3,30.15,ESE,104,6.0,9.0,82,0.00,,BKN035,0.00,VWS V14.01,2013-06-23 17:40:00,
2013-06-23 13:41:00,83.4,77.7,30.15,East,87,10.0,10.0,83,0.00,,BKN035,0.00,VWS V14.01,2013-06-23 17:41:00,
2013-06-23 13:42:00,83.2,77.5,30.15,ESE,105,8.0,8.0,83,0.00,,FEW050,0.00,VWS V14.01,2013-06-23 17:42:00,
2013-06-23 13:43:00,83.2,77.1,30.15,ESE,103,5.0,11.0,82,0.00,,BKN035,0.00,VWS V14.01,2013-06-23 17:43:00,
2013-06-23 13:44:00,83.0,77.3,30.15,ESE,104,7.0,8.0,83,0.00,,BKN035,0.00,VWS V14.01,2013-06-23 17:44:00,
2013-06-23 13:45:00,83.0,77.3,30.15,East,97,6.0,9.0,83,0.00,,BKN035,0.00,VWS V14.01,2013-06-23 17:45:00,
2013-06-23 13:46:00,83.0,77.7,30.15,East,97,5.0,7.0,84,0.00,,BKN035,0.00,VWS V14.01,2013-06-23 17:46:00,
2013-06-23 13:47:00,83.0,77.3,30.15,ESE,103,5.0,6.0,83,0.00,,FEW050,0.00,VWS V14.01,2013-06-23 17:47:00,
2013-06-23 13:48:00,83.0,77.3,30.15,East,94,6.0,8.0,83,0.00,,BKN035,0.00,VWS V14.01,2013-06-23 17:48:00,
2013-06-23 13:49:00,83.0,77.3,30.15,ESE,108,5.0,6.0,83,0.00,,BKN035,0.00,VWS V14.01,2013-06-23 17:49:00,
2013-06-23 13:50:00,83.0,77.3,30.15,ESE,103,7.0,9.0,83,0.00,,BKN035,0.00,VWS V14.01,2013-06-23 17:50:00,
2013-06-23 13:51:00,83.2,77.5,30.15,East,90,8.0,10.0,83,0.00,,BKN035,0.00,VWS V14.01,2013-06-23 17:51:00,
2013-06-23 13:52:00,83.4,77.7,30.15,East,101,7.0,7.0,83,0.00,,FEW050,0.00,VWS V14.01,2013-06-23 17:52:00,
2013-06-23 13:53:00,83.4,77.7,30.15,ESE,107,7.0,7.0,83,0.00,,BKN035,0.00,VWS V14.01,2013-06-23 17:53:00,
2013-06-23 13:54:00,83.4,77.7,30.15,East,95,5.0,10.0,83,0.00,,BKN035,0.00,VWS V14.01,2013-06-23 17:54:00,
2013-06-23 13:55:00,83.2,77.5,30.15,ESE,103,6.0,6.0,83,0.00,,BKN035,0.00,VWS V14.01,2013-06-23 17:55:00,
2013-06-23 13:56:00,83.2,77.5,30.15,East,99,5.0,6.0,83,0.00,,BKN035,0.00,VWS V14.01,2013-06-23 17:56:00,
2013-06-23 13:57:00,83.4,77.7,30.15,ESE,104,7.0,7.0,83,0.00,,FEW050,0.00,VWS V14.01,2013-06-23 17:57:00,
2013-06-23 13:58:00,83.4,77.7,30.15,ESE,105,6.0,10.0,83,0.00,,BKN035,0.00,VWS V14.01,2013-06-23 17:58:00,
2013-06-23 13:59:00,83.4,77.7,30.15,ESE,111,9.0,9.0,83,0.00,,BKN035,0.00,VWS V14.01,2013-06-23 17:59:00,
2013-06-23 14:00:00,83.4,77.3,30.15,East,99,6.0,9.0,82,0.00,,BKN035,0.00,VWS V14.01,2013-06-23 18:00:00,
2013-06-23 14:01:00,83.2,77.1,30.15,ESE,104,10.0,11.0,82,0.00,,BKN035,0.00,VWS V14.01,2013-06-23 18:01:00,
2013-06-23 14:02:00,83.2,77.1,30.14,ESE,103,5.0,9.0,82,0.00,,FEW050,0.00,VWS V14.01,2013-06-23 18:02:00,
2013-06-23 14:03:00,83.2,77.1,30.14,ESE,107,9.0,9.0,82,0.00,,BKN035,0.00,VWS V14.01,2013-06-23 18:03:00,
2013-06-23 14:04:00,83.2,77.1,30.14,East,100,5.0,9.0,82,0.00,,BKN035,0.00,VWS V14.01,2013-06-23 18:04:00,
2013-06-23 14:05:00,83.2,77.1,30.14,ESE,103,9.0,9.0,82,0.00,,BKN035,0.00,VWS V14.01,2013-06-23 18:05:00,
2013-06-23 14:06:00,83.2,77.1,30.14,East,82,6.0,9.0,82,0.00,,BKN035,0.00,VWS V14.01,2013-06-23 18:06:00,
2013-06-23 14:07:00,83.2,76.8,30.14,East,92,5.0,5.0,81,0.00,,FEW050,0.00,VWS V14.01,2013-06-23 18:07:00,
2013-06-23 14:08:00,83.2,76.8,30.14,East,96,3.0,7.0,81,0.00,,BKN035,0.00,VWS V14.01,2013-06-23 18:08:00,
2013-06-23 14:09:00,83.2,76.8,30.14,East,98,7.0,7.0,81,0.00,,BKN035,0.00,VWS V14.01,2013-06-23 18:09:00,
2013-06-23 14:10:00,83.2,76.8,30.14,ESE,103,7.0,7.0,81,0.00,,BKN035,0.00,VWS V14.01,2013-06-23 18:10:00,
2013-06-23 14:11:00,83.0,76.9,30.14,ESE,107,4.0,7.0,82,0.00,,BKN035,0.00,VWS V14.01,2013-06-23 18:11:00,
2013-06-23 14:12:00,83.0,76.9,30.14,East,101,6.0,7.0,82,0.00,,FEW050,0.00,VWS V14.01,2013-06-23 18:12:00,
2013-06-23 14:13:00,83.0,76.9,30.14,ESE,110,7.0,7.0,82,0.00,,BKN035,0.00,VWS V14.01,2013-06-23 18:13:00,
2013-06-23 14:14:00,83.0,76.9,30.14,ESE,119,7.0,7.0,82,0.00,,BKN035,0.00,VWS V14.01,2013-06-23 18:14:00,
2013-06-23 14:15:00,83.2,77.1,30.14,ESE,113,7.0,7.0,82,0.00,,BKN035,0.00,VWS V14.01,2013-06-23 18:15:00,
2013-06-23 14:16:00,83.0,76.9,30.14,ESE,115,7.0,7.0,82,0.00,,BKN035,0.00,VWS V14.01,2013-06-23 18:16:00,
2013-06-23 14:17:00,83.2,77.1,30.13,ESE,102,6.0,6.0,82,0.00,,FEW050,0.00,VWS V14.01,2013-06-23 18:17:00,
2013-06-23 14:18:00,83.2,77.1,30.14,ESE,103,6.0,7.0,82,0.00,,BKN035,0.00,VWS V14.01,2013-06-23 18:18:00,
2013-06-23 14:19:00,83.2,77.1,30.13,ESE,103,5.0,9.0,82,0.00,,BKN035,0.00,VWS V14.01,2013-06-23 18:19:00,
2013-06-23 14:20:00,83.2,77.1,30.13,ESE,107,6.0,8.0,82,0.00,,BKN035,0.00,VWS V14.01,2013-06-23 18:20:00,
2013-06-23 14:21:00,83.2,77.1,30.13,ESE,104,3.0,6.0,82,0.00,,BKN035,0.00,VWS V14.01,2013-06-23 18:21:00,
2013-06-23 14:22:00,83.2,77.1,30.13,ESE,107,7.0,7.0,82,0.00,,FEW050,0.00,VWS V14.01,2013-06-23 18:22:00,
2013-06-23 14:23:00,83.2,77.1,30.13,ESE,108,6.0,6.0,82,0.00,,BKN035,0.00,VWS V14.01,2013-06-23 18:23:00,
2013-06-23 14:24:00,83.2,77.1,30.13,ESE,110,6.0,8.0,82,0.00,,BKN035,0.00,VWS V14.01,2013-06-23 18:24:00,
2013-06-23 14:25:00,83.2,77.1,30.13,ESE,109,9.0,9.0,82,0.00,,BKN035,0.00,VWS V14.01,2013-06-23 18:25:00,
2013-06-23 14:26:00,83.2,77.1,30.13,ESE,108,6.0,9.0,82,0.00,,BKN035,0.00,VWS V14.01,2013-06-23 18:26:00,
2013-06-23 14:27:00,83.2,77.5,30.13,East,101,6.0,6.0,83,0.00,,FEW050,0.00,VWS V14.01,2013-06-23 18:27:00,
2013-06-23 14:28:00,83.2,77.5,30.13,East,92,6.0,6.0,83,0.00,,BKN035,0.00,VWS V14.01,2013-06-23 18:28:00,
2013-06-23 14:29:00,83.2,77.5,30.13,ESE,110,4.0,6.0,83,0.00,,BKN035,0.00,VWS V14.01,2013-06-23 18:29:00,
2013-06-23 14:30:00,83.2,77.5,30.13,ESE,103,8.0,8.0,83,0.00,,BKN035,0.00,VWS V14.01,2013-06-23 18:30:00,
2013-06-23 14:31:00,83.2,77.5,30.13,ESE,106,5.0,9.0,83,0.00,,BKN035,0.00,VWS V14.01,2013-06-23 18:31:00,
2013-06-23 14:32:00,83.0,77.3,30.13,East,100,5.0,5.0,83,0.00,,FEW050,0.00,VWS V14.01,2013-06-23 18:32:00,
2013-06-23 14:33:00,83.0,77.3,30.13,ESE,102,5.0,7.0,83,0.00,,BKN035,0.00,VWS V14.01,2013-06-23 18:33:00,
2013-06-23 14:34:00,83.0,77.3,30.13,East,100,7.0,7.0,83,0.00,,BKN035,0.00,VWS V14.01,2013-06-23 18:34:00,
2013-06-23 14:35:00,83.0,76.9,30.13,ESE,107,6.0,10.0,82,0.00,,BKN035,0.00,VWS V14.01,2013-06-23 18:35:00,
2013-06-23 14:36:00,82.8,76.8,30.08,ESE,110,8.0,8.0,82,0.00,,BKN035,0.00,VWS V14.01,2013-06-23 18:36:00,
2013-06-23 14:37:00,82.8,77.1,30.08,East,100,6.0,6.0,83,0.00,,FEW039,0.00,VWS V14.01,2013-06-23 18:37:00,
2013-06-23 14:38:00,82.8,77.1,30.08,ESE,112,6.0,8.0,83,0.00,,BKN035,0.00,VWS V14.01,2013-06-23 18:38:00,
2013-06-23 14:39:00,82.8,77.1,30.08,ESE,104,7.0,7.0,83,0.00,,BKN035,0.00,VWS V14.01,2013-06-23 18:39:00,
2013-06-23 14:40:00,82.8,77.1,30.08,East,95,5.0,7.0,83,0.00,,BKN035,0.00,VWS V14.01,2013-06-23 18:40:00,
2013-06-23 14:41:00,82.8,77.1,30.08,ESE,105,6.0,6.0,83,0.00,,BKN035,0.00,VWS V14.01,2013-06-23 18:41:00,
2013-06-23 14:42:00,82.8,76.8,30.08,ESE,102,7.0,7.0,82,0.00,,FEW039,0.00,VWS V14.01,2013-06-23 18:42:00,
2013-06-23 14:43:00,82.8,76.8,30.08,ESE,111,6.0,6.0,82,0.00,,BKN035,0.00,VWS V14.01,2013-06-23 18:43:00,
2013-06-23 14:44:00,82.8,76.8,30.08,ESE,105,5.0,7.0,82,0.00,,BKN035,0.00,VWS V14.01,2013-06-23 18:44:00,
2013-06-23 14:45:00,82.8,76.4,30.08,East,98,6.0,7.0,81,0.00,,BKN035,0.00,VWS V14.01,2013-06-23 18:45:00,
2013-06-23 14:46:00,82.8,76.8,30.08,East,99,5.0,6.0,82,0.00,,BKN035,0.00,VWS V14.01,2013-06-23 18:46:00,
2013-06-23 14:47:00,82.8,76.4,30.08,ESE,116,7.0,7.0,81,0.00,,FEW039,0.00,VWS V14.01,2013-06-23 18:47:00,
2013-06-23 14:48:00,82.8,76.4,30.08,East,83,6.0,9.0,81,0.00,,BKN035,0.00,VWS V14.01,2013-06-23 18:48:00,
2013-06-23 14:49:00,82.8,76.4,30.08,East,96,7.0,8.0,81,0.00,,BKN035,0.00,VWS V14.01,2013-06-23 18:49:00,
2013-06-23 14:50:00,82.8,76.8,30.08,ESE,107,3.0,7.0,82,0.00,,BKN035,0.00,VWS V14.01,2013-06-23 18:50:00,
2013-06-23 14:51:00,82.8,76.8,30.08,ESE,107,7.0,9.0,82,0.00,,BKN035,0.00,VWS V14.01,2013-06-23 18:51:00,
2013-06-23 14:52:00,82.6,76.2,30.08,ESE,105,7.0,7.0,81,0.00,,FEW039,0.00,VWS V14.01,2013-06-23 18:52:00,
2013-06-23 14:53:00,82.8,76.4,30.08,East,101,7.0,10.0,81,0.00,,BKN035,0.00,VWS V14.01,2013-06-23 18:53:00,
2013-06-23 14:54:00,82.6,76.6,30.08,East,97,9.0,9.0,82,0.00,,BKN035,0.00,VWS V14.01,2013-06-23 18:54:00,
2013-06-23 14:55:00,82.6,76.6,30.00,ESE,110,6.0,10.0,82,0.00,,BKN035,0.00,VWS V14.01,2013-06-23 18:55:00,
2013-06-23 14:56:00,82.6,76.6,30.00,East,101,5.0,7.0,82,0.00,,BKN035,0.00,VWS V14.01,2013-06-23 18:56:00,
2013-06-23 14:57:00,82.4,76.4,30.00,ESE,105,5.0,6.0,82,0.00,,FEW039,0.00,VWS V14.01,2013-06-23 18:57:00,
2013-06-23 14:58:00,82.4,76.4,30.00,East,100,6.0,6.0,82,0.00,,BKN035,0.00,VWS V14.01,2013-06-23 18:58:00,
2013-06-23 14:59:00,82.4,76.4,30.00,East,98,6.0,6.0,82,0.00,,BKN035,0.00,VWS V14.01,2013-06-23 18:59:00,
2013-06-23 15:00:00,82.4,76.7,30.00,East,101,9.0,9.0,83,0.00,,BKN035,0.00,VWS V14.01,2013-06-23 19:00:00,
2013-06-23 15:01:00,82.4,76.7,30.00,ESE,105,7.0,9.0,83,0.00,,BKN035,0.00,VWS V14.01,2013-06-23 19:01:00,
2013-06-23 15:02:00,82.6,76.9,30.00,East,85,4.0,5.0,83,0.00,,FEW039,0.00,VWS V14.01,2013-06-23 19:02:00,
2013-06-23 15:03:00,82.6,77.3,30.00,ENE,78,5.0,6.0,84,0.00,,BKN035,0.00,VWS V14.01,2013-06-23 19:03:00,
2013-06-23 15:04:00,82.6,76.9,30.00,ESE,109,5.0,5.0,83,0.00,,BKN035,0.00,VWS V14.01,2013-06-23 19:04:00,
2013-06-23 15:05:00,82.6,76.9,29.95,ESE,103,5.0,6.0,83,0.00,,BKN035,0.00,VWS V14.01,2013-06-23 19:05:00,
2013-06-23 15:06:00,82.8,77.5,29.94,ESE,103,5.0,5.0,84,0.00,,BKN035,0.00,VWS V14.01,2013-06-23 19:06:00,
2013-06-23 15:07:00,83.0,77.3,29.81,East,95,5.0,5.0,83,0.00,,FEW039,0.00,VWS V14.01,2013-06-23 19:07:00,
2013-06-23 15:08:00,83.0,77.7,29.94,East,92,3.0,6.0,84,0.00,,BKN035,0.00,VWS V14.01,2013-06-23 19:08:00,
2013-06-23 15:09:00,83.0,77.3,29.81,East,98,3.0,5.0,83,0.00,,BKN035,0.00,VWS V14.01,2013-06-23 19:09:00,
2013-06-23 15:10:00,83.0,76.9,29.81,East,96,5.0,6.0,82,0.00,,BKN035,0.00,VWS V14.01,2013-06-23 19:10:00,
2013-06-23 15:11:00,83.0,76.9,29.81,ESE,103,5.0,5.0,82,0.00,,BKN035,0.00,VWS V14.01,2013-06-23 19:11:00,
2013-06-23 15:12:00,83.0,76.9,29.81,ESE,102,6.0,6.0,82,0.00,,BKN035,0.00,VWS V14.01,2013-06-23 19:12:00,
2013-06-23 15:13:00,83.0,76.9,29.81,ESE,103,6.0,6.0,82,0.00,,FEW039,0.00,VWS V14.01,2013-06-23 19:13:00,
2013-06-23 15:14:00,83.0,76.9,29.81,ESE,102,6.0,8.0,82,0.00,,BKN035,0.00,VWS V14.01,2013-06-23 19:14:00,
2013-06-23 15:15:00,82.8,76.8,29.81,East,99,5.0,9.0,82,0.00,,BKN035,0.00,VWS V14.01,2013-06-23 19:15:00,
2013-06-23 15:16:00,82.6,76.2,29.81,East,94,4.0,5.0,81,0.00,,BKN035,0.00,VWS V14.01,2013-06-23 19:16:00,
2013-06-23 15:17:00,82.8,77.1,29.81,ESE,111,4.0,4.0,83,0.00,,FEW039,0.00,VWS V14.01,2013-06-23 19:17:00,
2013-06-23 15:18:00,82.8,77.1,29.81,ESE,112,4.0,5.0,83,0.00,,BKN035,0.00,VWS V14.01,2013-06-23 19:18:00,
2013-06-23 15:19:00,82.8,76.8,29.81,ESE,106,3.0,4.0,82,0.00,,BKN035,0.00,VWS V14.01,2013-06-23 19:19:00,
2013-06-23 15:20:00,82.8,77.1,29.81,ESE,103,3.0,5.0,83,0.00,,BKN035,0.00,VWS V14.01,2013-06-23 19:20:00,
2013-06-23 15:21:00,82.8,77.1,29.81,ESE,108,5.0,7.0,83,0.00,,BKN035,0.00,VWS V14.01,2013-06-23 19:21:00,
2013-06-23 15:22:00,82.8,76.8,29.81,ESE,108,5.0,5.0,82,0.00,,FEW039,0.00,VWS V14.01,2013-06-23 19:22:00,
2013-06-23 15:23:00,82.8,76.8,29.81,ESE,110,3.0,5.0,82,0.00,,BKN035,0.00,VWS V14.01,2013-06-23 19:23:00,
2013-06-23 15:24:00,82.6,76.6,29.81,East,89,6.0,6.0,82,0.00,,BKN035,0.00,VWS V14.01,2013-06-23 19:24:00,
2013-06-23 15:25:00,82.6,76.6,29.81,East,96,3.0,6.0,82,0.00,,BKN035,0.00,VWS V14.01,2013-06-23 19:25:00,
2013-06-23 15:26:00,82.8,76.8,29.81,East,98,6.0,6.0,82,0.00,,BKN035,0.00,VWS V14.01,2013-06-23 19:26:00,
2013-06-23 15:27:00,82.8,76.8,30.11,East,96,5.0,5.0,82,0.00,,FEW039,0.00,VWS V14.01,2013-06-23 19:27:00,
2013-06-23 15:28:00,82.8,76.8,30.11,NE,56,4.0,4.0,82,0.00,,BKN035,0.00,VWS V14.01,2013-06-23 19:28:00,
2013-06-23 15:29:00,83.0,76.9,30.11,East,96,2.0,5.0,82,0.00,,BKN035,0.00,VWS V14.01,2013-06-23 19:29:00,
2013-06-23 15:30:00,83.2,77.1,30.11,ENE,72,2.0,4.0,82,0.00,,BKN035,0.00,VWS V14.01,2013-06-23 19:30:00,
2013-06-23 15:31:00,83.2,76.8,30.11,East,97,4.0,7.0,81,0.00,,BKN035,0.00,VWS V14.01,2013-06-23 19:31:00,
2013-06-23 15:32:00,83.0,76.6,30.11,East,90,8.0,8.0,81,0.00,,FEW039,0.00,VWS V14.01,2013-06-23 19:32:00,
2013-06-23 15:33:00,83.2,76.8,30.11,East,92,5.0,6.0,81,0.00,,BKN035,0.00,VWS V14.01,2013-06-23 19:33:00,
2013-06-23 15:34:00,83.0,76.6,30.11,ESE,105,6.0,8.0,81,0.00,,BKN035,0.00,VWS V14.01,2013-06-23 19:34:00,
2013-06-23 15:35:00,83.0,76.9,30.11,ESE,109,5.0,6.0,82,0.00,,BKN035,0.00,VWS V14.01,2013-06-23 19:35:00,
2013-06-23 15:36:00,82.8,76.8,30.11,East,98,8.0,11.0,82,0.00,,BKN035,0.00,VWS V14.01,2013-06-23 19:36:00,
2013-06-23 15:37:00,82.8,77.1,30.11,East,88,7.0,10.0,83,0.00,,FEW038,0.00,VWS V14.01,2013-06-23 19:37:00,
2013-06-23 15:38:00,82.8,77.1,30.11,ENE,76,10.0,11.0,83,0.00,,BKN035,0.00,VWS V14.01,2013-06-23 19:38:00,
2013-06-23 15:39:00,82.6,76.9,30.11,East,90,5.0,10.0,83,0.00,,BKN035,0.00,VWS V14.01,2013-06-23 19:39:00,
2013-06-23 15:40:00,82.6,76.9,30.11,ESE,106,7.0,9.0,83,0.00,,BKN035,0.00,VWS V14.01,2013-06-23 19:40:00,
2013-06-23 15:41:00,82.6,77.3,30.11,East,98,7.0,11.0,84,0.00,,BKN035,0.00,VWS V14.01,2013-06-23 19:41:00,
2013-06-23 15:42:00,82.6,76.9,30.11,East,100,5.0,12.0,83,0.00,,FEW038,0.00,VWS V14.01,2013-06-23 19:42:00,
2013-06-23 15:43:00,82.6,77.3,30.11,ESE,104,12.0,12.0,84,0.00,,BKN035,0.00,VWS V14.01,2013-06-23 19:43:00,
2013-06-23 15:44:00,82.6,76.9,30.11,East,95,5.0,12.0,83,0.00,,BKN035,0.00,VWS V14.01,2013-06-23 19:44:00,
2013-06-23 15:45:00,82.6,77.3,30.11,East,93,4.0,7.0,84,0.00,,BKN035,0.00,VWS V14.01,2013-06-23 19:45:00,
2013-06-23 15:46:00,82.6,76.9,30.11,East,98,6.0,6.0,83,0.00,,BKN035,0.00,VWS V14.01,2013-06-23 19:46:00,
2013-06-23 15:47:00,82.6,76.9,30.11,East,101,6.0,6.0,83,0.00,,FEW038,0.00,VWS V14.01,2013-06-23 19:47:00,
2013-06-23 15:48:00,82.6,76.9,30.11,East,99,6.0,9.0,83,0.00,,BKN035,0.00,VWS V14.01,2013-06-23 19:48:00,
2013-06-23 15:49:00,82.6,77.3,30.11,ESE,103,7.0,9.0,84,0.00,,BKN035,0.00,VWS V14.01,2013-06-23 19:49:00,
2013-06-23 15:50:00,82.6,77.3,30.12,East,92,3.0,7.0,84,0.00,,BKN035,0.00,VWS V14.01,2013-06-23 19:50:00,
2013-06-23 15:51:00,82.6,76.9,30.11,ESE,112,3.0,6.0,83,0.00,,BKN035,0.00,VWS V14.01,2013-06-23 19:51:00,
2013-06-23 15:52:00,82.4,76.4,30.11,East,100,8.0,8.0,82,0.00,,FEW038,0.00,VWS V14.01,2013-06-23 19:52:00,
2013-06-23 15:53:00,82.4,76.7,30.12,East,99,8.0,10.0,83,0.00,,BKN035,0.00,VWS V14.01,2013-06-23 19:53:00,
2013-06-23 15:54:00,82.4,76.4,30.11,ESE,104,6.0,8.0,82,0.00,,BKN035,0.00,VWS V14.01,2013-06-23 19:54:00,
2013-06-23 15:55:00,82.6,76.9,30.11,ESE,106,6.0,6.0,83,0.00,,BKN035,0.00,VWS V14.01,2013-06-23 19:55:00,
2013-06-23 15:56:00,82.6,77.3,30.11,ESE,103,9.0,11.0,84,0.00,,BKN035,0.00,VWS V14.01,2013-06-23 19:56:00,
2013-06-23 15:57:00,82.6,76.9,30.11,East,96,5.0,6.0,83,0.00,,FEW038,0.00,VWS V14.01,2013-06-23 19:57:00,
2013-06-23 15:58:00,82.6,77.6,30.11,East,94,6.0,10.0,85,0.00,,BKN035,0.00,VWS V14.01,2013-06-23 19:58:00,
2013-06-23 15:59:00,82.6,76.9,30.11,East,101,6.0,7.0,83,0.00,,BKN035,0.00,VWS V14.01,2013-06-23 19:59:00,
2013-06-23 16:00:00,82.4,77.1,30.11,East,98,7.0,9.0,84,0.00,,BKN035,0.00,VWS V14.01,2013-06-23 20:00:00,
2013-06-23 16:01:00,82.4,77.1,30.11,East,95,5.0,8.0,84,0.00,,BKN035,0.00,VWS V14.01,2013-06-23 20:01:00,
2013-06-23 16:02:00,82.4,77.1,30.11,ESE,102,6.0,6.0,84,0.00,,FEW038,0.00,VWS V14.01,2013-06-23 20:02:00,
2013-06-23 16:03:00,82.4,77.1,30.11,East,101,6.0,8.0,84,0.00,,BKN035,0.00,VWS V14.01,2013-06-23 20:03:00,
2013-06-23 16:04:00,82.4,77.1,30.11,ESE,107,5.0,6.0,84,0.00,,BKN035,0.00,VWS V14.01,2013-06-23 20:04:00,
2013-06-23 16:05:00,82.4,77.1,30.11,ESE,103,8.0,10.0,84,0.00,,BKN035,0.00,VWS V14.01,2013-06-23 20:05:00,
2013-06-23 16:06:00,82.4,76.7,30.11,East,86,3.0,8.0,83,0.00,,BKN035,0.00,VWS V14.01,2013-06-23 20:06:00,
2013-06-23 16:07:00,82.6,76.9,29.99,ESE,104,6.0,9.0,83,0.00,,FEW038,0.00,VWS V14.01,2013-06-23 20:07:00,
2013-06-23 16:10:00,82.8,77.5,29.99,ESE,102,5.0,6.0,84,0.00,,BKN035,0.00,VWS V14.01,2013-06-23 20:10:00,
2013-06-23 16:11:00,82.8,77.5,29.99,East,98,5.0,5.0,84,0.00,,BKN035,0.00,VWS V14.01,2013-06-23 20:11:00,
2013-06-23 16:12:00,83.0,77.7,29.99,ESE,103,6.0,6.0,84,0.00,,FEW038,0.00,VWS V14.01,2013-06-23 20:12:00,
2013-06-23 16:13:00,83.0,77.7,29.99,East,100,5.0,6.0,84,0.00,,BKN035,0.00,VWS V14.01,2013-06-23 20:13:00,
2013-06-23 16:14:00,83.2,77.9,29.99,East,100,4.0,7.0,84,0.00,,BKN035,0.00,VWS V14.01,2013-06-23 20:14:00,
2013-06-23 16:15:00,83.2,77.5,29.99,East,97,4.0,6.0,83,0.00,,BKN035,0.00,VWS V14.01,2013-06-23 20:15:00,
2013-06-23 16:16:00,83.2,77.9,29.99,ESE,103,5.0,5.0,84,0.00,,BKN035,0.00,VWS V14.01,2013-06-23 20:16:00,
2013-06-23 16:17:00,83.2,77.9,29.99,East,87,4.0,4.0,84,0.00,,FEW038,0.00,VWS V14.01,2013-06-23 20:17:00,
2013-06-23 16:18:00,83.2,77.9,29.99,East,92,4.0,5.0,84,0.00,,BKN035,0.00,VWS V14.01,2013-06-23 20:18:00,
2013-06-23 16:19:00,83.2,77.5,29.99,East,86,3.0,6.0,83,0.00,,BKN035,0.00,VWS V14.01,2013-06-23 20:19:00,
2013-06-23 16:20:00,83.2,77.5,29.99,ESE,105,7.0,7.0,83,0.00,,BKN035,0.00,VWS V14.01,2013-06-23 20:20:00,
2013-06-23 16:21:00,83.2,77.5,29.99,ESE,105,5.0,7.0,83,0.00,,BKN035,0.00,VWS V14.01,2013-06-23 20:21:00,
2013-06-23 16:22:00,83.2,77.5,29.99,East,101,5.0,6.0,83,0.00,,FEW038,0.00,VWS V14.01,2013-06-23 20:22:00,
2013-06-23 16:23:00,83.2,77.5,29.99,East,94,5.0,5.0,83,0.00,,BKN035,0.00,VWS V14.01,2013-06-23 20:23:00,
2013-06-23 16:24:00,83.4,77.7,29.99,ESE,103,3.0,6.0,83,0.00,,BKN035,0.00,VWS V14.01,2013-06-23 20:24:00,
2013-06-23 16:25:00,83.4,77.3,29.99,East,98,4.0,6.0,82,0.00,,BKN035,0.00,VWS V14.01,2013-06-23 20:25:00,
2013-06-23 16:26:00,83.4,77.3,29.99,ESE,110,5.0,5.0,82,0.00,,BKN035,0.00,VWS V14.01,2013-06-23 20:26:00,
2013-06-23 16:27:00,83.2,77.1,30.03,East,98,3.0,7.0,82,0.00,,FEW038,0.00,VWS V14.01,2013-06-23 20:27:00,
2013-06-23 16:28:00,83.2,77.1,30.03,ESE,113,7.0,7.0,82,0.00,,BKN035,0.00,VWS V14.01,2013-06-23 20:28:00,
2013-06-23 16:29:00,83.2,77.1,30.03,East,101,5.0,7.0,82,0.00,,BKN035,0.00,VWS V14.01,2013-06-23 20:29:00,
2013-06-23 16:30:00,83.4,77.3,30.03,ESE,105,6.0,6.0,82,0.00,,BKN035,0.00,VWS V14.01,2013-06-23 20:30:00,
2013-06-23 16:31:00,83.2,77.1,30.03,ESE,107,6.0,6.0,82,0.00,,BKN035,0.00,VWS V14.01,2013-06-23 20:31:00,
2013-06-23 16:32:00,83.2,77.1,30.12,ESE,107,6.0,6.0,82,0.00,,FEW038,0.00,VWS V14.01,2013-06-23 20:32:00,
2013-06-23 16:33:00,83.2,77.1,30.12,ESE,108,5.0,6.0,82,0.00,,BKN035,0.00,VWS V14.01,2013-06-23 20:33:00,
2013-06-23 16:34:00,83.2,77.1,30.12,ESE,107,7.0,7.0,82,0.00,,BKN035,0.00,VWS V14.01,2013-06-23 20:34:00,
2013-06-23 16:35:00,83.0,76.9,30.12,ESE,102,5.0,9.0,82,0.00,,BKN035,0.00,VWS V14.01,2013-06-23 20:35:00,
2013-06-23 16:36:00,83.0,76.9,30.12,ESE,103,6.0,9.0,82,0.00,,BKN035,0.00,VWS V14.01,2013-06-23 20:36:00,
2013-06-23 16:37:00,82.8,77.1,30.12,ESE,103,9.0,9.0,83,0.00,,BKN200,0.00,VWS V14.01,2013-06-23 20:37:00,
2013-06-23 16:38:00,83.0,77.3,30.12,ESE,106,9.0,10.0,83,0.00,,BKN035,0.00,VWS V14.01,2013-06-23 20:38:00,
2013-06-23 16:39:00,82.8,76.8,30.12,ESE,102,6.0,10.0,82,0.00,,BKN035,0.00,VWS V14.01,2013-06-23 20:39:00,
2013-06-23 16:40:00,82.8,77.1,30.12,East,96,10.0,10.0,83,0.00,,BKN035,0.00,VWS V14.01,2013-06-23 20:40:00,
2013-06-23 16:41:00,82.8,77.5,30.12,East,96,8.0,10.0,84,0.00,,BKN035,0.00,VWS V14.01,2013-06-23 20:41:00,
2013-06-23 16:42:00,82.6,76.9,30.12,East,98,7.0,9.0,83,0.00,,BKN200,0.00,VWS V14.01,2013-06-23 20:42:00,
2013-06-23 16:43:00,82.6,77.3,30.12,ESE,103,9.0,10.0,84,0.00,,BKN035,0.00,VWS V14.01,2013-06-23 20:43:00,
2013-06-23 16:44:00,82.4,76.7,30.12,ESE,103,9.0,9.0,83,0.00,,BKN035,0.00,VWS V14.01,2013-06-23 20:44:00,
2013-06-23 16:45:00,82.4,77.1,30.12,ESE,102,5.0,9.0,84,0.00,,BKN035,0.00,VWS V14.01,2013-06-23 20:45:00,
2013-06-23 16:46:00,82.4,77.4,30.12,East,99,6.0,6.0,85,0.00,,BKN035,0.00,VWS V14.01,2013-06-23 20:46:00,
2013-06-23 16:47:00,82.4,77.1,30.12,East,101,5.0,6.0,84,0.00,,BKN200,0.00,VWS V14.01,2013-06-23 20:47:00,
2013-06-23 16:48:00,82.4,76.7,30.12,ESE,102,6.0,6.0,83,0.00,,BKN035,0.00,VWS V14.01,2013-06-23 20:48:00,
2013-06-23 16:49:00,82.4,77.1,30.12,ESE,103,5.0,7.0,84,0.00,,BKN035,0.00,VWS V14.01,2013-06-23 20:49:00,
2013-06-23 16:50:00,82.4,77.1,30.12,East,101,6.0,7.0,84,0.00,,BKN035,0.00,VWS V14.01,2013-06-23 20:50:00,
2013-06-23 16:51:00,82.4,76.7,30.04,ESE,103,9.0,9.0,83,0.00,,BKN035,0.00,VWS V14.01,2013-06-23 20:51:00,
2013-06-23 16:52:00,82.4,77.1,30.04,ESE,102,6.0,7.0,84,0.00,,BKN200,0.00,VWS V14.01,2013-06-23 20:52:00,
2013-06-23 16:53:00,82.4,77.1,30.04,ESE,111,7.0,7.0,84,0.00,,BKN035,0.00,VWS V14.01,2013-06-23 20:53:00,
2013-06-23 16:54:00,82.4,77.1,30.04,ESE,123,7.0,8.0,84,0.00,,BKN035,0.00,VWS V14.01,2013-06-23 20:54:00,
2013-06-23 16:55:00,82.4,77.1,30.04,ESE,104,5.0,9.0,84,0.00,,BKN035,0.00,VWS V14.01,2013-06-23 20:55:00,
2013-06-23 16:56:00,82.4,77.1,30.04,ESE,107,10.0,10.0,84,0.00,,BKN035,0.00,VWS V14.01,2013-06-23 20:56:00,
2013-06-23 16:57:00,82.6,77.3,30.04,ESE,105,6.0,7.0,84,0.00,,BKN200,0.00,VWS V14.01,2013-06-23 20:57:00,
2013-06-23 16:58:00,82.6,77.3,30.04,East,101,7.0,7.0,84,0.00,,BKN035,0.00,VWS V14.01,2013-06-23 20:58:00,
2013-06-23 16:59:00,82.4,76.7,30.11,ESE,103,6.0,7.0,83,0.00,,BKN035,0.00,VWS V14.01,2013-06-23 20:59:00,
2013-06-23 17:00:00,82.4,76.7,30.11,ESE,103,4.0,6.0,83,0.00,,BKN035,0.00,VWS V14.01,2013-06-23 21:00:00,
2013-06-23 17:01:00,82.4,76.7,30.11,ESE,105,9.0,10.0,83,0.00,,BKN035,0.00,VWS V14.01,2013-06-23 21:01:00,
2013-06-23 17:02:00,82.6,76.9,30.11,East,101,5.0,10.0,83,0.00,,BKN200,0.00,VWS V14.01,2013-06-23 21:02:00,
2013-06-23 17:03:00,82.6,76.9,30.11,East,101,9.0,10.0,83,0.00,,BKN035,0.00,VWS V14.01,2013-06-23 21:03:00,
2013-06-23 17:04:00,82.6,77.3,30.11,East,93,6.0,10.0,84,0.00,,BKN035,0.00,VWS V14.01,2013-06-23 21:04:00,
2013-06-23 17:05:00,82.6,76.9,30.11,ESE,104,7.0,8.0,83,0.00,,BKN035,0.00,VWS V14.01,2013-06-23 21:05:00,
2013-06-23 17:06:00,82.6,76.9,29.98,East,98,6.0,10.0,83,0.00,,BKN035,0.00,VWS V14.01,2013-06-23 21:06:00,
2013-06-23 17:07:00,82.6,77.3,29.80,East,84,9.0,9.0,84,0.00,,BKN200,0.00,VWS V14.01,2013-06-23 21:07:00,
2013-06-23 17:08:00,82.6,77.3,29.98,East,88,9.0,10.0,84,0.00,,BKN035,0.00,VWS V14.01,2013-06-23 21:08:00,
2013-06-23 17:09:00,82.6,77.3,29.80,ESE,109,10.0,12.0,84,0.00,,BKN035,0.00,VWS V14.01,2013-06-23 21:09:00,
2013-06-23 17:10:00,82.6,77.3,29.80,East,98,10.0,10.0,84,0.00,,BKN035,0.00,VWS V14.01,2013-06-23 21:10:00,
2013-06-23 17:11:00,82.6,77.3,29.80,ESE,110,9.0,10.0,84,0.00,,BKN035,0.00,VWS V14.01,2013-06-23 21:11:00,
2013-06-23 17:12:00,82.6,77.3,29.80,East,90,6.0,6.0,84,0.00,,BKN200,0.00,VWS V14.01,2013-06-23 21:12:00,
2013-06-23 17:13:00,82.6,77.3,29.80,ESE,104,5.0,10.0,84,0.00,,BKN035,0.00,VWS V14.01,2013-06-23 21:13:00,
2013-06-23 17:14:00,82.6,77.6,29.80,ESE,105,10.0,11.0,85,0.00,,BKN035,0.00,VWS V14.01,2013-06-23 21:14:00,
2013-06-23 17:15:00,82.6,77.6,29.88,East,96,6.0,10.0,85,0.00,,BKN035,0.00,VWS V14.01,2013-06-23 21:15:00,
2013-06-23 17:16:00,82.6,77.6,29.88,East,98,4.0,10.0,85,0.00,,BKN035,0.00,VWS V14.01,2013-06-23 21:16:00,
2013-06-23 17:17:00,82.6,77.6,29.81,ESE,107,7.0,7.0,85,0.00,,BKN200,0.00,VWS V14.01,2013-06-23 21:17:00,
2013-06-23 17:18:00,82.6,77.6,29.81,East,101,6.0,9.0,85,0.00,,BKN035,0.00,VWS V14.01,2013-06-23 21:18:00,
2013-06-23 17:19:00,82.6,78.0,29.81,East,101,7.0,8.0,86,0.00,,BKN035,0.00,VWS V14.01,2013-06-23 21:19:00,
2013-06-23 17:20:00,82.4,77.4,29.71,East,101,6.0,10.0,85,0.00,,BKN035,0.00,VWS V14.01,2013-06-23 21:20:00,
2013-06-23 17:21:00,82.4,77.8,29.70,ESE,107,10.0,10.0,86,0.00,,BKN035,0.00,VWS V14.01,2013-06-23 21:21:00,
2013-06-23 17:22:00,82.2,77.6,29.70,ESE,105,6.0,6.0,86,0.00,,BKN200,0.00,VWS V14.01,2013-06-23 21:22:00,
2013-06-23 17:23:00,82.4,77.8,29.70,East,98,5.0,10.0,86,0.00,,BKN035,0.00,VWS V14.01,2013-06-23 21:23:00,
2013-06-23 17:24:00,82.2,77.6,29.70,ESE,115,10.0,10.0,86,0.00,,BKN035,0.00,VWS V14.01,2013-06-23 21:24:00,
2013-06-23 17:25:00,82.0,77.4,29.99,ESE,103,9.0,10.0,86,0.00,,BKN035,0.00,VWS V14.01,2013-06-23 21:25:00,
2013-06-23 17:26:00,82.0,77.8,29.99,ESE,115,6.0,10.0,87,0.00,,BKN035,0.00,VWS V14.01,2013-06-23 21:26:00,
2013-06-23 17:27:00,81.8,77.6,30.08,ESE,104,6.0,7.0,87,0.00,,BKN200,0.00,VWS V14.01,2013-06-23 21:27:00,
2013-06-23 17:28:00,81.8,77.6,29.99,ESE,106,7.0,9.0,87,0.00,,BKN035,0.00,VWS V14.01,2013-06-23 21:28:00,
2013-06-23 17:29:00,81.8,77.6,30.08,ESE,105,8.0,8.0,87,0.00,,BKN035,0.00,VWS V14.01,2013-06-23 21:29:00,
2013-06-23 17:30:00,81.8,77.9,30.08,East,100,6.0,8.0,88,0.00,,BKN035,0.00,VWS V14.01,2013-06-23 21:30:00,
2013-06-23 17:31:00,81.8,77.6,30.08,East,101,5.0,6.0,87,0.00,,BKN035,0.00,VWS V14.01,2013-06-23 21:31:00,
2013-06-23 17:32:00,81.8,77.6,29.75,ESE,108,8.0,8.0,87,0.00,,BKN200,0.00,VWS V14.01,2013-06-23 21:32:00,
2013-06-23 17:33:00,81.8,77.9,30.08,ESE,102,7.0,7.0,88,0.00,,BKN035,0.00,VWS V14.01,2013-06-23 21:33:00,
2013-06-23 17:34:00,81.6,77.4,29.75,East,100,6.0,8.0,87,0.00,,BKN035,0.00,VWS V14.01,2013-06-23 21:34:00,
2013-06-23 17:35:00,81.6,77.4,29.75,East,98,5.0,9.0,87,0.00,,BKN035,0.00,VWS V14.01,2013-06-23 21:35:00,
2013-06-23 17:36:00,81.6,77.7,29.75,East,101,6.0,6.0,88,0.00,,BKN035,0.00,VWS V14.01,2013-06-23 21:36:00,
2013-06-23 17:37:00,81.6,77.7,29.74,ESE,103,6.0,6.0,88,0.00,,BKN200,0.00,VWS V14.01,2013-06-23 21:37:00,
2013-06-23 17:38:00,81.6,77.7,29.74,ESE,104,6.0,8.0,88,0.00,,BKN035,0.00,VWS V14.01,2013-06-23 21:38:00,
2013-06-23 17:39:00,81.6,77.7,29.74,ESE,102,5.0,7.0,88,0.00,,BKN035,0.00,VWS V14.01,2013-06-23 21:39:00,
2013-06-23 17:40:00,81.6,77.7,29.74,East,98,7.0,7.0,88,0.00,,BKN035,0.00,VWS V14.01,2013-06-23 21:40:00,
2013-06-23 17:41:00,81.4,77.5,29.74,East,92,8.0,9.0,88,0.00,,BKN035,0.00,VWS V14.01,2013-06-23 21:41:00,
2013-06-23 17:42:00,81.4,77.2,29.74,East,100,6.0,6.0,87,0.00,,BKN200,0.00,VWS V14.01,2013-06-23 21:42:00,
2013-06-23 17:43:00,81.4,77.2,29.74,East,90,6.0,7.0,87,0.00,,BKN035,0.00,VWS V14.01,2013-06-23 21:43:00,
2013-06-23 17:44:00,81.4,77.2,29.74,East,98,4.0,6.0,87,0.00,,BKN035,0.00,VWS V14.01,2013-06-23 21:44:00,
2013-06-23 17:45:00,81.4,77.2,29.74,East,98,5.0,7.0,87,0.00,,BKN035,0.00,VWS V14.01,2013-06-23 21:45:00,
2013-06-23 17:46:00,81.4,77.5,29.74,East,100,4.0,6.0,88,0.00,,BKN035,0.00,VWS V14.01,2013-06-23 21:46:00,
2013-06-23 17:47:00,81.2,77.3,29.74,ESE,105,4.0,6.0,88,0.00,,BKN200,0.00,VWS V14.01,2013-06-23 21:47:00,
2013-06-23 17:48:00,81.2,77.3,29.74,ESE,107,6.0,7.0,88,0.00,,BKN035,0.00,VWS V14.01,2013-06-23 21:48:00,
2013-06-23 17:49:00,81.2,77.3,29.74,ESE,103,5.0,6.0,88,0.00,,BKN035,0.00,VWS V14.01,2013-06-23 21:49:00,
2013-06-23 17:50:00,81.2,77.0,30.00,ESE,108,6.0,6.0,87,0.00,,BKN035,0.00,VWS V14.01,2013-06-23 21:50:00,
2013-06-23 17:51:00,81.4,77.5,30.00,ESE,106,4.0,6.0,88,0.00,,BKN035,0.00,VWS V14.01,2013-06-23 21:51:00,
2013-06-23 17:52:00,81.2,77.0,29.97,East,91,5.0,5.0,87,0.00,,BKN200,0.00,VWS V14.01,2013-06-23 21:52:00,
2013-06-23 17:53:00,81.2,77.0,29.97,East,85,4.0,5.0,87,0.00,,BKN035,0.00,VWS V14.01,2013-06-23 21:53:00,
2013-06-23 17:54:00,81.2,77.0,29.97,East,101,6.0,6.0,87,0.00,,BKN035,0.00,VWS V14.01,2013-06-23 21:54:00,
2013-06-23 17:55:00,81.2,77.0,29.97,ESE,112,5.0,6.0,87,0.00,,BKN035,0.00,VWS V14.01,2013-06-23 21:55:00,
2013-06-23 17:56:00,81.4,77.2,29.97,East,100,7.0,7.0,87,0.00,,BKN035,0.00,VWS V14.01,2013-06-23 21:56:00,
2013-06-23 17:57:00,81.6,77.7,29.97,ESE,104,7.0,8.0,88,0.00,,BKN200,0.00,VWS V14.01,2013-06-23 21:57:00,
2013-06-23 17:58:00,81.6,77.7,29.97,ESE,111,8.0,8.0,88,0.00,,BKN035,0.00,VWS V14.01,2013-06-23 21:58:00,
2013-06-23 17:59:00,81.6,77.4,29.93,ESE,108,7.0,8.0,87,0.00,,BKN035,0.00,VWS V14.01,2013-06-23 21:59:00,
2013-06-23 18:00:00,81.6,77.7,29.93,ESE,107,5.0,7.0,88,0.00,,BKN035,0.00,VWS V14.01,2013-06-23 22:00:00,
2013-06-23 18:01:00,81.4,77.2,29.93,ESE,114,6.0,9.0,87,0.00,,BKN035,0.00,VWS V14.01,2013-06-23 22:01:00,
2013-06-23 18:02:00,81.2,77.0,29.93,ESE,107,6.0,7.0,87,0.00,,BKN200,0.00,VWS V14.01,2013-06-23 22:02:00,
2013-06-23 18:03:00,81.4,77.2,29.93,ESE,109,7.0,7.0,87,0.00,,BKN035,0.00,VWS V14.01,2013-06-23 22:03:00,
2013-06-23 18:04:00,81.2,77.0,29.93,ESE,107,6.0,7.0,87,0.00,,BKN035,0.00,VWS V14.01,2013-06-23 22:04:00,
2013-06-23 18:05:00,81.2,77.0,29.93,ESE,104,7.0,7.0,87,0.00,,BKN035,0.00,VWS V14.01,2013-06-23 22:05:00,
2013-06-23 18:06:00,81.2,77.0,29.93,ESE,109,7.0,7.0,87,0.00,,BKN035,0.00,VWS V14.01,2013-06-23 22:06:00,
2013-06-23 18:07:00,81.2,77.3,29.66,ESE,107,9.0,9.0,88,0.00,,BKN200,0.00,VWS V14.01,2013-06-23 22:07:00,
2013-06-23 18:08:00,81.2,77.3,29.93,ESE,110,7.0,10.0,88,0.00,,BKN035,0.00,VWS V14.01,2013-06-23 22:08:00,
2013-06-23 18:09:00,81.2,77.3,29.66,ESE,107,6.0,9.0,88,0.00,,BKN035,0.00,VWS V14.01,2013-06-23 22:09:00,
2013-06-23 18:10:00,81.1,77.2,29.64,ESE,115,10.0,10.0,88,0.00,,BKN035,0.00,VWS V14.01,2013-06-23 22:10:00,
2013-06-23 18:11:00,81.1,76.9,29.64,East,101,5.0,10.0,87,0.00,,BKN035,0.00,VWS V14.01,2013-06-23 22:11:00,
2013-06-23 18:12:00,80.9,77.0,29.70,ESE,107,5.0,7.0,88,0.00,,BKN200,0.00,VWS V14.01,2013-06-23 22:12:00,
2013-06-23 18:13:00,80.9,77.0,29.70,ESE,110,7.0,9.0,88,0.00,,BKN035,0.00,VWS V14.01,2013-06-23 22:13:00,
2013-06-23 18:14:00,80.9,77.0,29.70,East,101,4.0,7.0,88,0.00,,BKN035,0.00,VWS V14.01,2013-06-23 22:14:00,
2013-06-23 18:15:00,80.9,77.0,29.70,ESE,108,6.0,6.0,88,0.00,,BKN035,0.00,VWS V14.01,2013-06-23 22:15:00,
2013-06-23 18:16:00,80.9,77.4,29.73,ESE,106,6.0,8.0,89,0.00,,BKN035,0.00,VWS V14.01,2013-06-23 22:16:00,
2013-06-23 18:17:00,80.9,77.4,29.75,ESE,103,6.0,6.0,89,0.00,,BKN200,0.00,VWS V14.01,2013-06-23 22:17:00,
2013-06-23 18:18:00,80.9,77.4,29.75,ESE,106,5.0,6.0,89,0.00,,BKN035,0.00,VWS V14.01,2013-06-23 22:18:00,
2013-06-23 18:19:00,80.9,77.4,29.75,ESE,105,5.0,6.0,89,0.00,,BKN035,0.00,VWS V14.01,2013-06-23 22:19:00,
2013-06-23 18:20:00,80.9,77.4,29.75,ESE,107,7.0,7.0,89,0.00,,BKN035,0.00,VWS V14.01,2013-06-23 22:20:00,
2013-06-23 18:21:00,80.9,77.4,29.75,ESE,109,5.0,7.0,89,0.00,,BKN035,0.00,VWS V14.01,2013-06-23 22:21:00,
2013-06-23 18:22:00,80.7,77.2,29.71,ESE,117,8.0,8.0,89,0.00,,BKN200,0.00,VWS V14.01,2013-06-23 22:22:00,
2013-06-23 18:23:00,80.7,77.2,29.71,ESE,114,7.0,7.0,89,0.00,,BKN035,0.00,VWS V14.01,2013-06-23 22:23:00,
2013-06-23 18:24:00,80.7,77.2,29.71,ESE,113,7.0,9.0,89,0.00,,BKN035,0.00,VWS V14.01,2013-06-23 22:24:00,
2013-06-23 18:25:00,80.7,77.2,29.90,ESE,114,6.0,9.0,89,0.00,,BKN035,0.00,VWS V14.01,2013-06-23 22:25:00,
2013-06-23 18:26:00,80.7,76.8,29.90,ESE,115,7.0,9.0,88,0.00,,BKN035,0.00,VWS V14.01,2013-06-23 22:26:00,
2013-06-23 18:27:00,80.7,76.8,30.00,ESE,117,6.0,6.0,88,0.00,,BKN200,0.00,VWS V14.01,2013-06-23 22:27:00,
2013-06-23 18:28:00,80.7,76.8,29.90,ESE,116,6.0,8.0,88,0.00,,BKN035,0.00,VWS V14.01,2013-06-23 22:28:00,
2013-06-23 18:29:00,80.7,77.2,30.00,ESE,119,7.0,7.0,89,0.00,,BKN035,0.00,VWS V14.01,2013-06-23 22:29:00,
2013-06-23 18:30:00,80.7,77.2,30.00,ESE,112,6.0,8.0,89,0.00,,BKN035,0.00,VWS V14.01,2013-06-23 22:30:00,
2013-06-23 18:31:00,80.7,77.2,30.03,ESE,113,4.0,7.0,89,0.00,,BKN035,0.00,VWS V14.01,2013-06-23 22:31:00,
2013-06-23 18:32:00,80.9,77.4,30.02,ESE,117,7.0,7.0,89,0.00,,BKN200,0.00,VWS V14.01,2013-06-23 22:32:00,
2013-06-23 18:33:00,80.9,77.4,30.02,ESE,116,7.0,8.0,89,0.00,,BKN035,0.00,VWS V14.01,2013-06-23 22:33:00,
2013-06-23 18:34:00,80.9,77.4,30.02,ESE,107,6.0,8.0,89,0.00,,BKN035,0.00,VWS V14.01,2013-06-23 22:34:00,
2013-06-23 18:35:00,80.9,77.4,30.02,ESE,109,5.0,6.0,89,0.00,,BKN035,0.00,VWS V14.01,2013-06-23 22:35:00,
2013-06-23 18:36:00,80.9,77.7,30.02,ESE,113,7.0,7.0,90,0.00,,BKN035,0.00,VWS V14.01,2013-06-23 22:36:00,
2013-06-23 18:37:00,80.9,77.4,30.02,ESE,116,5.0,6.0,89,0.00,,BKN200,0.00,VWS V14.01,2013-06-23 22:37:00,
2013-06-23 18:38:00,80.9,77.4,30.02,ESE,112,6.0,6.0,89,0.00,,BKN035,0.00,VWS V14.01,2013-06-23 22:38:00,
2013-06-23 18:39:00,80.9,77.7,30.02,ESE,112,6.0,6.0,90,0.00,,BKN035,0.00,VWS V14.01,2013-06-23 22:39:00,
2013-06-23 18:40:00,80.9,77.4,30.02,ESE,105,4.0,6.0,89,0.00,,BKN035,0.00,VWS V14.01,2013-06-23 22:40:00,
2013-06-23 18:41:00,80.9,77.4,29.98,ESE,110,5.0,5.0,89,0.00,,BKN035,0.00,VWS V14.01,2013-06-23 22:41:00,
2013-06-23 18:42:00,80.7,77.2,29.98,ESE,114,5.0,6.0,89,0.00,,BKN200,0.00,VWS V14.01,2013-06-23 22:42:00,
2013-06-23 18:43:00,80.9,77.4,29.98,East,101,6.0,6.0,89,0.00,,BKN035,0.00,VWS V14.01,2013-06-23 22:43:00,
2013-06-23 18:44:00,80.7,77.2,29.98,ESE,106,6.0,6.0,89,0.00,,BKN035,0.00,VWS V14.01,2013-06-23 22:44:00,
2013-06-23 18:45:00,80.5,76.6,29.98,ESE,111,5.0,6.0,88,0.00,,BKN035,0.00,VWS V14.01,2013-06-23 22:45:00,
2013-06-23 18:46:00,80.5,76.6,29.98,ESE,113,6.0,6.0,88,0.00,,BKN035,0.00,VWS V14.01,2013-06-23 22:46:00,
2013-06-23 18:47:00,80.5,76.6,30.08,ESE,112,6.0,6.0,88,0.00,,BKN200,0.00,VWS V14.01,2013-06-23 22:47:00,
2013-06-23 18:48:00,80.5,76.6,29.98,ESE,115,6.0,7.0,88,0.00,,BKN035,0.00,VWS V14.01,2013-06-23 22:48:00,
2013-06-23 18:49:00,80.5,76.6,30.08,ESE,114,7.0,7.0,88,0.00,,BKN035,0.00,VWS V14.01,2013-06-23 22:49:00,
2013-06-23 18:50:00,80.7,76.8,30.10,ESE,109,6.0,7.0,88,0.00,,BKN035,0.00,VWS V14.01,2013-06-23 22:50:00,
2013-06-23 18:51:00,80.7,76.8,30.10,ESE,105,6.0,8.0,88,0.00,,BKN035,0.00,VWS V14.01,2013-06-23 22:51:00,
2013-06-23 18:52:00,80.9,77.0,30.00,ESE,112,9.0,9.0,88,0.00,,BKN200,0.00,VWS V14.01,2013-06-23 22:52:00,
2013-06-23 18:53:00,80.9,77.0,30.00,ESE,105,7.0,7.0,88,0.00,,BKN035,0.00,VWS V14.01,2013-06-23 22:53:00,
2013-06-23 18:54:00,81.1,77.2,30.00,ESE,113,10.0,10.0,88,0.00,,BKN035,0.00,VWS V14.01,2013-06-23 22:54:00,
2013-06-23 18:55:00,81.1,77.2,30.00,ESE,107,7.0,10.0,88,0.00,,BKN035,0.00,VWS V14.01,2013-06-23 22:55:00,
2013-06-23 18:56:00,81.1,77.2,29.77,ESE,103,5.0,7.0,88,0.00,,BKN035,0.00,VWS V14.01,2013-06-23 22:56:00,
2013-06-23 18:57:00,81.1,77.2,29.76,ESE,102,4.0,7.0,88,0.00,,BKN200,0.00,VWS V14.01,2013-06-23 22:57:00,
2013-06-23 18:58:00,81.1,77.2,29.76,East,93,7.0,9.0,88,0.00,,BKN035,0.00,VWS V14.01,2013-06-23 22:58:00,
2013-06-23 18:59:00,81.1,77.6,29.76,ESE,104,7.0,8.0,89,0.00,,BKN035,0.00,VWS V14.01,2013-06-23 22:59:00,
2013-06-23 19:00:00,81.1,77.2,29.76,ESE,109,7.0,8.0,88,0.00,,BKN035,0.00,VWS V14.01,2013-06-23 23:00:00,
2013-06-23 19:01:00,80.9,77.4,29.76,ESE,105,7.0,9.0,89,0.00,,BKN035,0.00,VWS V14.01,2013-06-23 23:01:00,
2013-06-23 19:02:00,80.9,77.4,29.76,ESE,103,7.0,7.0,89,0.00,,BKN200,0.00,VWS V14.01,2013-06-23 23:02:00,
2013-06-23 19:03:00,80.9,77.4,29.76,ESE,109,5.0,8.0,89,0.00,,BKN035,0.00,VWS V14.01,2013-06-23 23:03:00,
2013-06-23 19:04:00,80.9,77.4,29.76,East,99,7.0,7.0,89,0.00,,BKN035,0.00,VWS V14.01,2013-06-23 23:04:00,
2013-06-23 19:05:00,80.9,77.4,29.76,ESE,107,6.0,7.0,89,0.00,,BKN035,0.00,VWS V14.01,2013-06-23 23:05:00,
2013-06-23 19:06:00,80.7,77.5,29.76,ESE,109,6.0,6.0,90,0.00,,BKN035,0.00,VWS V14.01,2013-06-23 23:06:00,
2013-06-23 19:07:00,80.7,77.5,29.76,ESE,105,5.0,5.0,90,0.00,,BKN200,0.00,VWS V14.01,2013-06-23 23:07:00,
2013-06-23 19:08:00,80.7,77.5,29.76,ESE,105,4.0,7.0,90,0.00,,BKN035,0.00,VWS V14.01,2013-06-23 23:08:00,
2013-06-23 19:09:00,80.7,77.5,29.76,ESE,107,3.0,5.0,90,0.00,,BKN035,0.00,VWS V14.01,2013-06-23 23:09:00,
2013-06-23 19:10:00,80.7,77.8,29.76,ESE,107,2.0,3.0,91,0.00,,BKN035,0.00,VWS V14.01,2013-06-23 23:10:00,
2013-06-23 19:11:00,80.7,77.8,29.76,ESE,107,3.0,4.0,91,0.00,,BKN035,0.00,VWS V14.01,2013-06-23 23:11:00,
2013-06-23 19:12:00,80.7,77.5,29.81,ESE,107,2.0,2.0,90,0.00,,BKN200,0.00,VWS V14.01,2013-06-23 23:12:00,
2013-06-23 19:13:00,80.7,77.5,29.81,ESE,107,2.0,3.0,90,0.00,,BKN035,0.00,VWS V14.01,2013-06-23 23:13:00,
2013-06-23 19:14:00,80.7,77.5,29.81,East,83,2.0,3.0,90,0.00,,BKN035,0.00,VWS V14.01,2013-06-23 23:14:00,
2013-06-23 19:15:00,80.7,77.5,29.81,East,83,2.0,3.0,90,0.00,,BKN035,0.00,VWS V14.01,2013-06-23 23:15:00,
2013-06-23 19:16:00,80.7,77.5,29.81,East,92,4.0,4.0,90,0.00,,BKN035,0.00,VWS V14.01,2013-06-23 23:16:00,
2013-06-23 19:17:00,80.3,77.1,30.12,East,96,4.0,4.0,90,0.00,,BKN200,0.00,VWS V14.01,2013-06-23 23:17:00,
2013-06-23 19:18:00,80.3,77.1,30.12,East,93,3.0,4.0,90,0.00,,BKN035,0.00,VWS V14.01,2013-06-23 23:18:00,
2013-06-23 19:19:00,80.3,77.1,30.12,East,96,4.0,4.0,90,0.00,,BKN035,0.00,VWS V14.01,2013-06-23 23:19:00,
2013-06-23 19:20:00,80.3,77.1,30.12,ESE,103,3.0,5.0,90,0.00,,BKN035,0.00,VWS V14.01,2013-06-23 23:20:00,
2013-06-23 19:21:00,80.3,77.1,30.12,ESE,107,3.0,5.0,90,0.00,,BKN035,0.00,VWS V14.01,2013-06-23 23:21:00,
2013-06-23 19:22:00,80.3,77.1,29.93,ESE,107,3.0,3.0,90,0.00,,BKN200,0.00,VWS V14.01,2013-06-23 23:22:00,
2013-06-23 19:23:00,80.3,77.1,29.93,ESE,107,3.0,3.0,90,0.00,,BKN035,0.00,VWS V14.01,2013-06-23 23:23:00,
2013-06-23 19:24:00,80.3,77.1,29.93,ESE,107,4.0,4.0,90,0.00,,BKN035,0.00,VWS V14.01,2013-06-23 23:24:00,
2013-06-23 19:25:00,80.3,77.1,29.97,ESE,107,3.0,4.0,90,0.00,,BKN035,0.00,VWS V14.01,2013-06-23 23:25:00,
2013-06-23 19:26:00,80.3,77.1,29.97,ESE,107,4.0,4.0,90,0.00,,BKN035,0.00,VWS V14.01,2013-06-23 23:26:00,
2013-06-23 19:27:00,80.3,77.1,29.86,ESE,110,4.0,4.0,90,0.00,,BKN200,0.00,VWS V14.01,2013-06-23 23:27:00,
2013-06-23 19:28:00,80.3,77.1,29.86,ESE,110,4.0,4.0,90,0.00,,BKN035,0.00,VWS V14.01,2013-06-23 23:28:00,
2013-06-23 19:29:00,80.5,77.3,29.86,ESE,110,3.0,4.0,90,0.00,,BKN035,0.00,VWS V14.01,2013-06-23 23:29:00,
2013-06-23 19:30:00,80.5,77.3,29.86,ESE,110,3.0,4.0,90,0.00,,BKN035,0.00,VWS V14.01,2013-06-23 23:30:00,
2013-06-23 19:31:00,80.5,77.3,29.86,ESE,110,2.0,3.0,90,0.00,,BKN035,0.00,VWS V14.01,2013-06-23 23:31:00,
2013-06-23 19:32:00,80.5,77.3,30.12,ESE,110,3.0,3.0,90,0.00,,BKN200,0.00,VWS V14.01,2013-06-23 23:32:00,
2013-06-23 19:33:00,80.5,77.3,29.86,ESE,110,3.0,3.0,90,0.00,,BKN035,0.00,VWS V14.01,2013-06-23 23:33:00,
2013-06-23 19:34:00,80.5,77.3,30.12,ESE,110,1.0,3.0,90,0.00,,BKN035,0.00,VWS V14.01,2013-06-23 23:34:00,
2013-06-23 19:35:00,80.5,77.3,30.12,ESE,110,2.0,2.0,90,0.00,,BKN035,0.00,VWS V14.01,2013-06-23 23:35:00,
2013-06-23 19:36:00,80.5,77.3,30.12,ESE,110,1.0,3.0,90,0.00,,BKN035,0.00,VWS V14.01,2013-06-23 23:36:00,
2013-06-23 19:37:00,80.5,77.3,30.12,ESE,110,2.0,3.0,90,0.00,,CLR,0.00,VWS V14.01,2013-06-23 23:37:00,
2013-06-23 19:38:00,80.5,77.3,30.12,ESE,110,3.0,3.0,90,0.00,,BKN035,0.00,VWS V14.01,2013-06-23 23:38:00,
2013-06-23 19:39:00,80.5,77.3,30.12,ESE,110,3.0,3.0,90,0.00,,BKN035,0.00,VWS V14.01,2013-06-23 23:39:00,
2013-06-23 19:40:00,80.5,77.3,30.12,ESE,110,4.0,4.0,90,0.00,,BKN035,0.00,VWS V14.01,2013-06-23 23:40:00,
2013-06-23 19:41:00,80.5,77.3,30.12,ESE,110,3.0,5.0,90,0.00,,BKN035,0.00,VWS V14.01,2013-06-23 23:41:00,
2013-06-23 19:42:00,80.5,77.3,30.12,ESE,110,4.0,4.0,90,0.00,,CLR,0.00,VWS V14.01,2013-06-23 23:42:00,
2013-06-23 19:43:00,80.5,77.3,30.12,ESE,110,3.0,4.0,90,0.00,,BKN035,0.00,VWS V14.01,2013-06-23 23:43:00,
2013-06-23 19:44:00,80.5,77.3,30.12,ESE,110,3.0,4.0,90,0.00,,BKN035,0.00,VWS V14.01,2013-06-23 23:44:00,
2013-06-23 19:45:00,80.3,77.1,30.12,ESE,110,3.0,3.0,90,0.00,,BKN035,0.00,VWS V14.01,2013-06-23 23:45:00,
2013-06-23 19:46:00,80.3,77.1,30.12,ESE,110,3.0,3.0,90,0.00,,BKN035,0.00,VWS V14.01,2013-06-23 23:46:00,
2013-06-23 19:47:00,80.5,77.6,30.12,ESE,110,2.0,3.0,91,0.00,,CLR,0.00,VWS V14.01,2013-06-23 23:47:00,
2013-06-23 19:48:00,80.5,77.6,30.12,ESE,110,3.0,3.0,91,0.00,,BKN035,0.00,VWS V14.01,2013-06-23 23:48:00,
2013-06-23 19:49:00,80.5,77.6,30.12,ESE,110,4.0,4.0,91,0.00,,BKN035,0.00,VWS V14.01,2013-06-23 23:49:00,
2013-06-23 19:50:00,80.5,77.6,29.91,ESE,110,2.0,4.0,91,0.00,,BKN035,0.00,VWS V14.01,2013-06-23 23:50:00,
2013-06-23 19:51:00,80.5,77.6,29.91,ESE,110,3.0,3.0,91,0.00,,BKN035,0.00,VWS V14.01,2013-06-23 23:51:00,
2013-06-23 19:52:00,80.3,77.4,29.77,ESE,110,4.0,4.0,91,0.00,,CLR,0.00,VWS V14.01,2013-06-23 23:52:00,
2013-06-23 19:53:00,80.3,77.4,29.77,ESE,110,2.0,4.0,91,0.00,,BKN035,0.00,VWS V14.01,2013-06-23 23:53:00,
2013-06-23 19:54:00,80.3,77.4,29.77,ESE,110,3.0,4.0,91,0.00,,BKN035,0.00,VWS V14.01,2013-06-23 23:54:00,
2013-06-23 19:55:00,80.3,77.4,30.12,ESE,110,3.0,3.0,91,0.00,,BKN035,0.00,VWS V14.01,2013-06-23 23:55:00,
2013-06-23 19:56:00,80.3,77.4,30.12,ESE,111,4.0,4.0,91,0.00,,BKN035,0.00,VWS V14.01,2013-06-23 23:56:00,
2013-06-23 19:57:00,80.1,77.2,30.12,ESE,111,4.0,4.0,91,0.00,,CLR,0.00,VWS V14.01,2013-06-23 23:57:00,
2013-06-23 19:58:00,80.3,77.4,30.12,ESE,111,4.0,5.0,91,0.00,,BKN035,0.00,VWS V14.01,2013-06-23 23:58:00,
2013-06-23 19:59:00,80.1,77.2,30.12,ESE,111,5.0,5.0,91,0.00,,BKN035,0.00,VWS V14.01,2013-06-23 23:59:00,
2013-06-23 20:00:00,80.1,77.2,30.12,ESE,111,3.0,5.0,91,0.00,,BKN035,0.00,VWS V14.01,2013-06-24 00:00:00,
2013-06-23 20:01:00,80.1,77.2,30.12,ESE,111,4.0,4.0,91,0.00,,BKN035,0.00,VWS V14.01,2013-06-24 00:01:00,
2013-06-23 20:02:00,80.1,77.2,30.12,ESE,119,3.0,3.0,91,0.00,,CLR,0.00,VWS V14.01,2013-06-24 00:02:00,
2013-06-23 20:03:00,80.1,77.2,30.12,ESE,119,3.0,5.0,91,0.00,,BKN035,0.00,VWS V14.01,2013-06-24 00:03:00,
2013-06-23 20:04:00,80.1,77.2,30.12,ESE,119,2.0,3.0,91,0.00,,BKN035,0.00,VWS V14.01,2013-06-24 00:04:00,
2013-06-23 20:05:00,80.1,77.2,30.12,ESE,119,1.0,2.0,91,0.00,,BKN035,0.00,VWS V14.01,2013-06-24 00:05:00,
2013-06-23 20:06:00,80.1,77.2,30.12,ESE,119,3.0,3.0,91,0.00,,BKN035,0.00,VWS V14.01,2013-06-24 00:06:00,
2013-06-23 20:07:00,79.9,77.0,30.12,ESE,119,4.0,4.0,91,0.00,,CLR,0.00,VWS V14.01,2013-06-24 00:07:00,
2013-06-23 20:08:00,79.9,77.0,30.12,ESE,119,3.0,3.0,91,0.00,,BKN035,0.00,VWS V14.01,2013-06-24 00:08:00,
2013-06-23 20:09:00,79.9,77.0,30.12,ESE,119,3.0,4.0,91,0.00,,BKN035,0.00,VWS V14.01,2013-06-24 00:09:00,
2013-06-23 20:10:00,79.9,77.0,30.12,ESE,119,2.0,3.0,91,0.00,,BKN035,0.00,VWS V14.01,2013-06-24 00:10:00,
2013-06-23 20:11:00,79.9,77.0,30.12,ESE,119,1.0,2.0,91,0.00,,BKN035,0.00,VWS V14.01,2013-06-24 00:11:00,
2013-06-23 20:12:00,79.9,77.0,30.12,ESE,119,2.0,2.0,91,0.00,,CLR,0.00,VWS V14.01,2013-06-24 00:12:00,
2013-06-23 20:13:00,79.9,77.0,30.12,ESE,119,2.0,3.0,91,0.00,,BKN035,0.00,VWS V14.01,2013-06-24 00:13:00,
2013-06-23 20:14:00,79.9,77.0,30.12,ESE,119,4.0,4.0,91,0.00,,BKN035,0.00,VWS V14.01,2013-06-24 00:14:00,
2013-06-23 20:15:00,79.9,77.0,30.12,ESE,119,2.0,5.0,91,0.00,,BKN035,0.00,VWS V14.01,2013-06-24 00:15:00,
2013-06-23 20:16:00,79.9,77.0,30.12,ESE,119,3.0,3.0,91,0.00,,BKN035,0.00,VWS V14.01,2013-06-24 00:16:00,
2013-06-23 20:17:00,79.9,77.0,30.12,ESE,119,3.0,4.0,91,0.00,,CLR,0.00,VWS V14.01,2013-06-24 00:17:00,
2013-06-23 20:18:00,79.9,77.0,30.12,ESE,119,4.0,4.0,91,0.00,,BKN035,0.00,VWS V14.01,2013-06-24 00:18:00,
2013-06-23 20:19:00,79.9,77.0,30.12,ESE,119,4.0,4.0,91,0.00,,BKN035,0.00,VWS V14.01,2013-06-24 00:19:00,
2013-06-23 20:20:00,79.9,77.0,30.12,ESE,116,3.0,4.0,91,0.00,,BKN035,0.00,VWS V14.01,2013-06-24 00:20:00,
2013-06-23 20:21:00,79.9,77.0,30.12,ESE,116,3.0,4.0,91,0.00,,BKN035,0.00,VWS V14.01,2013-06-24 00:21:00,
2013-06-23 20:22:00,79.9,77.0,30.11,ESE,119,5.0,5.0,91,0.00,,CLR,0.00,VWS V14.01,2013-06-24 00:22:00,
2013-06-23 20:23:00,79.9,77.0,30.11,ESE,115,5.0,5.0,91,0.00,,BKN035,0.00,VWS V14.01,2013-06-24 00:23:00,
2013-06-23 20:24:00,79.9,77.0,30.11,ESE,123,4.0,6.0,91,0.00,,BKN035,0.00,VWS V14.01,2013-06-24 00:24:00,
2013-06-23 20:25:00,79.9,77.0,30.11,ESE,123,4.0,4.0,91,0.00,,BKN035,0.00,VWS V14.01,2013-06-24 00:25:00,
2013-06-23 20:26:00,79.9,77.0,30.11,ESE,114,4.0,4.0,91,0.00,,BKN035,0.00,VWS V14.01,2013-06-24 00:26:00,
2013-06-23 20:27:00,79.9,77.0,30.11,ESE,114,4.0,4.0,91,0.00,,CLR,0.00,VWS V14.01,2013-06-24 00:27:00,
2013-06-23 20:28:00,79.9,77.0,30.11,ESE,114,4.0,4.0,91,0.00,,BKN035,0.00,VWS V14.01,2013-06-24 00:28:00,
2013-06-23 20:29:00,79.9,77.0,30.11,ESE,123,5.0,5.0,91,0.00,,BKN035,0.00,VWS V14.01,2013-06-24 00:29:00,
2013-06-23 20:30:00,79.9,77.0,30.11,SE,127,5.0,6.0,91,0.00,,BKN035,0.00,VWS V14.01,2013-06-24 00:30:00,
2013-06-23 20:31:00,79.8,76.9,30.11,SE,127,3.0,5.0,91,0.00,,BKN035,0.00,VWS V14.01,2013-06-24 00:31:00,
2013-06-23 20:32:00,79.8,76.9,30.11,SE,127,4.0,4.0,91,0.00,,CLR,0.00,VWS V14.01,2013-06-24 00:32:00,
2013-06-23 20:33:00,79.8,76.9,30.11,SE,127,4.0,5.0,91,0.00,,BKN035,0.00,VWS V14.01,2013-06-24 00:33:00,
2013-06-23 20:34:00,79.8,76.9,30.11,SE,126,5.0,5.0,91,0.00,,BKN035,0.00,VWS V14.01,2013-06-24 00:34:00,
2013-06-23 20:35:00,79.8,76.9,30.11,SE,126,3.0,5.0,91,0.00,,BKN035,0.00,VWS V14.01,2013-06-24 00:35:00,
2013-06-23 20:36:00,79.8,76.9,30.12,SE,126,3.0,4.0,91,0.00,,BKN035,0.00,VWS V14.01,2013-06-24 00:36:00,
2013-06-23 20:37:00,79.8,76.9,30.11,SE,130,6.0,7.0,91,0.00,,CLR,0.00,VWS V14.01,2013-06-24 00:37:00,
2013-06-23 20:38:00,79.8,76.9,30.11,SE,128,7.0,7.0,91,0.00,,BKN035,0.00,VWS V14.01,2013-06-24 00:38:00,
2013-06-23 20:39:00,79.9,77.0,30.11,SE,136,8.0,8.0,91,0.00,,BKN035,0.00,VWS V14.01,2013-06-24 00:39:00,
2013-06-23 20:40:00,79.8,76.9,30.11,SE,136,5.0,8.0,91,0.00,,BKN035,0.00,VWS V14.01,2013-06-24 00:40:00,
2013-06-23 20:41:00,79.8,76.9,30.11,SE,144,5.0,6.0,91,0.00,,BKN035,0.00,VWS V14.01,2013-06-24 00:41:00,
2013-06-23 20:42:00,79.8,76.9,30.12,SE,140,4.0,5.0,91,0.00,,CLR,0.00,VWS V14.01,2013-06-24 00:42:00,
2013-06-23 20:43:00,79.8,76.9,30.12,SE,144,5.0,6.0,91,0.00,,BKN035,0.00,VWS V14.01,2013-06-24 00:43:00,
2013-06-23 20:44:00,79.8,76.9,30.12,SE,140,4.0,5.0,91,0.00,,BKN035,0.00,VWS V14.01,2013-06-24 00:44:00,
2013-06-23 20:45:00,79.8,76.9,30.12,SSE,149,4.0,6.0,91,0.00,,BKN035,0.00,VWS V14.01,2013-06-24 00:45:00,
2013-06-23 20:46:00,79.8,76.9,30.12,SE,145,4.0,6.0,91,0.00,,BKN035,0.00,VWS V14.01,2013-06-24 00:46:00,
2013-06-23 20:47:00,79.8,76.9,30.12,SSE,160,3.0,4.0,91,0.00,,CLR,0.00,VWS V14.01,2013-06-24 00:47:00,
2013-06-23 20:48:00,79.8,76.9,30.12,SSE,160,4.0,5.0,91,0.00,,BKN035,0.00,VWS V14.01,2013-06-24 00:48:00,
2013-06-23 20:49:00,79.8,76.9,30.12,SSE,160,4.0,5.0,91,0.00,,BKN035,0.00,VWS V14.01,2013-06-24 00:49:00,
2013-06-23 20:50:00,79.8,76.9,30.12,SSE,148,6.0,6.0,91,0.00,,BKN035,0.00,VWS V14.01,2013-06-24 00:50:00,
2013-06-23 20:51:00,79.8,76.9,30.12,SSE,156,3.0,7.0,91,0.00,,BKN035,0.00,VWS V14.01,2013-06-24 00:51:00,
2013-06-23 20:52:00,79.8,76.9,30.12,SSE,157,3.0,3.0,91,0.00,,CLR,0.00,VWS V14.01,2013-06-24 00:52:00,
2013-06-23 20:53:00,79.8,76.9,30.12,SSE,155,3.0,4.0,91,0.00,,BKN035,0.00,VWS V14.01,2013-06-24 00:53:00,
2013-06-23 20:54:00,79.8,76.9,30.12,SSE,157,2.0,3.0,91,0.00,,BKN035,0.00,VWS V14.01,2013-06-24 00:54:00,
2013-06-23 20:55:00,79.8,76.9,30.12,SSE,157,1.0,2.0,91,0.00,,BKN035,0.00,VWS V14.01,2013-06-24 00:55:00,
2013-06-23 20:56:00,79.8,76.9,30.12,SSE,158,1.0,2.0,91,0.00,,BKN035,0.00,VWS V14.01,2013-06-24 00:56:00,
2013-06-23 20:57:00,79.8,76.9,30.12,SSE,158,1.0,2.0,91,0.00,,CLR,0.00,VWS V14.01,2013-06-24 00:57:00,
2013-06-23 20:58:00,79.8,76.9,30.12,SSE,158,2.0,2.0,91,0.00,,BKN035,0.00,VWS V14.01,2013-06-24 00:58:00,
2013-06-23 20:59:00,79.8,77.3,30.12,SSE,159,3.0,3.0,92,0.00,,BKN035,0.00,VWS V14.01,2013-06-24 00:59:00,
2013-06-23 21:00:00,79.8,76.9,30.12,SSE,159,2.0,3.0,91,0.00,,BKN035,0.00,VWS V14.01,2013-06-24 01:00:00,
2013-06-23 21:01:00,79.8,76.9,30.12,SSE,159,2.0,3.0,91,0.00,,BKN035,0.00,VWS V14.01,2013-06-24 01:01:00,
2013-06-23 21:02:00,79.8,76.9,30.13,SSE,159,2.0,2.0,91,0.00,,CLR,0.00,VWS V14.01,2013-06-24 01:02:00,
2013-06-23 21:03:00,79.8,76.9,30.13,SSE,159,1.0,3.0,91,0.00,,BKN035,0.00,VWS V14.01,2013-06-24 01:03:00,
2013-06-23 21:04:00,79.8,77.3,30.13,SSE,159,2.0,2.0,92,0.00,,BKN035,0.00,VWS V14.01,2013-06-24 01:04:00,
2013-06-23 21:05:00,79.8,76.9,30.13,SSE,159,3.0,3.0,91,0.00,,BKN035,0.00,VWS V14.01,2013-06-24 01:05:00,
2013-06-23 21:06:00,79.8,77.3,30.13,SSE,159,3.0,3.0,92,0.00,,BKN035,0.00,VWS V14.01,2013-06-24 01:06:00,
2013-06-23 21:07:00,79.8,77.3,30.13,SSE,167,3.0,3.0,92,0.00,,CLR,0.00,VWS V14.01,2013-06-24 01:07:00,
2013-06-23 21:08:00,79.8,77.3,30.13,SSE,161,3.0,3.0,92,0.00,,BKN035,0.00,VWS V14.01,2013-06-24 01:08:00,
2013-06-23 21:09:00,79.8,77.3,30.13,South,178,3.0,4.0,92,0.00,,BKN035,0.00,VWS V14.01,2013-06-24 01:09:00,
2013-06-23 21:10:00,79.8,77.3,30.13,South,179,4.0,4.0,92,0.00,,BKN035,0.00,VWS V14.01,2013-06-24 01:10:00,
2013-06-23 21:11:00,79.8,77.3,30.13,South,180,4.0,4.0,92,0.00,,BKN035,0.00,VWS V14.01,2013-06-24 01:11:00,
2013-06-23 21:12:00,79.8,77.3,30.13,SSE,148,6.0,6.0,92,0.00,,CLR,0.00,VWS V14.01,2013-06-24 01:12:00,
2013-06-23 21:13:00,79.8,77.3,30.13,South,181,4.0,5.0,92,0.00,,BKN035,0.00,VWS V14.01,2013-06-24 01:13:00,
2013-06-23 21:14:00,79.8,77.3,30.13,SSE,157,5.0,6.0,92,0.00,,BKN035,0.00,VWS V14.01,2013-06-24 01:14:00,
2013-06-23 21:15:00,79.8,77.3,30.14,South,173,6.0,6.0,92,0.00,,BKN035,0.00,VWS V14.01,2013-06-24 01:15:00,
2013-06-23 21:16:00,79.8,77.3,30.14,SSE,161,6.0,8.0,92,0.00,,BKN035,0.00,VWS V14.01,2013-06-24 01:16:00,
2013-06-23 21:17:00,79.8,77.3,30.14,South,184,3.0,5.0,92,0.00,,CLR,0.00,VWS V14.01,2013-06-24 01:17:00,
2013-06-23 21:18:00,79.8,77.3,30.14,South,184,5.0,7.0,92,0.00,,BKN035,0.00,VWS V14.01,2013-06-24 01:18:00,
2013-06-23 21:19:00,79.8,77.3,30.14,South,182,2.0,5.0,92,0.00,,BKN035,0.00,VWS V14.01,2013-06-24 01:19:00,
2013-06-23 21:20:00,79.8,77.3,30.14,SSE,165,6.0,6.0,92,0.00,,BKN035,0.00,VWS V14.01,2013-06-24 01:20:00,
2013-06-23 21:21:00,79.8,77.3,30.14,SSE,159,5.0,6.0,92,0.00,,BKN035,0.00,VWS V14.01,2013-06-24 01:21:00,
2013-06-23 21:22:00,79.6,77.1,30.14,SSE,157,5.0,7.0,92,0.00,,CLR,0.00,VWS V14.01,2013-06-24 01:22:00,
2013-06-23 21:23:00,79.6,77.1,30.14,SSE,155,7.0,7.0,92,0.00,,BKN035,0.00,VWS V14.01,2013-06-24 01:23:00,
2013-06-23 21:24:00,79.6,77.1,30.14,South,178,4.0,7.0,92,0.00,,BKN035,0.00,VWS V14.01,2013-06-24 01:24:00,
2013-06-23 21:25:00,79.6,77.1,30.14,SSE,165,5.0,6.0,92,0.00,,BKN035,0.00,VWS V14.01,2013-06-24 01:25:00,
2013-06-23 21:26:00,79.6,77.1,30.14,SSE,162,6.0,7.0,92,0.00,,BKN035,0.00,VWS V14.01,2013-06-24 01:26:00,
2013-06-23 21:27:00,79.8,77.6,30.14,SSE,167,6.0,8.0,93,0.00,,CLR,0.00,VWS V14.01,2013-06-24 01:27:00,
2013-06-23 21:28:00,79.8,77.3,30.14,SSE,165,8.0,8.0,92,0.00,,BKN035,0.00,VWS V14.01,2013-06-24 01:28:00,
2013-06-23 21:29:00,79.8,77.6,30.14,South,169,6.0,8.0,93,0.00,,BKN035,0.00,VWS V14.01,2013-06-24 01:29:00,
2013-06-23 21:30:00,79.8,77.3,30.14,South,185,7.0,7.0,92,0.00,,BKN035,0.00,VWS V14.01,2013-06-24 01:30:00,
2013-06-23 21:31:00,79.6,77.1,30.14,South,181,6.0,7.0,92,0.00,,BKN035,0.00,VWS V14.01,2013-06-24 01:31:00,
2013-06-23 21:32:00,79.8,77.3,30.14,SSE,164,6.0,6.0,92,0.00,,CLR,0.00,VWS V14.01,2013-06-24 01:32:00,
2013-06-23 21:33:00,79.8,77.3,30.14,SSE,161,6.0,6.0,92,0.00,,BKN035,0.00,VWS V14.01,2013-06-24 01:33:00,
2013-06-23 21:34:00,79.8,77.6,30.14,SSE,157,8.0,8.0,93,0.00,,BKN035,0.00,VWS V14.01,2013-06-24 01:34:00,
2013-06-23 21:35:00,79.8,77.6,30.14,SSE,151,9.0,9.0,93,0.00,,BKN035,0.00,VWS V14.01,2013-06-24 01:35:00,
2013-06-23 21:36:00,79.8,77.6,30.13,South,177,5.0,9.0,93,0.00,,BKN035,0.00,VWS V14.01,2013-06-24 01:36:00,
2013-06-23 21:37:00,79.8,77.3,30.13,South,179,4.0,4.0,92,0.00,,CLR,0.00,VWS V14.01,2013-06-24 01:37:00,
2013-06-23 21:38:00,79.8,77.3,30.13,South,175,4.0,5.0,92,0.00,,BKN035,0.00,VWS V14.01,2013-06-24 01:38:00,
2013-06-23 21:39:00,79.8,77.3,30.13,South,178,3.0,4.0,92,0.00,,BKN035,0.00,VWS V14.01,2013-06-24 01:39:00,
2013-06-23 21:40:00,79.8,77.6,30.13,SSE,165,4.0,5.0,93,0.00,,BKN035,0.00,VWS V14.01,2013-06-24 01:40:00,
2013-06-23 21:41:00,79.8,77.6,30.13,South,184,10.0,10.0,93,0.00,,BKN035,0.00,VWS V14.01,2013-06-24 01:41:00,
2013-06-23 21:42:00,79.8,77.6,30.13,South,179,4.0,6.0,93,0.00,,CLR,0.00,VWS V14.01,2013-06-24 01:42:00,
2013-06-23 21:43:00,79.8,77.6,30.13,South,182,4.0,4.0,93,0.00,,BKN035,0.00,VWS V14.01,2013-06-24 01:43:00,
2013-06-23 21:44:00,79.8,77.6,30.13,South,190,5.0,6.0,93,0.00,,BKN035,0.00,VWS V14.01,2013-06-24 01:44:00,
2013-06-23 21:45:00,79.8,77.6,30.13,South,178,3.0,5.0,93,0.00,,BKN035,0.00,VWS V14.01,2013-06-24 01:45:00,
2013-06-23 21:46:00,79.8,77.6,30.14,SE,146,7.0,7.0,93,0.00,,BKN035,0.00,VWS V14.01,2013-06-24 01:46:00,
2013-06-23 21:47:00,79.8,77.6,30.14,SSE,149,9.0,9.0,93,0.00,,CLR,0.00,VWS V14.01,2013-06-24 01:47:00,
2013-06-23 21:48:00,79.8,77.6,30.14,SSE,155,6.0,9.0,93,0.00,,BKN035,0.00,VWS V14.01,2013-06-24 01:48:00,
2013-06-23 21:49:00,79.8,77.6,30.14,SSE,152,6.0,9.0,93,0.00,,BKN035,0.00,VWS V14.01,2013-06-24 01:49:00,
2013-06-23 21:50:00,79.8,77.6,30.14,SSE,150,7.0,9.0,93,0.00,,BKN035,0.00,VWS V14.01,2013-06-24 01:50:00,
2013-06-23 21:51:00,79.6,77.4,30.14,SE,144,7.0,10.0,93,0.00,,BKN035,0.00,VWS V14.01,2013-06-24 01:51:00,
2013-06-23 21:52:00,79.6,77.4,30.14,South,175,5.0,5.0,93,0.00,,CLR,0.00,VWS V14.01,2013-06-24 01:52:00,
2013-06-23 21:53:00,79.6,77.4,30.14,South,174,5.0,6.0,93,0.00,,BKN035,0.00,VWS V14.01,2013-06-24 01:53:00,
2013-06-23 21:54:00,79.6,77.4,30.14,South,182,6.0,7.0,93,0.00,,BKN035,0.00,VWS V14.01,2013-06-24 01:54:00,
2013-06-23 21:55:00,79.6,77.4,30.14,SSW,194,5.0,6.0,93,0.00,,BKN035,0.00,VWS V14.01,2013-06-24 01:55:00,
2013-06-23 21:56:00,79.6,77.4,30.14,SSE,163,5.0,7.0,93,0.00,,BKN035,0.00,VWS V14.01,2013-06-24 01:56:00,
2013-06-23 21:57:00,79.6,77.4,30.14,South,184,9.0,9.0,93,0.00,,CLR,0.00,VWS V14.01,2013-06-24 01:57:00,
2013-06-23 21:58:00,79.6,77.4,30.14,South,173,5.0,6.0,93,0.00,,BKN035,0.00,VWS V14.01,2013-06-24 01:58:00,
2013-06-23 21:59:00,79.6,77.4,30.14,South,169,6.0,9.0,93,0.00,,BKN035,0.00,VWS V14.01,2013-06-24 01:59:00,
2013-06-23 22:00:00,79.6,77.4,30.14,South,173,5.0,6.0,93,0.00,,BKN035,0.00,VWS V14.01,2013-06-24 02:00:00,
2013-06-23 22:01:00,79.6,77.4,30.14,SSE,159,7.0,7.0,93,0.00,,BKN035,0.00,VWS V14.01,2013-06-24 02:01:00,
2013-06-23 22:02:00,79.8,77.9,30.14,South,174,9.0,9.0,94,0.00,,CLR,0.00,VWS V14.01,2013-06-24 02:02:00,
2013-06-23 22:03:00,79.6,77.7,30.14,SSE,162,6.0,8.0,94,0.00,,BKN035,0.00,VWS V14.01,2013-06-24 02:03:00,
2013-06-23 22:04:00,79.8,77.9,30.14,South,169,6.0,9.0,94,0.00,,BKN035,0.00,VWS V14.01,2013-06-24 02:04:00,
2013-06-23 22:05:00,79.6,77.7,30.14,SSE,153,9.0,9.0,94,0.00,,BKN035,0.00,VWS V14.01,2013-06-24 02:05:00,
2013-06-23 22:06:00,79.6,77.4,30.14,SSE,165,7.0,9.0,93,0.00,,BKN035,0.00,VWS V14.01,2013-06-24 02:06:00,
2013-06-23 22:07:00,79.8,77.9,30.14,SSE,159,7.0,10.0,94,0.00,,CLR,0.00,VWS V14.01,2013-06-24 02:07:00,
2013-06-23 22:08:00,79.8,77.9,30.14,SSE,161,10.0,10.0,94,0.00,,BKN035,0.00,VWS V14.01,2013-06-24 02:08:00,
2013-06-23 22:09:00,79.8,77.9,30.14,SSE,155,10.0,10.0,94,0.00,,BKN035,0.00,VWS V14.01,2013-06-24 02:09:00,
2013-06-23 22:10:00,79.6,77.7,30.14,SSE,152,10.0,10.0,94,0.00,,BKN035,0.00,VWS V14.01,2013-06-24 02:10:00,
2013-06-23 22:11:00,79.6,77.4,30.14,SSE,148,9.0,11.0,93,0.00,,BKN035,0.00,VWS V14.01,2013-06-24 02:11:00,
2013-06-23 22:12:00,79.6,77.7,30.14,SE,146,11.0,11.0,94,0.00,,CLR,0.00,VWS V14.01,2013-06-24 02:12:00,
2013-06-23 22:13:00,79.6,77.4,30.14,SE,140,10.0,10.0,93,0.00,,BKN035,0.00,VWS V14.01,2013-06-24 02:13:00,
2013-06-23 22:14:00,79.6,77.7,30.14,SSE,147,10.0,11.0,94,0.00,,BKN035,0.00,VWS V14.01,2013-06-24 02:14:00,
2013-06-23 22:15:00,79.4,77.5,30.14,SSE,150,7.0,10.0,94,0.00,,BKN035,0.00,VWS V14.01,2013-06-24 02:15:00,
2013-06-23 22:16:00,79.6,77.7,30.14,SSE,153,11.0,11.0,94,0.00,,BKN035,0.00,VWS V14.01,2013-06-24 02:16:00,
2013-06-23 22:17:00,79.6,77.4,30.14,SE,146,6.0,8.0,93,0.00,,CLR,0.00,VWS V14.01,2013-06-24 02:17:00,
2013-06-23 22:18:00,79.6,77.4,30.14,SSE,166,8.0,9.0,93,0.00,,BKN035,0.00,VWS V14.01,2013-06-24 02:18:00,
2013-06-23 22:19:00,79.6,77.4,30.14,SE,146,8.0,9.0,93,0.00,,BKN035,0.00,VWS V14.01,2013-06-24 02:19:00,
2013-06-23 22:20:00,79.6,77.4,30.14,SE,140,9.0,10.0,93,0.00,,BKN035,0.00,VWS V14.01,2013-06-24 02:20:00,
2013-06-23 22:21:00,79.4,77.2,30.14,SE,140,10.0,10.0,93,0.00,,BKN035,0.00,VWS V14.01,2013-06-24 02:21:00,
2013-06-23 22:22:00,79.4,77.2,30.14,SE,146,9.0,9.0,93,0.00,,CLR,0.00,VWS V14.01,2013-06-24 02:22:00,
2013-06-23 22:23:00,79.4,77.2,30.14,SSE,148,9.0,10.0,93,0.00,,BKN035,0.00,VWS V14.01,2013-06-24 02:23:00,
2013-06-23 22:24:00,79.4,77.2,30.14,SSE,155,6.0,9.0,93,0.00,,BKN035,0.00,VWS V14.01,2013-06-24 02:24:00,
2013-06-23 22:25:00,79.4,76.9,30.14,SE,145,10.0,10.0,92,0.00,,BKN035,0.00,VWS V14.01,2013-06-24 02:25:00,
2013-06-23 22:26:00,79.4,77.2,30.14,SSE,152,11.0,11.0,93,0.00,,BKN035,0.00,VWS V14.01,2013-06-24 02:26:00,
2013-06-23 22:27:00,79.6,77.4,30.14,SSE,155,7.0,9.0,93,0.00,,CLR,0.00,VWS V14.01,2013-06-24 02:27:00,
2013-06-23 22:28:00,79.6,77.4,30.14,SSE,150,9.0,11.0,93,0.00,,BKN035,0.00,VWS V14.01,2013-06-24 02:28:00,
2013-06-23 22:29:00,79.6,77.4,30.14,SSE,158,11.0,11.0,93,0.00,,BKN035,0.00,VWS V14.01,2013-06-24 02:29:00,
2013-06-23 22:30:00,79.6,77.1,30.14,SSE,161,9.0,11.0,92,0.00,,BKN035,0.00,VWS V14.01,2013-06-24 02:30:00,
2013-06-23 22:31:00,79.6,77.1,30.14,South,169,6.0,9.0,92,0.00,,BKN035,0.00,VWS V14.01,2013-06-24 02:31:00,
2013-06-23 22:32:00,79.6,77.1,30.14,SSE,162,9.0,9.0,92,0.00,,CLR,0.00,VWS V14.01,2013-06-24 02:32:00,
2013-06-23 22:33:00,79.6,77.1,30.14,South,187,8.0,10.0,92,0.00,,BKN035,0.00,VWS V14.01,2013-06-24 02:33:00,
2013-06-23 22:34:00,79.4,76.9,30.14,SSE,165,9.0,11.0,92,0.00,,BKN035,0.00,VWS V14.01,2013-06-24 02:34:00,
2013-06-23 22:35:00,79.4,76.9,30.14,SSE,165,9.0,10.0,92,0.00,,BKN035,0.00,VWS V14.01,2013-06-24 02:35:00,
2013-06-23 22:36:00,79.4,76.9,30.14,SSE,156,9.0,10.0,92,0.00,,BKN035,0.00,VWS V14.01,2013-06-24 02:36:00,
2013-06-23 22:37:00,79.6,77.1,30.14,SSE,164,7.0,9.0,92,0.00,,CLR,0.00,VWS V14.01,2013-06-24 02:37:00,
2013-06-23 22:38:00,79.4,76.9,30.14,SSE,150,9.0,11.0,92,0.00,,BKN035,0.00,VWS V14.01,2013-06-24 02:38:00,
2013-06-23 22:39:00,79.6,77.1,30.14,SSE,161,9.0,10.0,92,0.00,,BKN035,0.00,VWS V14.01,2013-06-24 02:39:00,
2013-06-23 22:40:00,79.6,77.4,30.14,SSE,161,8.0,9.0,93,0.00,,BKN035,0.00,VWS V14.01,2013-06-24 02:40:00,
2013-06-23 22:41:00,79.6,77.1,30.14,SSE,157,10.0,10.0,92,0.00,,BKN035,0.00,VWS V14.01,2013-06-24 02:41:00,
2013-06-23 22:42:00,79.6,77.1,30.14,South,174,9.0,9.0,92,0.00,,CLR,0.00,VWS V14.01,2013-06-24 02:42:00,
2013-06-23 22:43:00,79.6,77.1,30.14,South,174,9.0,9.0,92,0.00,,BKN035,0.00,VWS V14.01,2013-06-24 02:43:00,
2013-06-23 22:44:00,79.8,77.6,30.14,South,176,8.0,11.0,93,0.00,,BKN035,0.00,VWS V14.01,2013-06-24 02:44:00,
2013-06-23 22:45:00,79.8,77.3,30.14,South,180,9.0,9.0,92,0.00,,BKN035,0.00,VWS V14.01,2013-06-24 02:45:00,
2013-06-23 22:46:00,79.8,77.3,30.15,South,185,7.0,9.0,92,0.00,,BKN035,0.00,VWS V14.01,2013-06-24 02:46:00,
2013-06-23 22:47:00,79.8,77.6,30.15,South,177,11.0,11.0,93,0.00,,CLR,0.00,VWS V14.01,2013-06-24 02:47:00,
2013-06-23 22:48:00,79.8,77.6,30.15,South,182,9.0,9.0,93,0.00,,BKN035,0.00,VWS V14.01,2013-06-24 02:48:00,
2013-06-23 22:49:00,79.6,77.4,30.15,SSE,158,6.0,11.0,93,0.00,,BKN035,0.00,VWS V14.01,2013-06-24 02:49:00,
2013-06-23 22:50:00,79.6,77.4,30.15,South,180,8.0,8.0,93,0.00,,BKN035,0.00,VWS V14.01,2013-06-24 02:50:00,
2013-06-23 22:51:00,79.6,77.4,30.15,SSE,159,10.0,10.0,93,0.00,,BKN035,0.00,VWS V14.01,2013-06-24 02:51:00,
2013-06-23 22:52:00,79.6,77.4,30.15,SSW,192,10.0,10.0,93,0.00,,CLR,0.00,VWS V14.01,2013-06-24 02:52:00,
2013-06-23 22:53:00,79.6,77.4,30.15,South,186,10.0,10.0,93,0.00,,BKN035,0.00,VWS V14.01,2013-06-24 02:53:00,
2013-06-23 22:54:00,79.6,77.4,30.15,South,173,6.0,10.0,93,0.00,,BKN035,0.00,VWS V14.01,2013-06-24 02:54:00,
2013-06-23 22:55:00,79.4,76.9,30.15,South,173,10.0,10.0,92,0.00,,BKN035,0.00,VWS V14.01,2013-06-24 02:55:00,
2013-06-23 22:56:00,79.4,77.2,30.15,SSW,209,7.0,10.0,93,0.00,,BKN035,0.00,VWS V14.01,2013-06-24 02:56:00,
2013-06-23 22:57:00,79.4,76.9,30.15,SSE,167,10.0,10.0,92,0.00,,CLR,0.00,VWS V14.01,2013-06-24 02:57:00,
2013-06-23 22:58:00,79.4,76.9,30.15,SSE,167,7.0,8.0,92,0.00,,BKN035,0.00,VWS V14.01,2013-06-24 02:58:00,
2013-06-23 22:59:00,79.4,77.2,30.15,SSE,163,8.0,10.0,93,0.00,,BKN035,0.00,VWS V14.01,2013-06-24 02:59:00,
2013-06-23 23:00:00,79.4,76.9,30.15,South,169,7.0,9.0,92,0.00,,BKN035,0.00,VWS V14.01,2013-06-24 03:00:00,
2013-06-23 23:01:00,79.2,76.7,30.15,South,174,7.0,9.0,92,0.00,,BKN035,0.00,VWS V14.01,2013-06-24 03:01:00,
2013-06-23 23:02:00,79.4,76.9,30.15,South,176,7.0,7.0,92,0.00,,CLR,0.00,VWS V14.01,2013-06-24 03:02:00,
2013-06-23 23:03:00,79.2,76.7,30.15,SSW,203,6.0,10.0,92,0.00,,BKN035,0.00,VWS V14.01,2013-06-24 03:03:00,
2013-06-23 23:04:00,79.4,76.9,30.15,SSE,167,7.0,9.0,92,0.00,,BKN035,0.00,VWS V14.01,2013-06-24 03:04:00,
2013-06-23 23:05:00,79.4,76.9,30.15,South,172,6.0,10.0,92,0.00,,BKN035,0.00,VWS V14.01,2013-06-24 03:05:00,
2013-06-23 23:06:00,79.2,76.7,30.15,South,178,9.0,9.0,92,0.00,,BKN035,0.00,VWS V14.01,2013-06-24 03:06:00,
2013-06-23 23:07:00,79.2,78.0,30.15,SSE,153,8.0,9.0,96,0.00,,CLR,0.00,VWS V14.01,2013-06-24 03:07:00,
2013-06-23 23:08:00,79.2,78.0,30.15,SSE,153,8.0,9.0,96,0.00,,BKN035,0.00,VWS V14.01,2013-06-24 03:08:00,
2013-06-23 23:09:00,79.2,78.0,30.15,SSE,162,9.0,10.0,96,0.00,,BKN035,0.00,VWS V14.01,2013-06-24 03:09:00,
2013-06-23 23:10:00,79.2,76.7,30.15,SSE,168,6.0,10.0,92,0.00,,BKN035,0.00,VWS V14.01,2013-06-24 03:10:00,
2013-06-23 23:11:00,79.4,76.6,30.15,South,184,6.0,10.0,91,0.00,,BKN035,0.00,VWS V14.01,2013-06-24 03:11:00,
2013-06-23 23:12:00,79.4,76.6,30.15,SSE,163,6.0,10.0,91,0.00,,CLR,0.00,VWS V14.01,2013-06-24 03:12:00,
2013-06-23 23:13:00,79.4,76.6,30.15,SSE,163,6.0,10.0,91,0.00,,BKN035,0.00,VWS V14.01,2013-06-24 03:13:00,
2013-06-23 23:14:00,79.4,76.6,30.16,South,173,9.0,9.0,91,0.00,,BKN035,0.00,VWS V14.01,2013-06-24 03:14:00,
2013-06-23 23:15:00,79.4,76.6,30.16,SSE,160,7.0,9.0,91,0.00,,BKN035,0.00,VWS V14.01,2013-06-24 03:15:00,
2013-06-23 23:16:00,79.4,76.6,30.16,South,174,8.0,9.0,91,0.00,,BKN035,0.00,VWS V14.01,2013-06-24 03:16:00,
2013-06-23 23:17:00,79.4,76.6,30.16,SSW,200,11.0,11.0,91,0.00,,CLR,0.00,VWS V14.01,2013-06-24 03:17:00,
2013-06-23 23:18:00,79.4,76.6,30.16,SSW,200,11.0,11.0,91,0.00,,BKN035,0.00,VWS V14.01,2013-06-24 03:18:00,
2013-06-23 23:19:00,79.6,77.1,30.15,SSW,198,9.0,11.0,92,0.00,,BKN035,0.00,VWS V14.01,2013-06-24 03:19:00,
2013-06-23 23:20:00,79.6,76.8,30.15,South,178,11.0,11.0,91,0.00,,BKN035,0.00,VWS V14.01,2013-06-24 03:20:00,
2013-06-23 23:21:00,79.6,76.8,30.15,South,189,12.0,12.0,91,0.00,,BKN035,0.00,VWS V14.01,2013-06-24 03:21:00,
2013-06-23 23:22:00,79.6,76.8,30.15,SSW,198,7.0,9.0,91,0.00,,CLR,0.00,VWS V14.01,2013-06-24 03:22:00,
2013-06-23 23:23:00,79.6,76.8,30.15,SSW,198,7.0,9.0,91,0.00,,BKN035,0.00,VWS V14.01,2013-06-24 03:23:00,
2013-06-23 23:24:00,79.6,76.8,30.15,South,171,10.0,10.0,91,0.00,,BKN035,0.00,VWS V14.01,2013-06-24 03:24:00,
2013-06-23 23:25:00,79.6,76.8,30.15,South,172,10.0,11.0,91,0.00,,BKN035,0.00,VWS V14.01,2013-06-24 03:25:00,
2013-06-23 23:26:00,79.6,76.8,30.15,South,184,12.0,12.0,91,0.00,,BKN035,0.00,VWS V14.01,2013-06-24 03:26:00,
2013-06-23 23:27:00,79.6,77.1,30.15,South,170,5.0,10.0,92,0.00,,CLR,0.00,VWS V14.01,2013-06-24 03:27:00,
2013-06-23 23:28:00,79.6,77.1,30.15,South,170,5.0,10.0,92,0.00,,BKN035,0.00,VWS V14.01,2013-06-24 03:28:00,
2013-06-23 23:29:00,79.8,77.3,30.15,South,175,10.0,10.0,92,0.00,,BKN035,0.00,VWS V14.01,2013-06-24 03:29:00,
2013-06-23 23:30:00,79.8,77.3,30.15,South,170,10.0,12.0,92,0.00,,BKN035,0.00,VWS V14.01,2013-06-24 03:30:00,
2013-06-23 23:31:00,79.8,77.3,30.15,SSE,167,7.0,10.0,92,0.00,,BKN035,0.00,VWS V14.01,2013-06-24 03:31:00,
2013-06-23 23:32:00,79.8,77.3,30.15,South,170,11.0,11.0,92,0.00,,CLR,0.00,VWS V14.01,2013-06-24 03:32:00,
2013-06-23 23:33:00,79.8,77.3,30.15,South,171,6.0,11.0,92,0.00,,BKN035,0.00,VWS V14.01,2013-06-24 03:33:00,
2013-06-23 23:34:00,79.6,76.8,30.15,SSE,155,10.0,11.0,91,0.00,,BKN035,0.00,VWS V14.01,2013-06-24 03:34:00,
2013-06-23 23:35:00,79.6,76.8,30.15,SSE,161,7.0,11.0,91,0.00,,BKN035,0.00,VWS V14.01,2013-06-24 03:35:00,
2013-06-23 23:36:00,79.6,77.1,30.15,SSE,167,7.0,10.0,92,0.00,,BKN035,0.00,VWS V14.01,2013-06-24 03:36:00,
2013-06-23 23:37:00,79.8,77.3,30.15,SSE,165,8.0,9.0,92,0.00,,CLR,0.00,VWS V14.01,2013-06-24 03:37:00,
2013-06-23 23:38:00,79.8,77.3,30.15,South,175,9.0,10.0,92,0.00,,BKN035,0.00,VWS V14.01,2013-06-24 03:38:00,
2013-06-23 23:39:00,79.8,77.3,30.15,South,171,12.0,12.0,92,0.00,,BKN035,0.00,VWS V14.01,2013-06-24 03:39:00,
2013-06-23 23:40:00,79.8,77.3,30.15,SSE,167,8.0,12.0,92,0.00,,BKN035,0.00,VWS V14.01,2013-06-24 03:40:00,
2013-06-23 23:41:00,79.6,77.1,30.15,South,171,8.0,10.0,92,0.00,,BKN035,0.00,VWS V14.01,2013-06-24 03:41:00,
2013-06-23 23:42:00,79.8,77.3,30.15,SSE,160,9.0,12.0,92,0.00,,CLR,0.00,VWS V14.01,2013-06-24 03:42:00,
2013-06-23 23:43:00,79.8,77.3,30.15,SSE,156,12.0,12.0,92,0.00,,BKN035,0.00,VWS V14.01,2013-06-24 03:43:00,
2013-06-23 23:44:00,79.8,77.3,30.15,SSE,154,12.0,12.0,92,0.00,,BKN035,0.00,VWS V14.01,2013-06-24 03:44:00,
2013-06-23 23:45:00,79.6,77.1,30.15,SSE,161,12.0,14.0,92,0.00,,BKN035,0.00,VWS V14.01,2013-06-24 03:45:00,
2013-06-23 23:46:00,79.6,77.1,30.15,SSE,152,13.0,15.0,92,0.00,,BKN035,0.00,VWS V14.01,2013-06-24 03:46:00,
2013-06-23 23:47:00,79.6,77.1,30.15,SSE,152,11.0,11.0,92,0.00,,CLR,0.00,VWS V14.01,2013-06-24 03:47:00,
2013-06-23 23:48:00,79.6,77.1,30.15,SSE,163,11.0,13.0,92,0.00,,BKN035,0.00,VWS V14.01,2013-06-24 03:48:00,
2013-06-23 23:49:00,79.6,77.1,30.15,SSE,164,11.0,12.0,92,0.00,,BKN035,0.00,VWS V14.01,2013-06-24 03:49:00,
2013-06-23 23:50:00,79.6,77.1,30.15,SSE,148,12.0,13.0,92,0.00,,BKN035,0.00,VWS V14.01,2013-06-24 03:50:00,
2013-06-23 23:51:00,79.8,77.3,30.15,SSE,159,12.0,13.0,92,0.00,,BKN035,0.00,VWS V14.01,2013-06-24 03:51:00,
2013-06-23 23:52:00,79.8,77.3,30.15,SSE,153,11.0,12.0,92,0.00,,CLR,0.00,VWS V14.01,2013-06-24 03:52:00,
2013-06-23 23:53:00,79.8,77.3,30.15,SSE,153,11.0,12.0,92,0.00,,BKN035,0.00,VWS V14.01,2013-06-24 03:53:00,
2013-06-23 23:54:00,79.6,76.8,30.15,SSE,162,10.0,13.0,91,0.00,,BKN035,0.00,VWS V14.01,2013-06-24 03:54:00,
2013-06-23 23:55:00,79.6,76.8,30.16,SSE,168,12.0,13.0,91,0.00,,BKN035,0.00,VWS V14.01,2013-06-24 03:55:00,
2013-06-23 23:56:00,79.6,76.8,30.15,SSE,167,10.0,14.0,91,0.00,,BKN035,0.00,VWS V14.01,2013-06-24 03:56:00,
2013-06-23 23:57:00,79.6,76.8,30.16,South,178,10.0,13.0,91,0.00,,CLR,0.00,VWS V14.01,2013-06-24 03:57:00,
2013-06-23 23:58:00,79.6,76.8,30.16,South,178,10.0,13.0,91,0.00,,BKN035,0.00,VWS V14.01,2013-06-24 03:58:00,
2013-06-23 23:59:00,79.6,76.8,30.15,South,169,12.0,13.0,91,0.00,,BKN035,0.00,VWS V14.01,2013-06-24 03:59:00,